<?xml version="1.0" encoding="UTF-8" standalone="no" ?>
<gpx xmlns="http://www.topografix.com/GPX/1/1" xmlns:xsi="http://www.w3.org/2001/XMLSchema-instance" xsi:schemaLocation="http://www.topografix.com/GPX/1/1 http://www.topografix.com/GPX/1/1/gpx.xsd" version="1.1" creator="VisuGPX - https://www.visugpx.com">
  <metadata>
    <name>mensu 25</name>
    <desc><![CDATA[21/12/2014mensu25vtt44]]></desc>
  </metadata>
  <trk>
    <name><![CDATA[mensu 25_1]]></name>
    <trkseg>
      <trkpt lat="47.27016" lon="-1.6242">
        <ele>91.5</ele>
        <time>2014-12-21T07:22:17Z</time>
      </trkpt>
      <trkpt lat="47.27016" lon="-1.6242">
        <ele>91.5</ele>
        <time>2014-12-21T07:22:18Z</time>
      </trkpt>
      <trkpt lat="47.27018" lon="-1.6242">
        <ele>87.8</ele>
        <time>2014-12-21T07:23:16Z</time>
      </trkpt>
      <trkpt lat="47.27018" lon="-1.62421">
        <ele>88.5</ele>
        <time>2014-12-21T07:23:39Z</time>
      </trkpt>
      <trkpt lat="47.27018" lon="-1.62417">
        <ele>88.5</ele>
        <time>2014-12-21T07:24:23Z</time>
      </trkpt>
      <trkpt lat="47.27014" lon="-1.62414">
        <ele>82.8</ele>
        <time>2014-12-21T07:24:51Z</time>
      </trkpt>
      <trkpt lat="47.27013" lon="-1.62417">
        <ele>88.5</ele>
        <time>2014-12-21T07:25:51Z</time>
      </trkpt>
      <trkpt lat="47.27011" lon="-1.62416">
        <ele>90.9</ele>
        <time>2014-12-21T07:25:58Z</time>
      </trkpt>
      <trkpt lat="47.2701" lon="-1.62412">
        <ele>83.5</ele>
        <time>2014-12-21T07:26:46Z</time>
      </trkpt>
      <trkpt lat="47.27007" lon="-1.62412">
        <ele>86.5</ele>
        <time>2014-12-21T07:27:29Z</time>
      </trkpt>
      <trkpt lat="47.27009" lon="-1.62415">
        <ele>84.9</ele>
        <time>2014-12-21T07:27:36Z</time>
      </trkpt>
      <trkpt lat="47.27008" lon="-1.62416">
        <ele>88.5</ele>
        <time>2014-12-21T07:27:43Z</time>
      </trkpt>
      <trkpt lat="47.27006" lon="-1.62414">
        <ele>87.8</ele>
        <time>2014-12-21T07:28:31Z</time>
      </trkpt>
      <trkpt lat="47.27011" lon="-1.62423">
        <ele>84.3</ele>
        <time>2014-12-21T07:30:10Z</time>
      </trkpt>
      <trkpt lat="47.27013" lon="-1.62422">
        <ele>79.5</ele>
        <time>2014-12-21T07:30:24Z</time>
      </trkpt>
      <trkpt lat="47.27014" lon="-1.62423">
        <ele>78.5</ele>
        <time>2014-12-21T07:30:30Z</time>
      </trkpt>
      <trkpt lat="47.27013" lon="-1.6242">
        <ele>77.8</ele>
        <time>2014-12-21T07:30:37Z</time>
      </trkpt>
      <trkpt lat="47.27013" lon="-1.6242">
        <ele>77.9</ele>
        <time>2014-12-21T07:30:44Z</time>
      </trkpt>
      <trkpt lat="47.27015" lon="-1.62423">
        <ele>77.1</ele>
        <time>2014-12-21T07:32:03Z</time>
      </trkpt>
      <trkpt lat="47.27015" lon="-1.62423">
        <ele>77.3</ele>
        <time>2014-12-21T07:32:10Z</time>
      </trkpt>
      <trkpt lat="47.27015" lon="-1.62426">
        <ele>77.5</ele>
        <time>2014-12-21T07:32:17Z</time>
      </trkpt>
      <trkpt lat="47.27012" lon="-1.62423">
        <ele>83.6</ele>
        <time>2014-12-21T07:32:57Z</time>
      </trkpt>
      <trkpt lat="47.2701" lon="-1.62421">
        <ele>84.5</ele>
        <time>2014-12-21T07:34:22Z</time>
      </trkpt>
      <trkpt lat="47.27007" lon="-1.62421">
        <ele>86.3</ele>
        <time>2014-12-21T07:34:29Z</time>
      </trkpt>
      <trkpt lat="47.27007" lon="-1.6242">
        <ele>87.5</ele>
        <time>2014-12-21T07:34:36Z</time>
      </trkpt>
      <trkpt lat="47.27008" lon="-1.62419">
        <ele>84.3</ele>
        <time>2014-12-21T07:34:43Z</time>
      </trkpt>
      <trkpt lat="47.27008" lon="-1.62418">
        <ele>80.9</ele>
        <time>2014-12-21T07:34:50Z</time>
      </trkpt>
      <trkpt lat="47.2701" lon="-1.62416">
        <ele>78.5</ele>
        <time>2014-12-21T07:35:04Z</time>
      </trkpt>
      <trkpt lat="47.27009" lon="-1.62416">
        <ele>78.8</ele>
        <time>2014-12-21T07:35:11Z</time>
      </trkpt>
      <trkpt lat="47.27009" lon="-1.62416">
        <ele>76</ele>
        <time>2014-12-21T07:35:18Z</time>
      </trkpt>
      <trkpt lat="47.2701" lon="-1.62419">
        <ele>74.9</ele>
        <time>2014-12-21T07:35:25Z</time>
      </trkpt>
      <trkpt lat="47.27011" lon="-1.62414">
        <ele>81.3</ele>
        <time>2014-12-21T07:36:40Z</time>
      </trkpt>
      <trkpt lat="47.27012" lon="-1.62412">
        <ele>80.3</ele>
        <time>2014-12-21T07:38:25Z</time>
      </trkpt>
      <trkpt lat="47.27012" lon="-1.62417">
        <ele>77.4</ele>
        <time>2014-12-21T07:38:54Z</time>
      </trkpt>
      <trkpt lat="47.27013" lon="-1.6242">
        <ele>76.9</ele>
        <time>2014-12-21T07:39:13Z</time>
      </trkpt>
      <trkpt lat="47.2701" lon="-1.62416">
        <ele>85.3</ele>
        <time>2014-12-21T07:40:41Z</time>
      </trkpt>
      <trkpt lat="47.27009" lon="-1.62414">
        <ele>84.6</ele>
        <time>2014-12-21T07:40:47Z</time>
      </trkpt>
      <trkpt lat="47.27007" lon="-1.62424">
        <ele>85.5</ele>
        <time>2014-12-21T07:42:16Z</time>
      </trkpt>
      <trkpt lat="47.27005" lon="-1.62436">
        <ele>82.4</ele>
        <time>2014-12-21T07:42:19Z</time>
      </trkpt>
      <trkpt lat="47.26996" lon="-1.62432">
        <ele>84</ele>
        <time>2014-12-21T07:42:23Z</time>
      </trkpt>
      <trkpt lat="47.26987" lon="-1.62426">
        <ele>85</ele>
        <time>2014-12-21T07:42:26Z</time>
      </trkpt>
      <trkpt lat="47.26975" lon="-1.62426">
        <ele>83.8</ele>
        <time>2014-12-21T07:42:29Z</time>
      </trkpt>
      <trkpt lat="47.26967" lon="-1.62426">
        <ele>87.4</ele>
        <time>2014-12-21T07:42:32Z</time>
      </trkpt>
      <trkpt lat="47.26957" lon="-1.6243">
        <ele>83.4</ele>
        <time>2014-12-21T07:42:38Z</time>
      </trkpt>
      <trkpt lat="47.26955" lon="-1.6244">
        <ele>82.3</ele>
        <time>2014-12-21T07:42:39Z</time>
      </trkpt>
      <trkpt lat="47.2695" lon="-1.6245">
        <ele>82</ele>
        <time>2014-12-21T07:42:42Z</time>
      </trkpt>
      <trkpt lat="47.26942" lon="-1.62453">
        <ele>82.4</ele>
        <time>2014-12-21T07:42:46Z</time>
      </trkpt>
      <trkpt lat="47.26934" lon="-1.62449">
        <ele>84.1</ele>
        <time>2014-12-21T07:42:50Z</time>
      </trkpt>
      <trkpt lat="47.26924" lon="-1.62446">
        <ele>83.1</ele>
        <time>2014-12-21T07:42:52Z</time>
      </trkpt>
      <trkpt lat="47.26917" lon="-1.62442">
        <ele>81.3</ele>
        <time>2014-12-21T07:42:52Z</time>
      </trkpt>
      <trkpt lat="47.26906" lon="-1.62439">
        <ele>80.1</ele>
        <time>2014-12-21T07:42:54Z</time>
      </trkpt>
      <trkpt lat="47.26898" lon="-1.62437">
        <ele>78.9</ele>
        <time>2014-12-21T07:42:56Z</time>
      </trkpt>
      <trkpt lat="47.26888" lon="-1.62438">
        <ele>82.1</ele>
        <time>2014-12-21T07:42:59Z</time>
      </trkpt>
      <trkpt lat="47.2688" lon="-1.6243">
        <ele>81.5</ele>
        <time>2014-12-21T07:43:04Z</time>
      </trkpt>
      <trkpt lat="47.26872" lon="-1.62423">
        <ele>82.1</ele>
        <time>2014-12-21T07:43:07Z</time>
      </trkpt>
      <trkpt lat="47.26861" lon="-1.62413">
        <ele>81.6</ele>
        <time>2014-12-21T07:43:08Z</time>
      </trkpt>
      <trkpt lat="47.26847" lon="-1.62404">
        <ele>80.4</ele>
        <time>2014-12-21T07:43:10Z</time>
      </trkpt>
      <trkpt lat="47.26833" lon="-1.62398">
        <ele>74.3</ele>
        <time>2014-12-21T07:43:12Z</time>
      </trkpt>
      <trkpt lat="47.26823" lon="-1.6239">
        <ele>67.8</ele>
        <time>2014-12-21T07:43:14Z</time>
      </trkpt>
      <trkpt lat="47.26813" lon="-1.62384">
        <ele>64.3</ele>
        <time>2014-12-21T07:43:17Z</time>
      </trkpt>
      <trkpt lat="47.26802" lon="-1.62374">
        <ele>62</ele>
        <time>2014-12-21T07:43:19Z</time>
      </trkpt>
      <trkpt lat="47.26789" lon="-1.62362">
        <ele>60.5</ele>
        <time>2014-12-21T07:43:20Z</time>
      </trkpt>
      <trkpt lat="47.26783" lon="-1.62355">
        <ele>60</ele>
        <time>2014-12-21T07:43:21Z</time>
      </trkpt>
      <trkpt lat="47.26778" lon="-1.62339">
        <ele>59.2</ele>
        <time>2014-12-21T07:43:24Z</time>
      </trkpt>
      <trkpt lat="47.26774" lon="-1.62328">
        <ele>58.5</ele>
        <time>2014-12-21T07:43:25Z</time>
      </trkpt>
      <trkpt lat="47.26767" lon="-1.62319">
        <ele>58.7</ele>
        <time>2014-12-21T07:43:28Z</time>
      </trkpt>
      <trkpt lat="47.26781" lon="-1.62315">
        <ele>46.7</ele>
        <time>2014-12-21T07:43:30Z</time>
      </trkpt>
      <trkpt lat="47.26786" lon="-1.62305">
        <ele>39.2</ele>
        <time>2014-12-21T07:43:34Z</time>
      </trkpt>
      <trkpt lat="47.26782" lon="-1.62296">
        <ele>42</ele>
        <time>2014-12-21T07:43:36Z</time>
      </trkpt>
      <trkpt lat="47.26775" lon="-1.6229">
        <ele>50.7</ele>
        <time>2014-12-21T07:43:39Z</time>
      </trkpt>
      <trkpt lat="47.26779" lon="-1.6228">
        <ele>53.2</ele>
        <time>2014-12-21T07:43:41Z</time>
      </trkpt>
      <trkpt lat="47.26776" lon="-1.62269">
        <ele>57.2</ele>
        <time>2014-12-21T07:43:45Z</time>
      </trkpt>
      <trkpt lat="47.26769" lon="-1.6226">
        <ele>61.5</ele>
        <time>2014-12-21T07:43:49Z</time>
      </trkpt>
      <trkpt lat="47.26764" lon="-1.6225">
        <ele>63.7</ele>
        <time>2014-12-21T07:43:51Z</time>
      </trkpt>
      <trkpt lat="47.26762" lon="-1.62238">
        <ele>65</ele>
        <time>2014-12-21T07:43:54Z</time>
      </trkpt>
      <trkpt lat="47.2676" lon="-1.62226">
        <ele>67.8</ele>
        <time>2014-12-21T07:43:56Z</time>
      </trkpt>
      <trkpt lat="47.26758" lon="-1.62214">
        <ele>68.1</ele>
        <time>2014-12-21T07:43:59Z</time>
      </trkpt>
      <trkpt lat="47.26753" lon="-1.62193">
        <ele>71.5</ele>
        <time>2014-12-21T07:44:03Z</time>
      </trkpt>
      <trkpt lat="47.26749" lon="-1.62179">
        <ele>73.6</ele>
        <time>2014-12-21T07:44:05Z</time>
      </trkpt>
      <trkpt lat="47.26744" lon="-1.62162">
        <ele>75.5</ele>
        <time>2014-12-21T07:44:07Z</time>
      </trkpt>
      <trkpt lat="47.26742" lon="-1.62151">
        <ele>75.8</ele>
        <time>2014-12-21T07:44:09Z</time>
      </trkpt>
      <trkpt lat="47.26741" lon="-1.62138">
        <ele>77</ele>
        <time>2014-12-21T07:44:11Z</time>
      </trkpt>
      <trkpt lat="47.26741" lon="-1.62124">
        <ele>72.8</ele>
        <time>2014-12-21T07:44:13Z</time>
      </trkpt>
      <trkpt lat="47.26745" lon="-1.62112">
        <ele>75.1</ele>
        <time>2014-12-21T07:44:15Z</time>
      </trkpt>
      <trkpt lat="47.26748" lon="-1.62102">
        <ele>79.1</ele>
        <time>2014-12-21T07:44:17Z</time>
      </trkpt>
      <trkpt lat="47.26755" lon="-1.62095">
        <ele>81.9</ele>
        <time>2014-12-21T07:44:20Z</time>
      </trkpt>
      <trkpt lat="47.26762" lon="-1.621">
        <ele>84.5</ele>
        <time>2014-12-21T07:44:22Z</time>
      </trkpt>
      <trkpt lat="47.26772" lon="-1.62109">
        <ele>85.5</ele>
        <time>2014-12-21T07:44:24Z</time>
      </trkpt>
      <trkpt lat="47.268" lon="-1.62121">
        <ele>80.1</ele>
        <time>2014-12-21T07:44:27Z</time>
      </trkpt>
      <trkpt lat="47.26807" lon="-1.62128">
        <ele>82.4</ele>
        <time>2014-12-21T07:44:30Z</time>
      </trkpt>
      <trkpt lat="47.26817" lon="-1.62129">
        <ele>84.4</ele>
        <time>2014-12-21T07:44:33Z</time>
      </trkpt>
      <trkpt lat="47.26826" lon="-1.62126">
        <ele>86.3</ele>
        <time>2014-12-21T07:44:36Z</time>
      </trkpt>
      <trkpt lat="47.26834" lon="-1.62121">
        <ele>86.6</ele>
        <time>2014-12-21T07:44:38Z</time>
      </trkpt>
      <trkpt lat="47.26843" lon="-1.6212">
        <ele>91.5</ele>
        <time>2014-12-21T07:44:41Z</time>
      </trkpt>
      <trkpt lat="47.26852" lon="-1.62115">
        <ele>94.8</ele>
        <time>2014-12-21T07:44:44Z</time>
      </trkpt>
      <trkpt lat="47.26858" lon="-1.62107">
        <ele>95.1</ele>
        <time>2014-12-21T07:44:46Z</time>
      </trkpt>
      <trkpt lat="47.26865" lon="-1.62103">
        <ele>95.5</ele>
        <time>2014-12-21T07:44:49Z</time>
      </trkpt>
      <trkpt lat="47.26868" lon="-1.62092">
        <ele>93.9</ele>
        <time>2014-12-21T07:44:56Z</time>
      </trkpt>
      <trkpt lat="47.26873" lon="-1.62082">
        <ele>93.3</ele>
        <time>2014-12-21T07:44:59Z</time>
      </trkpt>
      <trkpt lat="47.26876" lon="-1.62072">
        <ele>94.3</ele>
        <time>2014-12-21T07:45:01Z</time>
      </trkpt>
      <trkpt lat="47.26884" lon="-1.62065">
        <ele>93.5</ele>
        <time>2014-12-21T07:45:04Z</time>
      </trkpt>
      <trkpt lat="47.26893" lon="-1.62058">
        <ele>99.5</ele>
        <time>2014-12-21T07:45:08Z</time>
      </trkpt>
      <trkpt lat="47.26904" lon="-1.62051">
        <ele>96.5</ele>
        <time>2014-12-21T07:45:11Z</time>
      </trkpt>
      <trkpt lat="47.26912" lon="-1.62045">
        <ele>97.4</ele>
        <time>2014-12-21T07:45:13Z</time>
      </trkpt>
      <trkpt lat="47.26908" lon="-1.62033">
        <ele>88.8</ele>
        <time>2014-12-21T07:45:20Z</time>
      </trkpt>
      <trkpt lat="47.26915" lon="-1.62023">
        <ele>86.5</ele>
        <time>2014-12-21T07:45:26Z</time>
      </trkpt>
      <trkpt lat="47.26921" lon="-1.62018">
        <ele>95.5</ele>
        <time>2014-12-21T07:45:33Z</time>
      </trkpt>
      <trkpt lat="47.26931" lon="-1.62016">
        <ele>101.4</ele>
        <time>2014-12-21T07:45:36Z</time>
      </trkpt>
      <trkpt lat="47.26939" lon="-1.62013">
        <ele>104</ele>
        <time>2014-12-21T07:45:38Z</time>
      </trkpt>
      <trkpt lat="47.26946" lon="-1.62002">
        <ele>100.9</ele>
        <time>2014-12-21T07:45:42Z</time>
      </trkpt>
      <trkpt lat="47.2695" lon="-1.61992">
        <ele>99</ele>
        <time>2014-12-21T07:45:47Z</time>
      </trkpt>
      <trkpt lat="47.26948" lon="-1.61981">
        <ele>99</ele>
        <time>2014-12-21T07:45:52Z</time>
      </trkpt>
      <trkpt lat="47.26945" lon="-1.6197">
        <ele>102.9</ele>
        <time>2014-12-21T07:45:59Z</time>
      </trkpt>
      <trkpt lat="47.26939" lon="-1.61962">
        <ele>109</ele>
        <time>2014-12-21T07:46:05Z</time>
      </trkpt>
      <trkpt lat="47.26859" lon="-1.61935">
        <ele>116.4</ele>
        <time>2014-12-21T07:46:43Z</time>
      </trkpt>
      <trkpt lat="47.26852" lon="-1.61932">
        <ele>105.6</ele>
        <time>2014-12-21T07:46:44Z</time>
      </trkpt>
      <trkpt lat="47.26856" lon="-1.6192">
        <ele>102.3</ele>
        <time>2014-12-21T07:46:49Z</time>
      </trkpt>
      <trkpt lat="47.26863" lon="-1.61914">
        <ele>98.1</ele>
        <time>2014-12-21T07:46:51Z</time>
      </trkpt>
      <trkpt lat="47.26863" lon="-1.61901">
        <ele>98</ele>
        <time>2014-12-21T07:46:53Z</time>
      </trkpt>
      <trkpt lat="47.26865" lon="-1.61891">
        <ele>100.5</ele>
        <time>2014-12-21T07:46:55Z</time>
      </trkpt>
      <trkpt lat="47.26865" lon="-1.61875">
        <ele>106.5</ele>
        <time>2014-12-21T07:46:58Z</time>
      </trkpt>
      <trkpt lat="47.26867" lon="-1.61864">
        <ele>101</ele>
        <time>2014-12-21T07:47:01Z</time>
      </trkpt>
      <trkpt lat="47.26866" lon="-1.61853">
        <ele>91.3</ele>
        <time>2014-12-21T07:47:06Z</time>
      </trkpt>
      <trkpt lat="47.26873" lon="-1.61846">
        <ele>87.1</ele>
        <time>2014-12-21T07:47:10Z</time>
      </trkpt>
      <trkpt lat="47.26866" lon="-1.6184">
        <ele>94.6</ele>
        <time>2014-12-21T07:47:15Z</time>
      </trkpt>
      <trkpt lat="47.26873" lon="-1.61833">
        <ele>94.8</ele>
        <time>2014-12-21T07:47:21Z</time>
      </trkpt>
      <trkpt lat="47.26875" lon="-1.61825">
        <ele>97.6</ele>
        <time>2014-12-21T07:47:28Z</time>
      </trkpt>
      <trkpt lat="47.26883" lon="-1.6182">
        <ele>99.5</ele>
        <time>2014-12-21T07:47:33Z</time>
      </trkpt>
      <trkpt lat="47.26884" lon="-1.61808">
        <ele>99.6</ele>
        <time>2014-12-21T07:47:37Z</time>
      </trkpt>
      <trkpt lat="47.2688" lon="-1.61799">
        <ele>102.5</ele>
        <time>2014-12-21T07:47:39Z</time>
      </trkpt>
      <trkpt lat="47.26881" lon="-1.61788">
        <ele>107.8</ele>
        <time>2014-12-21T07:47:43Z</time>
      </trkpt>
      <trkpt lat="47.26885" lon="-1.61774">
        <ele>115.9</ele>
        <time>2014-12-21T07:47:48Z</time>
      </trkpt>
      <trkpt lat="47.26889" lon="-1.61761">
        <ele>117</ele>
        <time>2014-12-21T07:47:51Z</time>
      </trkpt>
      <trkpt lat="47.26895" lon="-1.61753">
        <ele>115.6</ele>
        <time>2014-12-21T07:47:58Z</time>
      </trkpt>
      <trkpt lat="47.269" lon="-1.61749">
        <ele>114.1</ele>
        <time>2014-12-21T07:48:05Z</time>
      </trkpt>
      <trkpt lat="47.269" lon="-1.6175">
        <ele>114.4</ele>
        <time>2014-12-21T07:48:13Z</time>
      </trkpt>
      <trkpt lat="47.26898" lon="-1.6175">
        <ele>116</ele>
        <time>2014-12-21T07:48:23Z</time>
      </trkpt>
      <trkpt lat="47.26888" lon="-1.6174">
        <ele>108</ele>
        <time>2014-12-21T07:48:13Z</time>
      </trkpt>
      <trkpt lat="47.26881" lon="-1.61735">
        <ele>104.6</ele>
        <time>2014-12-21T07:49:22Z</time>
      </trkpt>
      <trkpt lat="47.26883" lon="-1.61739">
        <ele>104.9</ele>
        <time>2014-12-21T07:49:36Z</time>
      </trkpt>
      <trkpt lat="47.26877" lon="-1.61745">
        <ele>106.1</ele>
        <time>2014-12-21T07:49:40Z</time>
      </trkpt>
      <trkpt lat="47.2687" lon="-1.61747">
        <ele>104.6</ele>
        <time>2014-12-21T07:49:45Z</time>
      </trkpt>
      <trkpt lat="47.26859" lon="-1.61746">
        <ele>104.5</ele>
        <time>2014-12-21T07:49:49Z</time>
      </trkpt>
      <trkpt lat="47.26851" lon="-1.61747">
        <ele>105.6</ele>
        <time>2014-12-21T07:49:51Z</time>
      </trkpt>
      <trkpt lat="47.26845" lon="-1.61735">
        <ele>111.4</ele>
        <time>2014-12-21T07:49:55Z</time>
      </trkpt>
      <trkpt lat="47.2684" lon="-1.61725">
        <ele>110.5</ele>
        <time>2014-12-21T07:50:00Z</time>
      </trkpt>
      <trkpt lat="47.26833" lon="-1.61717">
        <ele>112.5</ele>
        <time>2014-12-21T07:50:04Z</time>
      </trkpt>
      <trkpt lat="47.26825" lon="-1.61709">
        <ele>106.6</ele>
        <time>2014-12-21T07:50:04Z</time>
      </trkpt>
      <trkpt lat="47.26815" lon="-1.61699">
        <ele>103.3</ele>
        <time>2014-12-21T07:50:06Z</time>
      </trkpt>
      <trkpt lat="47.26806" lon="-1.61705">
        <ele>99.9</ele>
        <time>2014-12-21T07:50:09Z</time>
      </trkpt>
      <trkpt lat="47.268" lon="-1.61714">
        <ele>97.5</ele>
        <time>2014-12-21T07:50:12Z</time>
      </trkpt>
      <trkpt lat="47.26792" lon="-1.6172">
        <ele>96</ele>
        <time>2014-12-21T07:50:16Z</time>
      </trkpt>
      <trkpt lat="47.26787" lon="-1.61713">
        <ele>100</ele>
        <time>2014-12-21T07:50:20Z</time>
      </trkpt>
      <trkpt lat="47.26779" lon="-1.61711">
        <ele>102.1</ele>
        <time>2014-12-21T07:50:26Z</time>
      </trkpt>
      <trkpt lat="47.26775" lon="-1.61699">
        <ele>99.9</ele>
        <time>2014-12-21T07:50:28Z</time>
      </trkpt>
      <trkpt lat="47.26764" lon="-1.61693">
        <ele>100.5</ele>
        <time>2014-12-21T07:50:33Z</time>
      </trkpt>
      <trkpt lat="47.26756" lon="-1.61687">
        <ele>99.9</ele>
        <time>2014-12-21T07:50:36Z</time>
      </trkpt>
      <trkpt lat="47.2675" lon="-1.61682">
        <ele>99</ele>
        <time>2014-12-21T07:50:38Z</time>
      </trkpt>
      <trkpt lat="47.26741" lon="-1.6168">
        <ele>97</ele>
        <time>2014-12-21T07:50:40Z</time>
      </trkpt>
      <trkpt lat="47.26731" lon="-1.61675">
        <ele>96.1</ele>
        <time>2014-12-21T07:50:42Z</time>
      </trkpt>
      <trkpt lat="47.26722" lon="-1.61668">
        <ele>94.4</ele>
        <time>2014-12-21T07:50:44Z</time>
      </trkpt>
      <trkpt lat="47.26714" lon="-1.61662">
        <ele>97.6</ele>
        <time>2014-12-21T07:50:46Z</time>
      </trkpt>
      <trkpt lat="47.26706" lon="-1.61656">
        <ele>98.5</ele>
        <time>2014-12-21T07:50:48Z</time>
      </trkpt>
      <trkpt lat="47.26698" lon="-1.61654">
        <ele>98.3</ele>
        <time>2014-12-21T07:50:52Z</time>
      </trkpt>
      <trkpt lat="47.2669" lon="-1.61654">
        <ele>100.5</ele>
        <time>2014-12-21T07:50:56Z</time>
      </trkpt>
      <trkpt lat="47.26683" lon="-1.61652">
        <ele>99.5</ele>
        <time>2014-12-21T07:51:00Z</time>
      </trkpt>
      <trkpt lat="47.26676" lon="-1.61646">
        <ele>101.5</ele>
        <time>2014-12-21T07:51:03Z</time>
      </trkpt>
      <trkpt lat="47.26627" lon="-1.61541">
        <ele>75.4</ele>
        <time>2014-12-21T07:51:41Z</time>
      </trkpt>
      <trkpt lat="47.26621" lon="-1.61531">
        <ele>84.4</ele>
        <time>2014-12-21T07:51:44Z</time>
      </trkpt>
      <trkpt lat="47.26611" lon="-1.61529">
        <ele>83.4</ele>
        <time>2014-12-21T07:51:46Z</time>
      </trkpt>
      <trkpt lat="47.26604" lon="-1.61524">
        <ele>81.9</ele>
        <time>2014-12-21T07:51:49Z</time>
      </trkpt>
      <trkpt lat="47.26596" lon="-1.61523">
        <ele>78</ele>
        <time>2014-12-21T07:51:52Z</time>
      </trkpt>
      <trkpt lat="47.26586" lon="-1.61523">
        <ele>78.3</ele>
        <time>2014-12-21T07:51:55Z</time>
      </trkpt>
      <trkpt lat="47.26579" lon="-1.61521">
        <ele>88.3</ele>
        <time>2014-12-21T07:52:01Z</time>
      </trkpt>
      <trkpt lat="47.26575" lon="-1.61528">
        <ele>88</ele>
        <time>2014-12-21T07:52:08Z</time>
      </trkpt>
      <trkpt lat="47.26572" lon="-1.61528">
        <ele>90</ele>
        <time>2014-12-21T07:52:15Z</time>
      </trkpt>
      <trkpt lat="47.2657" lon="-1.61529">
        <ele>90.4</ele>
        <time>2014-12-21T07:52:47Z</time>
      </trkpt>
      <trkpt lat="47.26567" lon="-1.61527">
        <ele>91.6</ele>
        <time>2014-12-21T07:52:15Z</time>
      </trkpt>
      <trkpt lat="47.26559" lon="-1.61526">
        <ele>93.5</ele>
        <time>2014-12-21T07:54:04Z</time>
      </trkpt>
      <trkpt lat="47.26555" lon="-1.61518">
        <ele>97.6</ele>
        <time>2014-12-21T07:54:10Z</time>
      </trkpt>
      <trkpt lat="47.26551" lon="-1.61508">
        <ele>97.8</ele>
        <time>2014-12-21T07:54:17Z</time>
      </trkpt>
      <trkpt lat="47.2655" lon="-1.61502">
        <ele>94.1</ele>
        <time>2014-12-21T07:54:24Z</time>
      </trkpt>
      <trkpt lat="47.2655" lon="-1.615">
        <ele>93</ele>
        <time>2014-12-21T07:54:30Z</time>
      </trkpt>
      <trkpt lat="47.2654" lon="-1.61497">
        <ele>87.4</ele>
        <time>2014-12-21T07:54:44Z</time>
      </trkpt>
      <trkpt lat="47.26534" lon="-1.61505">
        <ele>85.5</ele>
        <time>2014-12-21T07:54:48Z</time>
      </trkpt>
      <trkpt lat="47.26526" lon="-1.615">
        <ele>83.8</ele>
        <time>2014-12-21T07:54:54Z</time>
      </trkpt>
      <trkpt lat="47.26517" lon="-1.61495">
        <ele>83.9</ele>
        <time>2014-12-21T07:54:57Z</time>
      </trkpt>
      <trkpt lat="47.2651" lon="-1.61487">
        <ele>84.8</ele>
        <time>2014-12-21T07:55:00Z</time>
      </trkpt>
      <trkpt lat="47.26504" lon="-1.61479">
        <ele>84.4</ele>
        <time>2014-12-21T07:55:02Z</time>
      </trkpt>
      <trkpt lat="47.26499" lon="-1.6147">
        <ele>84.8</ele>
        <time>2014-12-21T07:55:04Z</time>
      </trkpt>
      <trkpt lat="47.26494" lon="-1.61462">
        <ele>85</ele>
        <time>2014-12-21T07:55:06Z</time>
      </trkpt>
      <trkpt lat="47.26487" lon="-1.61453">
        <ele>85.6</ele>
        <time>2014-12-21T07:55:08Z</time>
      </trkpt>
      <trkpt lat="47.26479" lon="-1.61447">
        <ele>85.6</ele>
        <time>2014-12-21T07:55:09Z</time>
      </trkpt>
      <trkpt lat="47.26471" lon="-1.61451">
        <ele>84.6</ele>
        <time>2014-12-21T07:55:11Z</time>
      </trkpt>
      <trkpt lat="47.26462" lon="-1.6145">
        <ele>85</ele>
        <time>2014-12-21T07:55:13Z</time>
      </trkpt>
      <trkpt lat="47.26451" lon="-1.61451">
        <ele>83.8</ele>
        <time>2014-12-21T07:55:14Z</time>
      </trkpt>
      <trkpt lat="47.26438" lon="-1.61452">
        <ele>84.9</ele>
        <time>2014-12-21T07:55:18Z</time>
      </trkpt>
      <trkpt lat="47.2643" lon="-1.61453">
        <ele>87.5</ele>
        <time>2014-12-21T07:55:19Z</time>
      </trkpt>
      <trkpt lat="47.26423" lon="-1.61443">
        <ele>92.3</ele>
        <time>2014-12-21T07:55:22Z</time>
      </trkpt>
      <trkpt lat="47.26415" lon="-1.61438">
        <ele>101.5</ele>
        <time>2014-12-21T07:55:25Z</time>
      </trkpt>
      <trkpt lat="47.26407" lon="-1.61436">
        <ele>101.4</ele>
        <time>2014-12-21T07:55:26Z</time>
      </trkpt>
      <trkpt lat="47.26397" lon="-1.61436">
        <ele>107.1</ele>
        <time>2014-12-21T07:55:28Z</time>
      </trkpt>
      <trkpt lat="47.2639" lon="-1.61427">
        <ele>107.1</ele>
        <time>2014-12-21T07:55:31Z</time>
      </trkpt>
      <trkpt lat="47.26382" lon="-1.61417">
        <ele>101.4</ele>
        <time>2014-12-21T07:55:34Z</time>
      </trkpt>
      <trkpt lat="47.26375" lon="-1.61408">
        <ele>100.5</ele>
        <time>2014-12-21T07:55:36Z</time>
      </trkpt>
      <trkpt lat="47.26369" lon="-1.614">
        <ele>102.6</ele>
        <time>2014-12-21T07:55:39Z</time>
      </trkpt>
      <trkpt lat="47.26368" lon="-1.61385">
        <ele>93.6</ele>
        <time>2014-12-21T07:55:41Z</time>
      </trkpt>
      <trkpt lat="47.26369" lon="-1.61374">
        <ele>89.8</ele>
        <time>2014-12-21T07:55:47Z</time>
      </trkpt>
      <trkpt lat="47.26372" lon="-1.61363">
        <ele>82.5</ele>
        <time>2014-12-21T07:55:53Z</time>
      </trkpt>
      <trkpt lat="47.26371" lon="-1.61364">
        <ele>68.1</ele>
        <time>2014-12-21T07:55:59Z</time>
      </trkpt>
      <trkpt lat="47.26373" lon="-1.61363">
        <ele>58.7</ele>
        <time>2014-12-21T07:57:15Z</time>
      </trkpt>
      <trkpt lat="47.2637" lon="-1.61355">
        <ele>57.7</ele>
        <time>2014-12-21T07:58:30Z</time>
      </trkpt>
      <trkpt lat="47.2637" lon="-1.61344">
        <ele>58.7</ele>
        <time>2014-12-21T07:58:33Z</time>
      </trkpt>
      <trkpt lat="47.26371" lon="-1.61332">
        <ele>61.9</ele>
        <time>2014-12-21T07:58:37Z</time>
      </trkpt>
      <trkpt lat="47.26374" lon="-1.61319">
        <ele>63.4</ele>
        <time>2014-12-21T07:58:40Z</time>
      </trkpt>
      <trkpt lat="47.26375" lon="-1.61306">
        <ele>63.4</ele>
        <time>2014-12-21T07:58:42Z</time>
      </trkpt>
      <trkpt lat="47.26377" lon="-1.61295">
        <ele>62.9</ele>
        <time>2014-12-21T07:58:44Z</time>
      </trkpt>
      <trkpt lat="47.26379" lon="-1.61283">
        <ele>63.2</ele>
        <time>2014-12-21T07:58:46Z</time>
      </trkpt>
      <trkpt lat="47.26382" lon="-1.61273">
        <ele>65.1</ele>
        <time>2014-12-21T07:58:48Z</time>
      </trkpt>
      <trkpt lat="47.26388" lon="-1.61263">
        <ele>65.9</ele>
        <time>2014-12-21T07:58:50Z</time>
      </trkpt>
      <trkpt lat="47.26395" lon="-1.61255">
        <ele>66</ele>
        <time>2014-12-21T07:58:52Z</time>
      </trkpt>
      <trkpt lat="47.26402" lon="-1.61247">
        <ele>66.9</ele>
        <time>2014-12-21T07:58:54Z</time>
      </trkpt>
      <trkpt lat="47.26409" lon="-1.6124">
        <ele>67</ele>
        <time>2014-12-21T07:58:56Z</time>
      </trkpt>
      <trkpt lat="47.26416" lon="-1.61233">
        <ele>65</ele>
        <time>2014-12-21T07:58:58Z</time>
      </trkpt>
      <trkpt lat="47.26424" lon="-1.61224">
        <ele>65.1</ele>
        <time>2014-12-21T07:59:00Z</time>
      </trkpt>
      <trkpt lat="47.2643" lon="-1.61216">
        <ele>67.9</ele>
        <time>2014-12-21T07:59:02Z</time>
      </trkpt>
      <trkpt lat="47.26439" lon="-1.61211">
        <ele>68.6</ele>
        <time>2014-12-21T07:59:04Z</time>
      </trkpt>
      <trkpt lat="47.26443" lon="-1.612">
        <ele>65.6</ele>
        <time>2014-12-21T07:59:07Z</time>
      </trkpt>
      <trkpt lat="47.26447" lon="-1.61189">
        <ele>66.8</ele>
        <time>2014-12-21T07:59:09Z</time>
      </trkpt>
      <trkpt lat="47.26451" lon="-1.61176">
        <ele>68</ele>
        <time>2014-12-21T07:59:10Z</time>
      </trkpt>
      <trkpt lat="47.26454" lon="-1.61165">
        <ele>68.8</ele>
        <time>2014-12-21T07:59:12Z</time>
      </trkpt>
      <trkpt lat="47.26459" lon="-1.61154">
        <ele>69.1</ele>
        <time>2014-12-21T07:59:15Z</time>
      </trkpt>
      <trkpt lat="47.26464" lon="-1.61144">
        <ele>69.5</ele>
        <time>2014-12-21T07:59:17Z</time>
      </trkpt>
      <trkpt lat="47.26468" lon="-1.61133">
        <ele>69.6</ele>
        <time>2014-12-21T07:59:19Z</time>
      </trkpt>
      <trkpt lat="47.26472" lon="-1.6112">
        <ele>68.6</ele>
        <time>2014-12-21T07:59:20Z</time>
      </trkpt>
      <trkpt lat="47.26472" lon="-1.61107">
        <ele>69.9</ele>
        <time>2014-12-21T07:59:23Z</time>
      </trkpt>
      <trkpt lat="47.26471" lon="-1.61094">
        <ele>68.6</ele>
        <time>2014-12-21T07:59:25Z</time>
      </trkpt>
      <trkpt lat="47.26473" lon="-1.61081">
        <ele>66.6</ele>
        <time>2014-12-21T07:59:26Z</time>
      </trkpt>
      <trkpt lat="47.26475" lon="-1.61066">
        <ele>65.1</ele>
        <time>2014-12-21T07:59:28Z</time>
      </trkpt>
      <trkpt lat="47.26405" lon="-1.60865">
        <ele>65.9</ele>
        <time>2014-12-21T08:00:02Z</time>
      </trkpt>
      <trkpt lat="47.26401" lon="-1.60851">
        <ele>73.4</ele>
        <time>2014-12-21T08:00:05Z</time>
      </trkpt>
      <trkpt lat="47.26394" lon="-1.60839">
        <ele>71.1</ele>
        <time>2014-12-21T08:00:07Z</time>
      </trkpt>
      <trkpt lat="47.26388" lon="-1.60829">
        <ele>70.9</ele>
        <time>2014-12-21T08:00:08Z</time>
      </trkpt>
      <trkpt lat="47.26385" lon="-1.60818">
        <ele>71.5</ele>
        <time>2014-12-21T08:00:10Z</time>
      </trkpt>
      <trkpt lat="47.26375" lon="-1.60815">
        <ele>70.9</ele>
        <time>2014-12-21T08:00:12Z</time>
      </trkpt>
      <trkpt lat="47.26366" lon="-1.6082">
        <ele>64.1</ele>
        <time>2014-12-21T08:00:15Z</time>
      </trkpt>
      <trkpt lat="47.26357" lon="-1.60826">
        <ele>60.9</ele>
        <time>2014-12-21T08:00:19Z</time>
      </trkpt>
      <trkpt lat="47.26349" lon="-1.60833">
        <ele>58.9</ele>
        <time>2014-12-21T08:00:20Z</time>
      </trkpt>
      <trkpt lat="47.26344" lon="-1.60842">
        <ele>58.2</ele>
        <time>2014-12-21T08:00:22Z</time>
      </trkpt>
      <trkpt lat="47.26339" lon="-1.60851">
        <ele>58.5</ele>
        <time>2014-12-21T08:00:25Z</time>
      </trkpt>
      <trkpt lat="47.26333" lon="-1.6086">
        <ele>61.5</ele>
        <time>2014-12-21T08:00:28Z</time>
      </trkpt>
      <trkpt lat="47.26331" lon="-1.60845">
        <ele>65.5</ele>
        <time>2014-12-21T08:00:34Z</time>
      </trkpt>
      <trkpt lat="47.26334" lon="-1.60835">
        <ele>66.3</ele>
        <time>2014-12-21T08:00:36Z</time>
      </trkpt>
      <trkpt lat="47.26339" lon="-1.60823">
        <ele>66.5</ele>
        <time>2014-12-21T08:00:38Z</time>
      </trkpt>
      <trkpt lat="47.26344" lon="-1.60809">
        <ele>67.5</ele>
        <time>2014-12-21T08:00:40Z</time>
      </trkpt>
      <trkpt lat="47.26348" lon="-1.60794">
        <ele>66.9</ele>
        <time>2014-12-21T08:00:42Z</time>
      </trkpt>
      <trkpt lat="47.26353" lon="-1.60778">
        <ele>67.6</ele>
        <time>2014-12-21T08:00:44Z</time>
      </trkpt>
      <trkpt lat="47.26358" lon="-1.60761">
        <ele>68</ele>
        <time>2014-12-21T08:00:46Z</time>
      </trkpt>
      <trkpt lat="47.26363" lon="-1.60748">
        <ele>69.4</ele>
        <time>2014-12-21T08:00:48Z</time>
      </trkpt>
      <trkpt lat="47.26367" lon="-1.6073">
        <ele>70.9</ele>
        <time>2014-12-21T08:00:50Z</time>
      </trkpt>
      <trkpt lat="47.2637" lon="-1.60713">
        <ele>71.6</ele>
        <time>2014-12-21T08:00:52Z</time>
      </trkpt>
      <trkpt lat="47.26371" lon="-1.60699">
        <ele>72</ele>
        <time>2014-12-21T08:00:54Z</time>
      </trkpt>
      <trkpt lat="47.26371" lon="-1.60686">
        <ele>72.6</ele>
        <time>2014-12-21T08:00:57Z</time>
      </trkpt>
      <trkpt lat="47.2637" lon="-1.60674">
        <ele>71.6</ele>
        <time>2014-12-21T08:00:59Z</time>
      </trkpt>
      <trkpt lat="47.26365" lon="-1.60658">
        <ele>71.5</ele>
        <time>2014-12-21T08:01:03Z</time>
      </trkpt>
      <trkpt lat="47.26366" lon="-1.60646">
        <ele>71.8</ele>
        <time>2014-12-21T08:01:04Z</time>
      </trkpt>
      <trkpt lat="47.26358" lon="-1.60643">
        <ele>70.5</ele>
        <time>2014-12-21T08:01:05Z</time>
      </trkpt>
      <trkpt lat="47.26343" lon="-1.60647">
        <ele>71.5</ele>
        <time>2014-12-21T08:01:07Z</time>
      </trkpt>
      <trkpt lat="47.26336" lon="-1.60639">
        <ele>70.8</ele>
        <time>2014-12-21T08:01:08Z</time>
      </trkpt>
      <trkpt lat="47.26329" lon="-1.60628">
        <ele>69.3</ele>
        <time>2014-12-21T08:01:11Z</time>
      </trkpt>
      <trkpt lat="47.26316" lon="-1.60457">
        <ele>89.8</ele>
        <time>2014-12-21T08:01:43Z</time>
      </trkpt>
      <trkpt lat="47.26326" lon="-1.60448">
        <ele>84.8</ele>
        <time>2014-12-21T08:01:44Z</time>
      </trkpt>
      <trkpt lat="47.26324" lon="-1.60438">
        <ele>86.5</ele>
        <time>2014-12-21T08:01:47Z</time>
      </trkpt>
      <trkpt lat="47.26326" lon="-1.60427">
        <ele>94.8</ele>
        <time>2014-12-21T08:01:48Z</time>
      </trkpt>
      <trkpt lat="47.26328" lon="-1.60415">
        <ele>89.4</ele>
        <time>2014-12-21T08:01:50Z</time>
      </trkpt>
      <trkpt lat="47.2633" lon="-1.60403">
        <ele>86.5</ele>
        <time>2014-12-21T08:01:52Z</time>
      </trkpt>
      <trkpt lat="47.2633" lon="-1.6039">
        <ele>88.1</ele>
        <time>2014-12-21T08:01:54Z</time>
      </trkpt>
      <trkpt lat="47.26329" lon="-1.60374">
        <ele>89.6</ele>
        <time>2014-12-21T08:01:57Z</time>
      </trkpt>
      <trkpt lat="47.26331" lon="-1.60358">
        <ele>90.8</ele>
        <time>2014-12-21T08:02:00Z</time>
      </trkpt>
      <trkpt lat="47.26332" lon="-1.60345">
        <ele>90.3</ele>
        <time>2014-12-21T08:02:03Z</time>
      </trkpt>
      <trkpt lat="47.26332" lon="-1.60335">
        <ele>91.5</ele>
        <time>2014-12-21T08:02:05Z</time>
      </trkpt>
      <trkpt lat="47.26334" lon="-1.60319">
        <ele>90.5</ele>
        <time>2014-12-21T08:02:08Z</time>
      </trkpt>
      <trkpt lat="47.26337" lon="-1.60306">
        <ele>89.5</ele>
        <time>2014-12-21T08:02:10Z</time>
      </trkpt>
      <trkpt lat="47.2634" lon="-1.60293">
        <ele>86.3</ele>
        <time>2014-12-21T08:02:12Z</time>
      </trkpt>
      <trkpt lat="47.26337" lon="-1.60281">
        <ele>90</ele>
        <time>2014-12-21T08:02:14Z</time>
      </trkpt>
      <trkpt lat="47.26338" lon="-1.60269">
        <ele>90.5</ele>
        <time>2014-12-21T08:02:15Z</time>
      </trkpt>
      <trkpt lat="47.2634" lon="-1.60257">
        <ele>90.5</ele>
        <time>2014-12-21T08:02:18Z</time>
      </trkpt>
      <trkpt lat="47.26341" lon="-1.60246">
        <ele>90.1</ele>
        <time>2014-12-21T08:02:19Z</time>
      </trkpt>
      <trkpt lat="47.26341" lon="-1.60234">
        <ele>89.3</ele>
        <time>2014-12-21T08:02:22Z</time>
      </trkpt>
      <trkpt lat="47.26338" lon="-1.60223">
        <ele>87.5</ele>
        <time>2014-12-21T08:02:24Z</time>
      </trkpt>
      <trkpt lat="47.26331" lon="-1.60207">
        <ele>88.1</ele>
        <time>2014-12-21T08:02:26Z</time>
      </trkpt>
      <trkpt lat="47.26325" lon="-1.60197">
        <ele>90.3</ele>
        <time>2014-12-21T08:02:28Z</time>
      </trkpt>
      <trkpt lat="47.2632" lon="-1.60184">
        <ele>89.8</ele>
        <time>2014-12-21T08:02:30Z</time>
      </trkpt>
      <trkpt lat="47.26312" lon="-1.60172">
        <ele>89.5</ele>
        <time>2014-12-21T08:02:32Z</time>
      </trkpt>
      <trkpt lat="47.26299" lon="-1.60156">
        <ele>88.5</ele>
        <time>2014-12-21T08:02:35Z</time>
      </trkpt>
      <trkpt lat="47.2629" lon="-1.60153">
        <ele>88.1</ele>
        <time>2014-12-21T08:02:35Z</time>
      </trkpt>
      <trkpt lat="47.26285" lon="-1.60142">
        <ele>88.6</ele>
        <time>2014-12-21T08:02:37Z</time>
      </trkpt>
      <trkpt lat="47.2628" lon="-1.60133">
        <ele>88</ele>
        <time>2014-12-21T08:02:39Z</time>
      </trkpt>
      <trkpt lat="47.26273" lon="-1.60121">
        <ele>86</ele>
        <time>2014-12-21T08:02:42Z</time>
      </trkpt>
      <trkpt lat="47.26268" lon="-1.60111">
        <ele>86.3</ele>
        <time>2014-12-21T08:02:43Z</time>
      </trkpt>
      <trkpt lat="47.26264" lon="-1.60101">
        <ele>82</ele>
        <time>2014-12-21T08:02:45Z</time>
      </trkpt>
      <trkpt lat="47.26256" lon="-1.60097">
        <ele>78.3</ele>
        <time>2014-12-21T08:02:49Z</time>
      </trkpt>
      <trkpt lat="47.26246" lon="-1.60099">
        <ele>71.5</ele>
        <time>2014-12-21T08:02:51Z</time>
      </trkpt>
      <trkpt lat="47.26238" lon="-1.60103">
        <ele>65.9</ele>
        <time>2014-12-21T08:02:53Z</time>
      </trkpt>
      <trkpt lat="47.26229" lon="-1.60107">
        <ele>63.7</ele>
        <time>2014-12-21T08:02:55Z</time>
      </trkpt>
      <trkpt lat="47.26221" lon="-1.6011">
        <ele>63.7</ele>
        <time>2014-12-21T08:02:56Z</time>
      </trkpt>
      <trkpt lat="47.2621" lon="-1.60108">
        <ele>62.5</ele>
        <time>2014-12-21T08:02:59Z</time>
      </trkpt>
      <trkpt lat="47.262" lon="-1.60106">
        <ele>61</ele>
        <time>2014-12-21T08:03:01Z</time>
      </trkpt>
      <trkpt lat="47.26193" lon="-1.60094">
        <ele>61.9</ele>
        <time>2014-12-21T08:03:03Z</time>
      </trkpt>
      <trkpt lat="47.26199" lon="-1.60064">
        <ele>68</ele>
        <time>2014-12-21T08:03:05Z</time>
      </trkpt>
      <trkpt lat="47.26204" lon="-1.60052">
        <ele>67.6</ele>
        <time>2014-12-21T08:03:07Z</time>
      </trkpt>
      <trkpt lat="47.26209" lon="-1.6004">
        <ele>67.6</ele>
        <time>2014-12-21T08:03:09Z</time>
      </trkpt>
      <trkpt lat="47.26213" lon="-1.60028">
        <ele>68.5</ele>
        <time>2014-12-21T08:03:12Z</time>
      </trkpt>
      <trkpt lat="47.26217" lon="-1.60015">
        <ele>69.5</ele>
        <time>2014-12-21T08:03:14Z</time>
      </trkpt>
      <trkpt lat="47.26222" lon="-1.60004">
        <ele>70.8</ele>
        <time>2014-12-21T08:03:17Z</time>
      </trkpt>
      <trkpt lat="47.26226" lon="-1.59993">
        <ele>73.5</ele>
        <time>2014-12-21T08:03:18Z</time>
      </trkpt>
      <trkpt lat="47.26231" lon="-1.59983">
        <ele>73.5</ele>
        <time>2014-12-21T08:03:21Z</time>
      </trkpt>
      <trkpt lat="47.26236" lon="-1.59973">
        <ele>73.8</ele>
        <time>2014-12-21T08:03:23Z</time>
      </trkpt>
      <trkpt lat="47.26241" lon="-1.59964">
        <ele>74.8</ele>
        <time>2014-12-21T08:03:25Z</time>
      </trkpt>
      <trkpt lat="47.26245" lon="-1.59951">
        <ele>73.6</ele>
        <time>2014-12-21T08:03:27Z</time>
      </trkpt>
      <trkpt lat="47.26249" lon="-1.59937">
        <ele>73.5</ele>
        <time>2014-12-21T08:03:29Z</time>
      </trkpt>
      <trkpt lat="47.26248" lon="-1.59923">
        <ele>73.9</ele>
        <time>2014-12-21T08:03:30Z</time>
      </trkpt>
      <trkpt lat="47.26246" lon="-1.59911">
        <ele>78</ele>
        <time>2014-12-21T08:03:34Z</time>
      </trkpt>
      <trkpt lat="47.26247" lon="-1.599">
        <ele>74.8</ele>
        <time>2014-12-21T08:03:36Z</time>
      </trkpt>
      <trkpt lat="47.26249" lon="-1.59885">
        <ele>72.3</ele>
        <time>2014-12-21T08:03:38Z</time>
      </trkpt>
      <trkpt lat="47.26245" lon="-1.59873">
        <ele>78.3</ele>
        <time>2014-12-21T08:03:40Z</time>
      </trkpt>
      <trkpt lat="47.26249" lon="-1.59856">
        <ele>77.1</ele>
        <time>2014-12-21T08:03:42Z</time>
      </trkpt>
      <trkpt lat="47.26251" lon="-1.59843">
        <ele>76.8</ele>
        <time>2014-12-21T08:03:44Z</time>
      </trkpt>
      <trkpt lat="47.26246" lon="-1.59832">
        <ele>79</ele>
        <time>2014-12-21T08:03:46Z</time>
      </trkpt>
      <trkpt lat="47.26246" lon="-1.5982">
        <ele>80.8</ele>
        <time>2014-12-21T08:03:49Z</time>
      </trkpt>
      <trkpt lat="47.26252" lon="-1.59812">
        <ele>84.5</ele>
        <time>2014-12-21T08:03:53Z</time>
      </trkpt>
      <trkpt lat="47.2626" lon="-1.59805">
        <ele>87</ele>
        <time>2014-12-21T08:03:57Z</time>
      </trkpt>
      <trkpt lat="47.26268" lon="-1.59796">
        <ele>86.1</ele>
        <time>2014-12-21T08:04:00Z</time>
      </trkpt>
      <trkpt lat="47.26273" lon="-1.59787">
        <ele>89.1</ele>
        <time>2014-12-21T08:04:02Z</time>
      </trkpt>
      <trkpt lat="47.26282" lon="-1.59779">
        <ele>89</ele>
        <time>2014-12-21T08:04:05Z</time>
      </trkpt>
      <trkpt lat="47.26289" lon="-1.59767">
        <ele>89.1</ele>
        <time>2014-12-21T08:04:08Z</time>
      </trkpt>
      <trkpt lat="47.26296" lon="-1.5976">
        <ele>88.3</ele>
        <time>2014-12-21T08:04:10Z</time>
      </trkpt>
      <trkpt lat="47.26301" lon="-1.59752">
        <ele>88.4</ele>
        <time>2014-12-21T08:04:12Z</time>
      </trkpt>
      <trkpt lat="47.26308" lon="-1.59742">
        <ele>89.9</ele>
        <time>2014-12-21T08:04:15Z</time>
      </trkpt>
      <trkpt lat="47.26314" lon="-1.59735">
        <ele>93.1</ele>
        <time>2014-12-21T08:04:19Z</time>
      </trkpt>
      <trkpt lat="47.26322" lon="-1.59732">
        <ele>88.9</ele>
        <time>2014-12-21T08:04:23Z</time>
      </trkpt>
      <trkpt lat="47.26325" lon="-1.59735">
        <ele>88.5</ele>
        <time>2014-12-21T08:04:31Z</time>
      </trkpt>
      <trkpt lat="47.2633" lon="-1.59732">
        <ele>86.3</ele>
        <time>2014-12-21T08:04:38Z</time>
      </trkpt>
      <trkpt lat="47.26332" lon="-1.5973">
        <ele>86.1</ele>
        <time>2014-12-21T08:04:45Z</time>
      </trkpt>
      <trkpt lat="47.26335" lon="-1.59731">
        <ele>84.1</ele>
        <time>2014-12-21T08:05:20Z</time>
      </trkpt>
      <trkpt lat="47.26337" lon="-1.5973">
        <ele>81.5</ele>
        <time>2014-12-21T08:05:27Z</time>
      </trkpt>
      <trkpt lat="47.2634" lon="-1.59728">
        <ele>74.5</ele>
        <time>2014-12-21T08:05:47Z</time>
      </trkpt>
      <trkpt lat="47.26337" lon="-1.59731">
        <ele>73.4</ele>
        <time>2014-12-21T08:05:54Z</time>
      </trkpt>
      <trkpt lat="47.26337" lon="-1.59738">
        <ele>74.4</ele>
        <time>2014-12-21T08:06:01Z</time>
      </trkpt>
      <trkpt lat="47.26348" lon="-1.59739">
        <ele>77.6</ele>
        <time>2014-12-21T08:06:04Z</time>
      </trkpt>
      <trkpt lat="47.26352" lon="-1.59748">
        <ele>81</ele>
        <time>2014-12-21T08:06:08Z</time>
      </trkpt>
      <trkpt lat="47.26359" lon="-1.59758">
        <ele>79.8</ele>
        <time>2014-12-21T08:06:43Z</time>
      </trkpt>
      <trkpt lat="47.26372" lon="-1.59766">
        <ele>71.4</ele>
        <time>2014-12-21T08:06:45Z</time>
      </trkpt>
      <trkpt lat="47.26382" lon="-1.59773">
        <ele>82.8</ele>
        <time>2014-12-21T08:06:50Z</time>
      </trkpt>
      <trkpt lat="47.26379" lon="-1.59782">
        <ele>84.5</ele>
        <time>2014-12-21T08:06:58Z</time>
      </trkpt>
      <trkpt lat="47.26379" lon="-1.59784">
        <ele>83.8</ele>
        <time>2014-12-21T08:07:05Z</time>
      </trkpt>
      <trkpt lat="47.26384" lon="-1.59789">
        <ele>80.5</ele>
        <time>2014-12-21T08:07:11Z</time>
      </trkpt>
      <trkpt lat="47.26386" lon="-1.59792">
        <ele>81.1</ele>
        <time>2014-12-21T08:07:19Z</time>
      </trkpt>
      <trkpt lat="47.26386" lon="-1.59805">
        <ele>79.9</ele>
        <time>2014-12-21T08:07:23Z</time>
      </trkpt>
      <trkpt lat="47.26388" lon="-1.59816">
        <ele>78</ele>
        <time>2014-12-21T08:07:29Z</time>
      </trkpt>
      <trkpt lat="47.26386" lon="-1.59827">
        <ele>82.6</ele>
        <time>2014-12-21T08:07:33Z</time>
      </trkpt>
      <trkpt lat="47.26389" lon="-1.59842">
        <ele>84</ele>
        <time>2014-12-21T08:07:37Z</time>
      </trkpt>
      <trkpt lat="47.26388" lon="-1.59847">
        <ele>84.3</ele>
        <time>2014-12-21T08:07:44Z</time>
      </trkpt>
      <trkpt lat="47.26388" lon="-1.59858">
        <ele>88.3</ele>
        <time>2014-12-21T08:07:51Z</time>
      </trkpt>
      <trkpt lat="47.26382" lon="-1.59869">
        <ele>94.1</ele>
        <time>2014-12-21T08:07:57Z</time>
      </trkpt>
      <trkpt lat="47.26379" lon="-1.5988">
        <ele>94.5</ele>
        <time>2014-12-21T08:08:02Z</time>
      </trkpt>
      <trkpt lat="47.26377" lon="-1.59892">
        <ele>93.6</ele>
        <time>2014-12-21T08:08:04Z</time>
      </trkpt>
      <trkpt lat="47.26377" lon="-1.59906">
        <ele>90.8</ele>
        <time>2014-12-21T08:08:09Z</time>
      </trkpt>
      <trkpt lat="47.26381" lon="-1.59917">
        <ele>86</ele>
        <time>2014-12-21T08:08:14Z</time>
      </trkpt>
      <trkpt lat="47.26382" lon="-1.59923">
        <ele>87.3</ele>
        <time>2014-12-21T08:08:21Z</time>
      </trkpt>
      <trkpt lat="47.26381" lon="-1.59925">
        <ele>86.9</ele>
        <time>2014-12-21T08:08:28Z</time>
      </trkpt>
      <trkpt lat="47.26383" lon="-1.59926">
        <ele>84.4</ele>
        <time>2014-12-21T08:09:03Z</time>
      </trkpt>
      <trkpt lat="47.26382" lon="-1.59934">
        <ele>83</ele>
        <time>2014-12-21T08:09:09Z</time>
      </trkpt>
      <trkpt lat="47.26382" lon="-1.59942">
        <ele>83.1</ele>
        <time>2014-12-21T08:09:17Z</time>
      </trkpt>
      <trkpt lat="47.2638" lon="-1.59954">
        <ele>83.8</ele>
        <time>2014-12-21T08:09:24Z</time>
      </trkpt>
      <trkpt lat="47.26378" lon="-1.59966">
        <ele>85.9</ele>
        <time>2014-12-21T08:09:29Z</time>
      </trkpt>
      <trkpt lat="47.26373" lon="-1.59975">
        <ele>91.3</ele>
        <time>2014-12-21T08:09:33Z</time>
      </trkpt>
      <trkpt lat="47.26373" lon="-1.59986">
        <ele>92.5</ele>
        <time>2014-12-21T08:09:38Z</time>
      </trkpt>
      <trkpt lat="47.26375" lon="-1.59997">
        <ele>94.6</ele>
        <time>2014-12-21T08:09:41Z</time>
      </trkpt>
      <trkpt lat="47.26373" lon="-1.60008">
        <ele>96.4</ele>
        <time>2014-12-21T08:09:47Z</time>
      </trkpt>
      <trkpt lat="47.26375" lon="-1.60018">
        <ele>96</ele>
        <time>2014-12-21T08:09:54Z</time>
      </trkpt>
      <trkpt lat="47.26368" lon="-1.60023">
        <ele>93.1</ele>
        <time>2014-12-21T08:09:57Z</time>
      </trkpt>
      <trkpt lat="47.26366" lon="-1.60011">
        <ele>94.9</ele>
        <time>2014-12-21T08:10:05Z</time>
      </trkpt>
      <trkpt lat="47.2636" lon="-1.60004">
        <ele>89.8</ele>
        <time>2014-12-21T08:10:11Z</time>
      </trkpt>
      <trkpt lat="47.26356" lon="-1.59992">
        <ele>89.5</ele>
        <time>2014-12-21T08:10:18Z</time>
      </trkpt>
      <trkpt lat="47.26351" lon="-1.59989">
        <ele>96.1</ele>
        <time>2014-12-21T08:10:24Z</time>
      </trkpt>
      <trkpt lat="47.26349" lon="-1.59994">
        <ele>102.5</ele>
        <time>2014-12-21T08:10:39Z</time>
      </trkpt>
      <trkpt lat="47.2635" lon="-1.59993">
        <ele>91.4</ele>
        <time>2014-12-21T08:10:46Z</time>
      </trkpt>
      <trkpt lat="47.26344" lon="-1.59989">
        <ele>91.5</ele>
        <time>2014-12-21T08:10:52Z</time>
      </trkpt>
      <trkpt lat="47.26337" lon="-1.59981">
        <ele>91</ele>
        <time>2014-12-21T08:11:07Z</time>
      </trkpt>
      <trkpt lat="47.2632" lon="-1.59981">
        <ele>73</ele>
        <time>2014-12-21T08:11:52Z</time>
      </trkpt>
      <trkpt lat="47.26319" lon="-1.59984">
        <ele>70.4</ele>
        <time>2014-12-21T08:11:59Z</time>
      </trkpt>
      <trkpt lat="47.26323" lon="-1.59998">
        <ele>72.4</ele>
        <time>2014-12-21T08:12:21Z</time>
      </trkpt>
      <trkpt lat="47.26325" lon="-1.6001">
        <ele>75.5</ele>
        <time>2014-12-21T08:12:24Z</time>
      </trkpt>
      <trkpt lat="47.26328" lon="-1.60021">
        <ele>76.3</ele>
        <time>2014-12-21T08:12:26Z</time>
      </trkpt>
      <trkpt lat="47.26332" lon="-1.60031">
        <ele>86.6</ele>
        <time>2014-12-21T08:12:30Z</time>
      </trkpt>
      <trkpt lat="47.26334" lon="-1.60042">
        <ele>90.8</ele>
        <time>2014-12-21T08:12:34Z</time>
      </trkpt>
      <trkpt lat="47.26342" lon="-1.6005">
        <ele>87.5</ele>
        <time>2014-12-21T08:12:40Z</time>
      </trkpt>
      <trkpt lat="47.26335" lon="-1.60054">
        <ele>96.8</ele>
        <time>2014-12-21T08:12:42Z</time>
      </trkpt>
      <trkpt lat="47.26341" lon="-1.60064">
        <ele>94.5</ele>
        <time>2014-12-21T08:12:49Z</time>
      </trkpt>
      <trkpt lat="47.26346" lon="-1.60075">
        <ele>97.3</ele>
        <time>2014-12-21T08:12:55Z</time>
      </trkpt>
      <trkpt lat="47.2635" lon="-1.60085">
        <ele>100</ele>
        <time>2014-12-21T08:12:58Z</time>
      </trkpt>
      <trkpt lat="47.26359" lon="-1.6009">
        <ele>93.4</ele>
        <time>2014-12-21T08:13:02Z</time>
      </trkpt>
      <trkpt lat="47.26363" lon="-1.60099">
        <ele>92.1</ele>
        <time>2014-12-21T08:13:09Z</time>
      </trkpt>
      <trkpt lat="47.26367" lon="-1.60109">
        <ele>87</ele>
        <time>2014-12-21T08:13:15Z</time>
      </trkpt>
      <trkpt lat="47.26375" lon="-1.60114">
        <ele>85.1</ele>
        <time>2014-12-21T08:13:22Z</time>
      </trkpt>
      <trkpt lat="47.26378" lon="-1.60124">
        <ele>79.1</ele>
        <time>2014-12-21T08:13:28Z</time>
      </trkpt>
      <trkpt lat="47.26375" lon="-1.60126">
        <ele>76.8</ele>
        <time>2014-12-21T08:13:35Z</time>
      </trkpt>
      <trkpt lat="47.26372" lon="-1.60134">
        <ele>74</ele>
        <time>2014-12-21T08:13:49Z</time>
      </trkpt>
      <trkpt lat="47.2637" lon="-1.60141">
        <ele>74.8</ele>
        <time>2014-12-21T08:13:56Z</time>
      </trkpt>
      <trkpt lat="47.26372" lon="-1.60142">
        <ele>77</ele>
        <time>2014-12-21T08:14:02Z</time>
      </trkpt>
      <trkpt lat="47.26371" lon="-1.60158">
        <ele>79.4</ele>
        <time>2014-12-21T08:14:20Z</time>
      </trkpt>
      <trkpt lat="47.26373" lon="-1.60169">
        <ele>76.1</ele>
        <time>2014-12-21T08:14:24Z</time>
      </trkpt>
      <trkpt lat="47.26371" lon="-1.60175">
        <ele>75.3</ele>
        <time>2014-12-21T08:14:38Z</time>
      </trkpt>
      <trkpt lat="47.26369" lon="-1.60176">
        <ele>75.3</ele>
        <time>2014-12-21T08:14:45Z</time>
      </trkpt>
      <trkpt lat="47.26368" lon="-1.60165">
        <ele>74.5</ele>
        <time>2014-12-21T08:14:52Z</time>
      </trkpt>
      <trkpt lat="47.26364" lon="-1.60155">
        <ele>74.8</ele>
        <time>2014-12-21T08:14:57Z</time>
      </trkpt>
      <trkpt lat="47.26358" lon="-1.60147">
        <ele>77.3</ele>
        <time>2014-12-21T08:15:03Z</time>
      </trkpt>
      <trkpt lat="47.26362" lon="-1.60135">
        <ele>79.6</ele>
        <time>2014-12-21T08:15:10Z</time>
      </trkpt>
      <trkpt lat="47.26354" lon="-1.60138">
        <ele>80.6</ele>
        <time>2014-12-21T08:15:15Z</time>
      </trkpt>
      <trkpt lat="47.26342" lon="-1.60141">
        <ele>80.4</ele>
        <time>2014-12-21T08:15:17Z</time>
      </trkpt>
      <trkpt lat="47.26331" lon="-1.60141">
        <ele>79.5</ele>
        <time>2014-12-21T08:15:19Z</time>
      </trkpt>
      <trkpt lat="47.26324" lon="-1.60149">
        <ele>78.6</ele>
        <time>2014-12-21T08:15:21Z</time>
      </trkpt>
      <trkpt lat="47.2632" lon="-1.60161">
        <ele>78.8</ele>
        <time>2014-12-21T08:15:23Z</time>
      </trkpt>
      <trkpt lat="47.26319" lon="-1.60178">
        <ele>83.4</ele>
        <time>2014-12-21T08:15:25Z</time>
      </trkpt>
      <trkpt lat="47.26317" lon="-1.6019">
        <ele>83.5</ele>
        <time>2014-12-21T08:15:27Z</time>
      </trkpt>
      <trkpt lat="47.26317" lon="-1.60202">
        <ele>84.5</ele>
        <time>2014-12-21T08:15:29Z</time>
      </trkpt>
      <trkpt lat="47.26318" lon="-1.60196">
        <ele>86</ele>
        <time>2014-12-21T08:15:35Z</time>
      </trkpt>
      <trkpt lat="47.26323" lon="-1.60204">
        <ele>86.9</ele>
        <time>2014-12-21T08:15:40Z</time>
      </trkpt>
      <trkpt lat="47.26327" lon="-1.60212">
        <ele>89.5</ele>
        <time>2014-12-21T08:15:47Z</time>
      </trkpt>
      <trkpt lat="47.26326" lon="-1.60212">
        <ele>88</ele>
        <time>2014-12-21T08:16:01Z</time>
      </trkpt>
      <trkpt lat="47.26328" lon="-1.60214">
        <ele>89</ele>
        <time>2014-12-21T08:16:08Z</time>
      </trkpt>
      <trkpt lat="47.26332" lon="-1.60222">
        <ele>90.8</ele>
        <time>2014-12-21T08:17:17Z</time>
      </trkpt>
      <trkpt lat="47.26327" lon="-1.60211">
        <ele>89.9</ele>
        <time>2014-12-21T08:17:28Z</time>
      </trkpt>
      <trkpt lat="47.26323" lon="-1.60202">
        <ele>87.1</ele>
        <time>2014-12-21T08:17:29Z</time>
      </trkpt>
      <trkpt lat="47.26315" lon="-1.60194">
        <ele>85.9</ele>
        <time>2014-12-21T08:17:33Z</time>
      </trkpt>
      <trkpt lat="47.26309" lon="-1.60187">
        <ele>86.5</ele>
        <time>2014-12-21T08:17:36Z</time>
      </trkpt>
      <trkpt lat="47.26303" lon="-1.60177">
        <ele>83</ele>
        <time>2014-12-21T08:17:37Z</time>
      </trkpt>
      <trkpt lat="47.26297" lon="-1.60167">
        <ele>83.5</ele>
        <time>2014-12-21T08:17:39Z</time>
      </trkpt>
      <trkpt lat="47.26292" lon="-1.60157">
        <ele>78.8</ele>
        <time>2014-12-21T08:17:42Z</time>
      </trkpt>
      <trkpt lat="47.26289" lon="-1.60143">
        <ele>79</ele>
        <time>2014-12-21T08:17:46Z</time>
      </trkpt>
      <trkpt lat="47.26283" lon="-1.60131">
        <ele>78.5</ele>
        <time>2014-12-21T08:17:50Z</time>
      </trkpt>
      <trkpt lat="47.26275" lon="-1.60119">
        <ele>81.1</ele>
        <time>2014-12-21T08:17:52Z</time>
      </trkpt>
      <trkpt lat="47.26268" lon="-1.60108">
        <ele>80.5</ele>
        <time>2014-12-21T08:17:56Z</time>
      </trkpt>
      <trkpt lat="47.26262" lon="-1.60101">
        <ele>80.9</ele>
        <time>2014-12-21T08:17:58Z</time>
      </trkpt>
      <trkpt lat="47.26253" lon="-1.60099">
        <ele>83.9</ele>
        <time>2014-12-21T08:17:59Z</time>
      </trkpt>
      <trkpt lat="47.26244" lon="-1.601">
        <ele>80.9</ele>
        <time>2014-12-21T08:18:02Z</time>
      </trkpt>
      <trkpt lat="47.26236" lon="-1.60101">
        <ele>74</ele>
        <time>2014-12-21T08:18:06Z</time>
      </trkpt>
      <trkpt lat="47.26228" lon="-1.60102">
        <ele>76</ele>
        <time>2014-12-21T08:18:09Z</time>
      </trkpt>
      <trkpt lat="47.26222" lon="-1.60101">
        <ele>68.5</ele>
        <time>2014-12-21T08:18:17Z</time>
      </trkpt>
      <trkpt lat="47.26221" lon="-1.60105">
        <ele>64.8</ele>
        <time>2014-12-21T08:18:24Z</time>
      </trkpt>
      <trkpt lat="47.26218" lon="-1.60108">
        <ele>62.7</ele>
        <time>2014-12-21T08:18:31Z</time>
      </trkpt>
      <trkpt lat="47.26215" lon="-1.60116">
        <ele>64.3</ele>
        <time>2014-12-21T08:18:38Z</time>
      </trkpt>
      <trkpt lat="47.26209" lon="-1.60123">
        <ele>64.8</ele>
        <time>2014-12-21T08:18:42Z</time>
      </trkpt>
      <trkpt lat="47.26202" lon="-1.60129">
        <ele>66.4</ele>
        <time>2014-12-21T08:18:46Z</time>
      </trkpt>
      <trkpt lat="47.26196" lon="-1.60134">
        <ele>68.1</ele>
        <time>2014-12-21T08:18:50Z</time>
      </trkpt>
      <trkpt lat="47.26188" lon="-1.60141">
        <ele>68.6</ele>
        <time>2014-12-21T08:18:53Z</time>
      </trkpt>
      <trkpt lat="47.26185" lon="-1.60154">
        <ele>67.9</ele>
        <time>2014-12-21T08:18:57Z</time>
      </trkpt>
      <trkpt lat="47.26185" lon="-1.60165">
        <ele>66.9</ele>
        <time>2014-12-21T08:18:59Z</time>
      </trkpt>
      <trkpt lat="47.26191" lon="-1.60172">
        <ele>71.9</ele>
        <time>2014-12-21T08:19:01Z</time>
      </trkpt>
      <trkpt lat="47.26192" lon="-1.60178">
        <ele>73.9</ele>
        <time>2014-12-21T08:19:09Z</time>
      </trkpt>
      <trkpt lat="47.26198" lon="-1.60179">
        <ele>75.6</ele>
        <time>2014-12-21T08:19:16Z</time>
      </trkpt>
      <trkpt lat="47.26197" lon="-1.60179">
        <ele>75.1</ele>
        <time>2014-12-21T08:19:23Z</time>
      </trkpt>
      <trkpt lat="47.26198" lon="-1.60187">
        <ele>72</ele>
        <time>2014-12-21T08:19:30Z</time>
      </trkpt>
      <trkpt lat="47.26199" lon="-1.60199">
        <ele>72.6</ele>
        <time>2014-12-21T08:19:37Z</time>
      </trkpt>
      <trkpt lat="47.26204" lon="-1.6021">
        <ele>70.9</ele>
        <time>2014-12-21T08:19:42Z</time>
      </trkpt>
      <trkpt lat="47.26207" lon="-1.60222">
        <ele>76</ele>
        <time>2014-12-21T08:19:49Z</time>
      </trkpt>
      <trkpt lat="47.2621" lon="-1.60232">
        <ele>80.5</ele>
        <time>2014-12-21T08:19:56Z</time>
      </trkpt>
      <trkpt lat="47.26212" lon="-1.60243">
        <ele>78.6</ele>
        <time>2014-12-21T08:20:03Z</time>
      </trkpt>
      <trkpt lat="47.26214" lon="-1.6025">
        <ele>84.9</ele>
        <time>2014-12-21T08:20:10Z</time>
      </trkpt>
      <trkpt lat="47.26215" lon="-1.60248">
        <ele>85.3</ele>
        <time>2014-12-21T08:20:17Z</time>
      </trkpt>
      <trkpt lat="47.26217" lon="-1.6024">
        <ele>88.9</ele>
        <time>2014-12-21T08:20:24Z</time>
      </trkpt>
      <trkpt lat="47.26208" lon="-1.60235">
        <ele>99.5</ele>
        <time>2014-12-21T08:20:29Z</time>
      </trkpt>
      <trkpt lat="47.262" lon="-1.60234">
        <ele>103.6</ele>
        <time>2014-12-21T08:20:34Z</time>
      </trkpt>
      <trkpt lat="47.26192" lon="-1.60236">
        <ele>103.5</ele>
        <time>2014-12-21T08:20:38Z</time>
      </trkpt>
      <trkpt lat="47.26185" lon="-1.60237">
        <ele>106.1</ele>
        <time>2014-12-21T08:20:40Z</time>
      </trkpt>
      <trkpt lat="47.26178" lon="-1.60241">
        <ele>105.8</ele>
        <time>2014-12-21T08:20:42Z</time>
      </trkpt>
      <trkpt lat="47.26171" lon="-1.60239">
        <ele>96.8</ele>
        <time>2014-12-21T08:20:49Z</time>
      </trkpt>
      <trkpt lat="47.26168" lon="-1.60249">
        <ele>93.3</ele>
        <time>2014-12-21T08:20:52Z</time>
      </trkpt>
      <trkpt lat="47.26163" lon="-1.60258">
        <ele>88.5</ele>
        <time>2014-12-21T08:20:56Z</time>
      </trkpt>
      <trkpt lat="47.26164" lon="-1.60269">
        <ele>92.8</ele>
        <time>2014-12-21T08:21:02Z</time>
      </trkpt>
      <trkpt lat="47.26165" lon="-1.60281">
        <ele>94.6</ele>
        <time>2014-12-21T08:21:08Z</time>
      </trkpt>
      <trkpt lat="47.2621" lon="-1.60377">
        <ele>99.5</ele>
        <time>2014-12-21T08:21:47Z</time>
      </trkpt>
      <trkpt lat="47.26209" lon="-1.60388">
        <ele>104.1</ele>
        <time>2014-12-21T08:21:50Z</time>
      </trkpt>
      <trkpt lat="47.26203" lon="-1.60396">
        <ele>105</ele>
        <time>2014-12-21T08:21:56Z</time>
      </trkpt>
      <trkpt lat="47.26205" lon="-1.60407">
        <ele>111.6</ele>
        <time>2014-12-21T08:22:03Z</time>
      </trkpt>
      <trkpt lat="47.26208" lon="-1.60417">
        <ele>114.5</ele>
        <time>2014-12-21T08:22:06Z</time>
      </trkpt>
      <trkpt lat="47.26209" lon="-1.60428">
        <ele>116.5</ele>
        <time>2014-12-21T08:22:10Z</time>
      </trkpt>
      <trkpt lat="47.26216" lon="-1.60435">
        <ele>115.4</ele>
        <time>2014-12-21T08:22:14Z</time>
      </trkpt>
      <trkpt lat="47.26225" lon="-1.60433">
        <ele>114.8</ele>
        <time>2014-12-21T08:22:16Z</time>
      </trkpt>
      <trkpt lat="47.26229" lon="-1.60422">
        <ele>110</ele>
        <time>2014-12-21T08:22:21Z</time>
      </trkpt>
      <trkpt lat="47.2623" lon="-1.60409">
        <ele>104.9</ele>
        <time>2014-12-21T08:22:24Z</time>
      </trkpt>
      <trkpt lat="47.26237" lon="-1.60402">
        <ele>103.9</ele>
        <time>2014-12-21T08:22:28Z</time>
      </trkpt>
      <trkpt lat="47.26237" lon="-1.60403">
        <ele>103</ele>
        <time>2014-12-21T08:22:35Z</time>
      </trkpt>
      <trkpt lat="47.26244" lon="-1.60397">
        <ele>101</ele>
        <time>2014-12-21T08:22:55Z</time>
      </trkpt>
      <trkpt lat="47.26252" lon="-1.60399">
        <ele>94.9</ele>
        <time>2014-12-21T08:23:02Z</time>
      </trkpt>
      <trkpt lat="47.26261" lon="-1.60391">
        <ele>90.8</ele>
        <time>2014-12-21T08:23:07Z</time>
      </trkpt>
      <trkpt lat="47.26268" lon="-1.60388">
        <ele>91.8</ele>
        <time>2014-12-21T08:23:09Z</time>
      </trkpt>
      <trkpt lat="47.26273" lon="-1.6038">
        <ele>89.9</ele>
        <time>2014-12-21T08:23:14Z</time>
      </trkpt>
      <trkpt lat="47.26278" lon="-1.60369">
        <ele>90.9</ele>
        <time>2014-12-21T08:23:18Z</time>
      </trkpt>
      <trkpt lat="47.26283" lon="-1.60363">
        <ele>90</ele>
        <time>2014-12-21T08:23:26Z</time>
      </trkpt>
      <trkpt lat="47.26287" lon="-1.6035">
        <ele>87.3</ele>
        <time>2014-12-21T08:23:28Z</time>
      </trkpt>
      <trkpt lat="47.2629" lon="-1.60339">
        <ele>86.8</ele>
        <time>2014-12-21T08:23:30Z</time>
      </trkpt>
      <trkpt lat="47.26287" lon="-1.60329">
        <ele>92.5</ele>
        <time>2014-12-21T08:25:08Z</time>
      </trkpt>
      <trkpt lat="47.26281" lon="-1.60317">
        <ele>89.6</ele>
        <time>2014-12-21T08:26:08Z</time>
      </trkpt>
      <trkpt lat="47.26278" lon="-1.60313">
        <ele>87.9</ele>
        <time>2014-12-21T08:26:57Z</time>
      </trkpt>
      <trkpt lat="47.26281" lon="-1.60317">
        <ele>77</ele>
        <time>2014-12-21T08:27:39Z</time>
      </trkpt>
      <trkpt lat="47.26282" lon="-1.60309">
        <ele>80.3</ele>
        <time>2014-12-21T08:27:46Z</time>
      </trkpt>
      <trkpt lat="47.26283" lon="-1.6031">
        <ele>80.5</ele>
        <time>2014-12-21T08:27:53Z</time>
      </trkpt>
      <trkpt lat="47.26283" lon="-1.60314">
        <ele>82.8</ele>
        <time>2014-12-21T08:27:29Z</time>
      </trkpt>
      <trkpt lat="47.26287" lon="-1.60326">
        <ele>82.4</ele>
        <time>2014-12-21T08:28:39Z</time>
      </trkpt>
      <trkpt lat="47.26295" lon="-1.60334">
        <ele>87</ele>
        <time>2014-12-21T08:28:44Z</time>
      </trkpt>
      <trkpt lat="47.263" lon="-1.60345">
        <ele>89.8</ele>
        <time>2014-12-21T08:28:50Z</time>
      </trkpt>
      <trkpt lat="47.26302" lon="-1.60356">
        <ele>88.1</ele>
        <time>2014-12-21T08:28:56Z</time>
      </trkpt>
      <trkpt lat="47.26298" lon="-1.6036">
        <ele>82.1</ele>
        <time>2014-12-21T08:29:03Z</time>
      </trkpt>
      <trkpt lat="47.26299" lon="-1.60374">
        <ele>74.8</ele>
        <time>2014-12-21T08:29:10Z</time>
      </trkpt>
      <trkpt lat="47.26297" lon="-1.60386">
        <ele>73.8</ele>
        <time>2014-12-21T08:29:13Z</time>
      </trkpt>
      <trkpt lat="47.26298" lon="-1.60399">
        <ele>70.8</ele>
        <time>2014-12-21T08:29:16Z</time>
      </trkpt>
      <trkpt lat="47.26299" lon="-1.60411">
        <ele>73.3</ele>
        <time>2014-12-21T08:29:19Z</time>
      </trkpt>
      <trkpt lat="47.26298" lon="-1.60422">
        <ele>75.5</ele>
        <time>2014-12-21T08:29:23Z</time>
      </trkpt>
      <trkpt lat="47.26293" lon="-1.60429">
        <ele>80.8</ele>
        <time>2014-12-21T08:29:30Z</time>
      </trkpt>
      <trkpt lat="47.26289" lon="-1.60431">
        <ele>81.9</ele>
        <time>2014-12-21T08:29:37Z</time>
      </trkpt>
      <trkpt lat="47.26288" lon="-1.60438">
        <ele>80.3</ele>
        <time>2014-12-21T08:29:44Z</time>
      </trkpt>
      <trkpt lat="47.26285" lon="-1.60448">
        <ele>83</ele>
        <time>2014-12-21T08:29:48Z</time>
      </trkpt>
      <trkpt lat="47.26281" lon="-1.60458">
        <ele>75.1</ele>
        <time>2014-12-21T08:29:52Z</time>
      </trkpt>
      <trkpt lat="47.26282" lon="-1.60473">
        <ele>73.9</ele>
        <time>2014-12-21T08:29:55Z</time>
      </trkpt>
      <trkpt lat="47.26285" lon="-1.60486">
        <ele>77.4</ele>
        <time>2014-12-21T08:29:58Z</time>
      </trkpt>
      <trkpt lat="47.2629" lon="-1.605">
        <ele>80.3</ele>
        <time>2014-12-21T08:30:01Z</time>
      </trkpt>
      <trkpt lat="47.26287" lon="-1.60512">
        <ele>79.8</ele>
        <time>2014-12-21T08:30:04Z</time>
      </trkpt>
      <trkpt lat="47.26287" lon="-1.60524">
        <ele>80.5</ele>
        <time>2014-12-21T08:30:07Z</time>
      </trkpt>
      <trkpt lat="47.26285" lon="-1.60538">
        <ele>81.9</ele>
        <time>2014-12-21T08:30:10Z</time>
      </trkpt>
      <trkpt lat="47.26283" lon="-1.60551">
        <ele>76.9</ele>
        <time>2014-12-21T08:30:13Z</time>
      </trkpt>
      <trkpt lat="47.26284" lon="-1.60563">
        <ele>72.4</ele>
        <time>2014-12-21T08:30:16Z</time>
      </trkpt>
      <trkpt lat="47.26284" lon="-1.60576">
        <ele>71.6</ele>
        <time>2014-12-21T08:30:19Z</time>
      </trkpt>
      <trkpt lat="47.26282" lon="-1.60589">
        <ele>68.5</ele>
        <time>2014-12-21T08:30:22Z</time>
      </trkpt>
      <trkpt lat="47.26279" lon="-1.60599">
        <ele>68</ele>
        <time>2014-12-21T08:30:24Z</time>
      </trkpt>
      <trkpt lat="47.26277" lon="-1.60614">
        <ele>65.6</ele>
        <time>2014-12-21T08:30:27Z</time>
      </trkpt>
      <trkpt lat="47.26276" lon="-1.60625">
        <ele>66.5</ele>
        <time>2014-12-21T08:30:29Z</time>
      </trkpt>
      <trkpt lat="47.26274" lon="-1.60638">
        <ele>68.4</ele>
        <time>2014-12-21T08:30:32Z</time>
      </trkpt>
      <trkpt lat="47.26272" lon="-1.60648">
        <ele>67.5</ele>
        <time>2014-12-21T08:30:34Z</time>
      </trkpt>
      <trkpt lat="47.26268" lon="-1.60659">
        <ele>65.5</ele>
        <time>2014-12-21T08:30:36Z</time>
      </trkpt>
      <trkpt lat="47.26264" lon="-1.6067">
        <ele>65.9</ele>
        <time>2014-12-21T08:30:38Z</time>
      </trkpt>
      <trkpt lat="47.26261" lon="-1.60681">
        <ele>66</ele>
        <time>2014-12-21T08:30:40Z</time>
      </trkpt>
      <trkpt lat="47.26256" lon="-1.6069">
        <ele>67.6</ele>
        <time>2014-12-21T08:30:42Z</time>
      </trkpt>
      <trkpt lat="47.26253" lon="-1.60699">
        <ele>66.8</ele>
        <time>2014-12-21T08:30:44Z</time>
      </trkpt>
      <trkpt lat="47.26248" lon="-1.60713">
        <ele>67.1</ele>
        <time>2014-12-21T08:30:47Z</time>
      </trkpt>
      <trkpt lat="47.26241" lon="-1.60723">
        <ele>67.4</ele>
        <time>2014-12-21T08:30:50Z</time>
      </trkpt>
      <trkpt lat="47.26235" lon="-1.60728">
        <ele>66.4</ele>
        <time>2014-12-21T08:30:54Z</time>
      </trkpt>
      <trkpt lat="47.26234" lon="-1.60739">
        <ele>66</ele>
        <time>2014-12-21T08:31:01Z</time>
      </trkpt>
      <trkpt lat="47.2624" lon="-1.60749">
        <ele>66.3</ele>
        <time>2014-12-21T08:31:06Z</time>
      </trkpt>
      <trkpt lat="47.26247" lon="-1.60754">
        <ele>67.1</ele>
        <time>2014-12-21T08:31:08Z</time>
      </trkpt>
      <trkpt lat="47.26252" lon="-1.60763">
        <ele>66.8</ele>
        <time>2014-12-21T08:31:11Z</time>
      </trkpt>
      <trkpt lat="47.26255" lon="-1.60773">
        <ele>65.9</ele>
        <time>2014-12-21T08:31:14Z</time>
      </trkpt>
      <trkpt lat="47.2624" lon="-1.60818">
        <ele>82.6</ele>
        <time>2014-12-21T08:31:47Z</time>
      </trkpt>
      <trkpt lat="47.26242" lon="-1.6083">
        <ele>99.1</ele>
        <time>2014-12-21T08:31:52Z</time>
      </trkpt>
      <trkpt lat="47.2624" lon="-1.60842">
        <ele>97</ele>
        <time>2014-12-21T08:31:59Z</time>
      </trkpt>
      <trkpt lat="47.26235" lon="-1.6085">
        <ele>88.3</ele>
        <time>2014-12-21T08:32:03Z</time>
      </trkpt>
      <trkpt lat="47.26229" lon="-1.60858">
        <ele>86.8</ele>
        <time>2014-12-21T08:32:10Z</time>
      </trkpt>
      <trkpt lat="47.26229" lon="-1.60868">
        <ele>74.4</ele>
        <time>2014-12-21T08:32:17Z</time>
      </trkpt>
      <trkpt lat="47.26226" lon="-1.60879">
        <ele>72.1</ele>
        <time>2014-12-21T08:32:19Z</time>
      </trkpt>
      <trkpt lat="47.26228" lon="-1.60895">
        <ele>72.9</ele>
        <time>2014-12-21T08:32:22Z</time>
      </trkpt>
      <trkpt lat="47.26227" lon="-1.60907">
        <ele>77.1</ele>
        <time>2014-12-21T08:32:25Z</time>
      </trkpt>
      <trkpt lat="47.26226" lon="-1.60921">
        <ele>80</ele>
        <time>2014-12-21T08:32:28Z</time>
      </trkpt>
      <trkpt lat="47.26226" lon="-1.60933">
        <ele>83.5</ele>
        <time>2014-12-21T08:32:30Z</time>
      </trkpt>
      <trkpt lat="47.26228" lon="-1.60946">
        <ele>87.5</ele>
        <time>2014-12-21T08:32:33Z</time>
      </trkpt>
      <trkpt lat="47.26228" lon="-1.60959">
        <ele>88.4</ele>
        <time>2014-12-21T08:32:36Z</time>
      </trkpt>
      <trkpt lat="47.26228" lon="-1.6097">
        <ele>90</ele>
        <time>2014-12-21T08:32:38Z</time>
      </trkpt>
      <trkpt lat="47.26229" lon="-1.60984">
        <ele>92.6</ele>
        <time>2014-12-21T08:32:41Z</time>
      </trkpt>
      <trkpt lat="47.26224" lon="-1.60995">
        <ele>94.5</ele>
        <time>2014-12-21T08:32:44Z</time>
      </trkpt>
      <trkpt lat="47.2622" lon="-1.61004">
        <ele>94.4</ele>
        <time>2014-12-21T08:32:46Z</time>
      </trkpt>
      <trkpt lat="47.26216" lon="-1.61015">
        <ele>96.5</ele>
        <time>2014-12-21T08:32:49Z</time>
      </trkpt>
      <trkpt lat="47.26214" lon="-1.61027">
        <ele>100.9</ele>
        <time>2014-12-21T08:32:52Z</time>
      </trkpt>
      <trkpt lat="47.26211" lon="-1.61043">
        <ele>97.3</ele>
        <time>2014-12-21T08:32:55Z</time>
      </trkpt>
      <trkpt lat="47.26209" lon="-1.61054">
        <ele>96.4</ele>
        <time>2014-12-21T08:32:57Z</time>
      </trkpt>
      <trkpt lat="47.26207" lon="-1.61064">
        <ele>98.8</ele>
        <time>2014-12-21T08:32:59Z</time>
      </trkpt>
      <trkpt lat="47.26205" lon="-1.61077">
        <ele>96.5</ele>
        <time>2014-12-21T08:33:01Z</time>
      </trkpt>
      <trkpt lat="47.26203" lon="-1.61088">
        <ele>94.4</ele>
        <time>2014-12-21T08:33:03Z</time>
      </trkpt>
      <trkpt lat="47.26201" lon="-1.61103">
        <ele>94</ele>
        <time>2014-12-21T08:33:06Z</time>
      </trkpt>
      <trkpt lat="47.26199" lon="-1.61114">
        <ele>94.5</ele>
        <time>2014-12-21T08:33:08Z</time>
      </trkpt>
      <trkpt lat="47.26196" lon="-1.61125">
        <ele>93.8</ele>
        <time>2014-12-21T08:33:11Z</time>
      </trkpt>
      <trkpt lat="47.26192" lon="-1.61136">
        <ele>94.5</ele>
        <time>2014-12-21T08:33:13Z</time>
      </trkpt>
      <trkpt lat="47.26187" lon="-1.61148">
        <ele>92.3</ele>
        <time>2014-12-21T08:33:16Z</time>
      </trkpt>
      <trkpt lat="47.26183" lon="-1.61159">
        <ele>96.6</ele>
        <time>2014-12-21T08:33:20Z</time>
      </trkpt>
      <trkpt lat="47.26178" lon="-1.61168">
        <ele>99.3</ele>
        <time>2014-12-21T08:33:23Z</time>
      </trkpt>
      <trkpt lat="47.26174" lon="-1.61181">
        <ele>101.1</ele>
        <time>2014-12-21T08:33:27Z</time>
      </trkpt>
      <trkpt lat="47.26169" lon="-1.6119">
        <ele>102</ele>
        <time>2014-12-21T08:33:30Z</time>
      </trkpt>
      <trkpt lat="47.26165" lon="-1.612">
        <ele>102.5</ele>
        <time>2014-12-21T08:33:33Z</time>
      </trkpt>
      <trkpt lat="47.26162" lon="-1.6121">
        <ele>99.1</ele>
        <time>2014-12-21T08:33:36Z</time>
      </trkpt>
      <trkpt lat="47.26159" lon="-1.6122">
        <ele>99.5</ele>
        <time>2014-12-21T08:33:39Z</time>
      </trkpt>
      <trkpt lat="47.26156" lon="-1.61231">
        <ele>100</ele>
        <time>2014-12-21T08:33:43Z</time>
      </trkpt>
      <trkpt lat="47.26153" lon="-1.61241">
        <ele>100.3</ele>
        <time>2014-12-21T08:33:47Z</time>
      </trkpt>
      <trkpt lat="47.26151" lon="-1.61252">
        <ele>98.9</ele>
        <time>2014-12-21T08:33:49Z</time>
      </trkpt>
      <trkpt lat="47.2615" lon="-1.61265">
        <ele>96.3</ele>
        <time>2014-12-21T08:33:52Z</time>
      </trkpt>
      <trkpt lat="47.26147" lon="-1.61278">
        <ele>102.4</ele>
        <time>2014-12-21T08:33:56Z</time>
      </trkpt>
      <trkpt lat="47.26143" lon="-1.61292">
        <ele>99.4</ele>
        <time>2014-12-21T08:33:59Z</time>
      </trkpt>
      <trkpt lat="47.26137" lon="-1.61305">
        <ele>95.9</ele>
        <time>2014-12-21T08:34:02Z</time>
      </trkpt>
      <trkpt lat="47.26135" lon="-1.61317">
        <ele>95.4</ele>
        <time>2014-12-21T08:34:05Z</time>
      </trkpt>
      <trkpt lat="47.26133" lon="-1.61327">
        <ele>94.1</ele>
        <time>2014-12-21T08:34:09Z</time>
      </trkpt>
      <trkpt lat="47.26131" lon="-1.61331">
        <ele>90.5</ele>
        <time>2014-12-21T08:34:16Z</time>
      </trkpt>
      <trkpt lat="47.26135" lon="-1.61336">
        <ele>87.9</ele>
        <time>2014-12-21T08:34:52Z</time>
      </trkpt>
      <trkpt lat="47.26131" lon="-1.61334">
        <ele>90.5</ele>
        <time>2014-12-21T08:35:39Z</time>
      </trkpt>
      <trkpt lat="47.26131" lon="-1.61369">
        <ele>94</ele>
        <time>2014-12-21T08:36:47Z</time>
      </trkpt>
      <trkpt lat="47.2613" lon="-1.61366">
        <ele>98.1</ele>
        <time>2014-12-21T08:36:54Z</time>
      </trkpt>
      <trkpt lat="47.26129" lon="-1.61369">
        <ele>95</ele>
        <time>2014-12-21T08:37:01Z</time>
      </trkpt>
      <trkpt lat="47.26128" lon="-1.61376">
        <ele>94.8</ele>
        <time>2014-12-21T08:37:08Z</time>
      </trkpt>
      <trkpt lat="47.26135" lon="-1.61376">
        <ele>95</ele>
        <time>2014-12-21T08:37:15Z</time>
      </trkpt>
      <trkpt lat="47.26138" lon="-1.61376">
        <ele>95</ele>
        <time>2014-12-21T08:37:22Z</time>
      </trkpt>
      <trkpt lat="47.26132" lon="-1.61378">
        <ele>96.4</ele>
        <time>2014-12-21T08:37:29Z</time>
      </trkpt>
      <trkpt lat="47.26133" lon="-1.61369">
        <ele>96.6</ele>
        <time>2014-12-21T08:37:36Z</time>
      </trkpt>
      <trkpt lat="47.26166" lon="-1.61385">
        <ele>100.1</ele>
        <time>2014-12-21T08:39:03Z</time>
      </trkpt>
      <trkpt lat="47.26167" lon="-1.61384">
        <ele>105.3</ele>
        <time>2014-12-21T08:39:10Z</time>
      </trkpt>
      <trkpt lat="47.26168" lon="-1.61374">
        <ele>109</ele>
        <time>2014-12-21T08:39:17Z</time>
      </trkpt>
      <trkpt lat="47.26171" lon="-1.61374">
        <ele>94</ele>
        <time>2014-12-21T08:39:24Z</time>
      </trkpt>
      <trkpt lat="47.2617" lon="-1.61376">
        <ele>95.5</ele>
        <time>2014-12-21T08:39:31Z</time>
      </trkpt>
      <trkpt lat="47.26168" lon="-1.61382">
        <ele>95.4</ele>
        <time>2014-12-21T08:40:45Z</time>
      </trkpt>
      <trkpt lat="47.26178" lon="-1.61385">
        <ele>93.6</ele>
        <time>2014-12-21T08:40:58Z</time>
      </trkpt>
      <trkpt lat="47.26187" lon="-1.61384">
        <ele>89</ele>
        <time>2014-12-21T08:41:00Z</time>
      </trkpt>
      <trkpt lat="47.26196" lon="-1.61389">
        <ele>92.9</ele>
        <time>2014-12-21T08:41:04Z</time>
      </trkpt>
      <trkpt lat="47.26204" lon="-1.61392">
        <ele>93.1</ele>
        <time>2014-12-21T08:41:08Z</time>
      </trkpt>
      <trkpt lat="47.26199" lon="-1.61404">
        <ele>99.5</ele>
        <time>2014-12-21T08:41:12Z</time>
      </trkpt>
      <trkpt lat="47.26181" lon="-1.61452">
        <ele>119.4</ele>
        <time>2014-12-21T08:41:48Z</time>
      </trkpt>
      <trkpt lat="47.26179" lon="-1.61462">
        <ele>97.5</ele>
        <time>2014-12-21T08:41:52Z</time>
      </trkpt>
      <trkpt lat="47.26172" lon="-1.61465">
        <ele>101.9</ele>
        <time>2014-12-21T08:41:59Z</time>
      </trkpt>
      <trkpt lat="47.26168" lon="-1.61476">
        <ele>99</ele>
        <time>2014-12-21T08:42:02Z</time>
      </trkpt>
      <trkpt lat="47.26167" lon="-1.61489">
        <ele>102.5</ele>
        <time>2014-12-21T08:42:06Z</time>
      </trkpt>
      <trkpt lat="47.26159" lon="-1.61496">
        <ele>102.1</ele>
        <time>2014-12-21T08:42:09Z</time>
      </trkpt>
      <trkpt lat="47.26154" lon="-1.61506">
        <ele>97.8</ele>
        <time>2014-12-21T08:42:15Z</time>
      </trkpt>
      <trkpt lat="47.26152" lon="-1.61516">
        <ele>97.6</ele>
        <time>2014-12-21T08:42:18Z</time>
      </trkpt>
      <trkpt lat="47.26147" lon="-1.61525">
        <ele>97.9</ele>
        <time>2014-12-21T08:42:20Z</time>
      </trkpt>
      <trkpt lat="47.26143" lon="-1.61538">
        <ele>98.5</ele>
        <time>2014-12-21T08:42:23Z</time>
      </trkpt>
      <trkpt lat="47.26139" lon="-1.61549">
        <ele>98.6</ele>
        <time>2014-12-21T08:42:26Z</time>
      </trkpt>
      <trkpt lat="47.26137" lon="-1.61561">
        <ele>94</ele>
        <time>2014-12-21T08:42:31Z</time>
      </trkpt>
      <trkpt lat="47.26139" lon="-1.61573">
        <ele>92.6</ele>
        <time>2014-12-21T08:42:34Z</time>
      </trkpt>
      <trkpt lat="47.26139" lon="-1.61585">
        <ele>92.1</ele>
        <time>2014-12-21T08:42:37Z</time>
      </trkpt>
      <trkpt lat="47.26133" lon="-1.61592">
        <ele>97.8</ele>
        <time>2014-12-21T08:42:43Z</time>
      </trkpt>
      <trkpt lat="47.26132" lon="-1.61592">
        <ele>100.4</ele>
        <time>2014-12-21T08:42:50Z</time>
      </trkpt>
      <trkpt lat="47.26132" lon="-1.61596">
        <ele>103.5</ele>
        <time>2014-12-21T08:42:57Z</time>
      </trkpt>
      <trkpt lat="47.26127" lon="-1.61607">
        <ele>106</ele>
        <time>2014-12-21T08:43:03Z</time>
      </trkpt>
      <trkpt lat="47.26126" lon="-1.61607">
        <ele>108.5</ele>
        <time>2014-12-21T08:43:10Z</time>
      </trkpt>
      <trkpt lat="47.26122" lon="-1.61612">
        <ele>108.5</ele>
        <time>2014-12-21T08:43:17Z</time>
      </trkpt>
      <trkpt lat="47.26124" lon="-1.61623">
        <ele>104.8</ele>
        <time>2014-12-21T08:43:24Z</time>
      </trkpt>
      <trkpt lat="47.26125" lon="-1.61624">
        <ele>103.4</ele>
        <time>2014-12-21T08:43:31Z</time>
      </trkpt>
      <trkpt lat="47.26127" lon="-1.61635">
        <ele>102.5</ele>
        <time>2014-12-21T08:43:37Z</time>
      </trkpt>
      <trkpt lat="47.26127" lon="-1.61646">
        <ele>99.8</ele>
        <time>2014-12-21T08:43:42Z</time>
      </trkpt>
      <trkpt lat="47.2612" lon="-1.61651">
        <ele>102.1</ele>
        <time>2014-12-21T08:43:47Z</time>
      </trkpt>
      <trkpt lat="47.26117" lon="-1.61655">
        <ele>101.4</ele>
        <time>2014-12-21T08:43:54Z</time>
      </trkpt>
      <trkpt lat="47.26114" lon="-1.61665">
        <ele>104.5</ele>
        <time>2014-12-21T08:44:00Z</time>
      </trkpt>
      <trkpt lat="47.26111" lon="-1.61677">
        <ele>104.1</ele>
        <time>2014-12-21T08:44:03Z</time>
      </trkpt>
      <trkpt lat="47.26109" lon="-1.61688">
        <ele>102.9</ele>
        <time>2014-12-21T08:44:06Z</time>
      </trkpt>
      <trkpt lat="47.26104" lon="-1.61695">
        <ele>103.4</ele>
        <time>2014-12-21T08:44:10Z</time>
      </trkpt>
      <trkpt lat="47.26102" lon="-1.61709">
        <ele>105.5</ele>
        <time>2014-12-21T08:44:13Z</time>
      </trkpt>
      <trkpt lat="47.26105" lon="-1.61719">
        <ele>105.3</ele>
        <time>2014-12-21T08:44:15Z</time>
      </trkpt>
      <trkpt lat="47.26106" lon="-1.6173">
        <ele>106.8</ele>
        <time>2014-12-21T08:44:18Z</time>
      </trkpt>
      <trkpt lat="47.26105" lon="-1.61745">
        <ele>106.5</ele>
        <time>2014-12-21T08:44:22Z</time>
      </trkpt>
      <trkpt lat="47.26099" lon="-1.61754">
        <ele>118</ele>
        <time>2014-12-21T08:44:26Z</time>
      </trkpt>
      <trkpt lat="47.26097" lon="-1.61766">
        <ele>120.1</ele>
        <time>2014-12-21T08:44:29Z</time>
      </trkpt>
      <trkpt lat="47.26094" lon="-1.61776">
        <ele>126.8</ele>
        <time>2014-12-21T08:44:35Z</time>
      </trkpt>
      <trkpt lat="47.26093" lon="-1.61779">
        <ele>123.6</ele>
        <time>2014-12-21T08:44:42Z</time>
      </trkpt>
      <trkpt lat="47.2609" lon="-1.61789">
        <ele>120.9</ele>
        <time>2014-12-21T08:45:02Z</time>
      </trkpt>
      <trkpt lat="47.2609" lon="-1.61795">
        <ele>125</ele>
        <time>2014-12-21T08:45:09Z</time>
      </trkpt>
      <trkpt lat="47.26095" lon="-1.61807">
        <ele>121.6</ele>
        <time>2014-12-21T08:45:36Z</time>
      </trkpt>
      <trkpt lat="47.26095" lon="-1.61809">
        <ele>121</ele>
        <time>2014-12-21T08:45:43Z</time>
      </trkpt>
      <trkpt lat="47.26088" lon="-1.61811">
        <ele>124</ele>
        <time>2014-12-21T08:45:50Z</time>
      </trkpt>
      <trkpt lat="47.26081" lon="-1.61813">
        <ele>122.6</ele>
        <time>2014-12-21T08:45:53Z</time>
      </trkpt>
      <trkpt lat="47.26084" lon="-1.61816">
        <ele>122.4</ele>
        <time>2014-12-21T08:46:00Z</time>
      </trkpt>
      <trkpt lat="47.2608" lon="-1.61826">
        <ele>115.1</ele>
        <time>2014-12-21T08:46:07Z</time>
      </trkpt>
      <trkpt lat="47.26081" lon="-1.6183">
        <ele>124.4</ele>
        <time>2014-12-21T08:46:14Z</time>
      </trkpt>
      <trkpt lat="47.26063" lon="-1.61879">
        <ele>174.3</ele>
        <time>2014-12-21T08:46:49Z</time>
      </trkpt>
      <trkpt lat="47.26063" lon="-1.61895">
        <ele>148.3</ele>
        <time>2014-12-21T08:46:51Z</time>
      </trkpt>
      <trkpt lat="47.26063" lon="-1.61906">
        <ele>137.6</ele>
        <time>2014-12-21T08:46:54Z</time>
      </trkpt>
      <trkpt lat="47.2607" lon="-1.61915">
        <ele>135.3</ele>
        <time>2014-12-21T08:46:57Z</time>
      </trkpt>
      <trkpt lat="47.26071" lon="-1.61927">
        <ele>131.5</ele>
        <time>2014-12-21T08:47:02Z</time>
      </trkpt>
      <trkpt lat="47.26069" lon="-1.61933">
        <ele>129.1</ele>
        <time>2014-12-21T08:47:09Z</time>
      </trkpt>
      <trkpt lat="47.26077" lon="-1.61937">
        <ele>127.6</ele>
        <time>2014-12-21T08:47:45Z</time>
      </trkpt>
      <trkpt lat="47.26084" lon="-1.6194">
        <ele>130.3</ele>
        <time>2014-12-21T08:47:50Z</time>
      </trkpt>
      <trkpt lat="47.2609" lon="-1.61943">
        <ele>139.6</ele>
        <time>2014-12-21T08:47:57Z</time>
      </trkpt>
      <trkpt lat="47.26099" lon="-1.61946">
        <ele>139</ele>
        <time>2014-12-21T08:48:01Z</time>
      </trkpt>
      <trkpt lat="47.26109" lon="-1.61948">
        <ele>132.6</ele>
        <time>2014-12-21T08:48:06Z</time>
      </trkpt>
      <trkpt lat="47.26112" lon="-1.61935">
        <ele>135</ele>
        <time>2014-12-21T08:48:12Z</time>
      </trkpt>
      <trkpt lat="47.2611" lon="-1.61932">
        <ele>132.1</ele>
        <time>2014-12-21T08:48:26Z</time>
      </trkpt>
      <trkpt lat="47.26115" lon="-1.61936">
        <ele>129.6</ele>
        <time>2014-12-21T08:48:33Z</time>
      </trkpt>
      <trkpt lat="47.26121" lon="-1.61938">
        <ele>126.5</ele>
        <time>2014-12-21T08:48:40Z</time>
      </trkpt>
      <trkpt lat="47.26123" lon="-1.61936">
        <ele>123.8</ele>
        <time>2014-12-21T08:48:47Z</time>
      </trkpt>
      <trkpt lat="47.26125" lon="-1.61926">
        <ele>121</ele>
        <time>2014-12-21T08:49:23Z</time>
      </trkpt>
      <trkpt lat="47.26125" lon="-1.61915">
        <ele>126</ele>
        <time>2014-12-21T08:49:30Z</time>
      </trkpt>
      <trkpt lat="47.26127" lon="-1.61902">
        <ele>126</ele>
        <time>2014-12-21T08:49:35Z</time>
      </trkpt>
      <trkpt lat="47.26131" lon="-1.61892">
        <ele>129</ele>
        <time>2014-12-21T08:49:38Z</time>
      </trkpt>
      <trkpt lat="47.26131" lon="-1.61881">
        <ele>126.1</ele>
        <time>2014-12-21T08:49:43Z</time>
      </trkpt>
      <trkpt lat="47.26129" lon="-1.61868">
        <ele>123.4</ele>
        <time>2014-12-21T08:49:46Z</time>
      </trkpt>
      <trkpt lat="47.26123" lon="-1.61857">
        <ele>125.5</ele>
        <time>2014-12-21T08:49:49Z</time>
      </trkpt>
      <trkpt lat="47.26117" lon="-1.6185">
        <ele>125</ele>
        <time>2014-12-21T08:49:51Z</time>
      </trkpt>
      <trkpt lat="47.26123" lon="-1.61842">
        <ele>117.9</ele>
        <time>2014-12-21T08:49:57Z</time>
      </trkpt>
      <trkpt lat="47.26124" lon="-1.6183">
        <ele>116.8</ele>
        <time>2014-12-21T08:50:00Z</time>
      </trkpt>
      <trkpt lat="47.26123" lon="-1.61817">
        <ele>113.8</ele>
        <time>2014-12-21T08:50:03Z</time>
      </trkpt>
      <trkpt lat="47.26121" lon="-1.61805">
        <ele>109.5</ele>
        <time>2014-12-21T08:50:07Z</time>
      </trkpt>
      <trkpt lat="47.26123" lon="-1.61791">
        <ele>108.9</ele>
        <time>2014-12-21T08:50:11Z</time>
      </trkpt>
      <trkpt lat="47.2612" lon="-1.61781">
        <ele>110.1</ele>
        <time>2014-12-21T08:50:16Z</time>
      </trkpt>
      <trkpt lat="47.26127" lon="-1.61771">
        <ele>105.8</ele>
        <time>2014-12-21T08:50:19Z</time>
      </trkpt>
      <trkpt lat="47.26133" lon="-1.61761">
        <ele>103.3</ele>
        <time>2014-12-21T08:50:22Z</time>
      </trkpt>
      <trkpt lat="47.2614" lon="-1.6175">
        <ele>106.5</ele>
        <time>2014-12-21T08:50:24Z</time>
      </trkpt>
      <trkpt lat="47.26147" lon="-1.61737">
        <ele>108</ele>
        <time>2014-12-21T08:50:27Z</time>
      </trkpt>
      <trkpt lat="47.26147" lon="-1.61726">
        <ele>107.8</ele>
        <time>2014-12-21T08:50:29Z</time>
      </trkpt>
      <trkpt lat="47.26149" lon="-1.61712">
        <ele>115.4</ele>
        <time>2014-12-21T08:50:35Z</time>
      </trkpt>
      <trkpt lat="47.26146" lon="-1.61701">
        <ele>119.5</ele>
        <time>2014-12-21T08:50:42Z</time>
      </trkpt>
      <trkpt lat="47.26148" lon="-1.61689">
        <ele>117</ele>
        <time>2014-12-21T08:50:46Z</time>
      </trkpt>
      <trkpt lat="47.26144" lon="-1.6168">
        <ele>118.5</ele>
        <time>2014-12-21T08:50:48Z</time>
      </trkpt>
      <trkpt lat="47.26143" lon="-1.61666">
        <ele>121.3</ele>
        <time>2014-12-21T08:50:53Z</time>
      </trkpt>
      <trkpt lat="47.26143" lon="-1.61652">
        <ele>124.8</ele>
        <time>2014-12-21T08:50:58Z</time>
      </trkpt>
      <trkpt lat="47.26143" lon="-1.6164">
        <ele>123.5</ele>
        <time>2014-12-21T08:51:02Z</time>
      </trkpt>
      <trkpt lat="47.26151" lon="-1.61643">
        <ele>121.4</ele>
        <time>2014-12-21T08:51:04Z</time>
      </trkpt>
      <trkpt lat="47.26147" lon="-1.61629">
        <ele>117</ele>
        <time>2014-12-21T08:51:09Z</time>
      </trkpt>
      <trkpt lat="47.26144" lon="-1.61616">
        <ele>112.8</ele>
        <time>2014-12-21T08:51:13Z</time>
      </trkpt>
      <trkpt lat="47.26169" lon="-1.61538">
        <ele>107.5</ele>
        <time>2014-12-21T08:51:50Z</time>
      </trkpt>
      <trkpt lat="47.26162" lon="-1.61535">
        <ele>105.1</ele>
        <time>2014-12-21T08:51:56Z</time>
      </trkpt>
      <trkpt lat="47.26162" lon="-1.61536">
        <ele>105.9</ele>
        <time>2014-12-21T08:52:03Z</time>
      </trkpt>
      <trkpt lat="47.26161" lon="-1.61536">
        <ele>105.6</ele>
        <time>2014-12-21T08:52:10Z</time>
      </trkpt>
      <trkpt lat="47.26168" lon="-1.61535">
        <ele>106.5</ele>
        <time>2014-12-21T08:52:28Z</time>
      </trkpt>
      <trkpt lat="47.26169" lon="-1.61534">
        <ele>108.8</ele>
        <time>2014-12-21T08:52:35Z</time>
      </trkpt>
      <trkpt lat="47.26176" lon="-1.61533">
        <ele>115.4</ele>
        <time>2014-12-21T08:52:38Z</time>
      </trkpt>
      <trkpt lat="47.26187" lon="-1.61528">
        <ele>117.3</ele>
        <time>2014-12-21T08:52:58Z</time>
      </trkpt>
      <trkpt lat="47.2619" lon="-1.61518">
        <ele>116.9</ele>
        <time>2014-12-21T08:53:01Z</time>
      </trkpt>
      <trkpt lat="47.26197" lon="-1.61516">
        <ele>119</ele>
        <time>2014-12-21T08:53:06Z</time>
      </trkpt>
      <trkpt lat="47.26198" lon="-1.61503">
        <ele>124</ele>
        <time>2014-12-21T08:53:10Z</time>
      </trkpt>
      <trkpt lat="47.26199" lon="-1.61492">
        <ele>124.4</ele>
        <time>2014-12-21T08:53:13Z</time>
      </trkpt>
      <trkpt lat="47.26201" lon="-1.61482">
        <ele>121.5</ele>
        <time>2014-12-21T08:53:16Z</time>
      </trkpt>
      <trkpt lat="47.26208" lon="-1.61469">
        <ele>117.6</ele>
        <time>2014-12-21T08:53:18Z</time>
      </trkpt>
      <trkpt lat="47.2621" lon="-1.61455">
        <ele>118.1</ele>
        <time>2014-12-21T08:53:21Z</time>
      </trkpt>
      <trkpt lat="47.26211" lon="-1.61442">
        <ele>117.5</ele>
        <time>2014-12-21T08:53:27Z</time>
      </trkpt>
      <trkpt lat="47.2621" lon="-1.6144">
        <ele>118.8</ele>
        <time>2014-12-21T08:53:34Z</time>
      </trkpt>
      <trkpt lat="47.2621" lon="-1.61444">
        <ele>118</ele>
        <time>2014-12-21T08:53:41Z</time>
      </trkpt>
      <trkpt lat="47.26219" lon="-1.61435">
        <ele>116.5</ele>
        <time>2014-12-21T08:53:50Z</time>
      </trkpt>
      <trkpt lat="47.26225" lon="-1.61421">
        <ele>114.4</ele>
        <time>2014-12-21T08:53:52Z</time>
      </trkpt>
      <trkpt lat="47.26226" lon="-1.61406">
        <ele>109</ele>
        <time>2014-12-21T08:53:55Z</time>
      </trkpt>
      <trkpt lat="47.2622" lon="-1.614">
        <ele>106.5</ele>
        <time>2014-12-21T08:53:58Z</time>
      </trkpt>
      <trkpt lat="47.26214" lon="-1.6139">
        <ele>106</ele>
        <time>2014-12-21T08:54:03Z</time>
      </trkpt>
      <trkpt lat="47.26204" lon="-1.61388">
        <ele>109</ele>
        <time>2014-12-21T08:54:06Z</time>
      </trkpt>
      <trkpt lat="47.26196" lon="-1.61388">
        <ele>111</ele>
        <time>2014-12-21T08:54:09Z</time>
      </trkpt>
      <trkpt lat="47.26188" lon="-1.61385">
        <ele>113.5</ele>
        <time>2014-12-21T08:54:13Z</time>
      </trkpt>
      <trkpt lat="47.26181" lon="-1.61382">
        <ele>113.3</ele>
        <time>2014-12-21T08:54:17Z</time>
      </trkpt>
      <trkpt lat="47.26173" lon="-1.61377">
        <ele>111.9</ele>
        <time>2014-12-21T08:54:24Z</time>
      </trkpt>
      <trkpt lat="47.2617" lon="-1.61376">
        <ele>104.8</ele>
        <time>2014-12-21T08:54:31Z</time>
      </trkpt>
      <trkpt lat="47.26171" lon="-1.61376">
        <ele>100.9</ele>
        <time>2014-12-21T08:54:50Z</time>
      </trkpt>
      <trkpt lat="47.26169" lon="-1.61374">
        <ele>98.8</ele>
        <time>2014-12-21T08:54:34Z</time>
      </trkpt>
      <trkpt lat="47.26166" lon="-1.61366">
        <ele>100.4</ele>
        <time>2014-12-21T08:57:10Z</time>
      </trkpt>
      <trkpt lat="47.2617" lon="-1.61364">
        <ele>99.1</ele>
        <time>2014-12-21T08:57:40Z</time>
      </trkpt>
      <trkpt lat="47.26169" lon="-1.61367">
        <ele>96.9</ele>
        <time>2014-12-21T08:57:54Z</time>
      </trkpt>
      <trkpt lat="47.26171" lon="-1.61372">
        <ele>94.3</ele>
        <time>2014-12-21T08:58:01Z</time>
      </trkpt>
      <trkpt lat="47.2617" lon="-1.61378">
        <ele>91.9</ele>
        <time>2014-12-21T08:58:22Z</time>
      </trkpt>
      <trkpt lat="47.26168" lon="-1.61382">
        <ele>83</ele>
        <time>2014-12-21T08:59:20Z</time>
      </trkpt>
      <trkpt lat="47.26168" lon="-1.61386">
        <ele>80</ele>
        <time>2014-12-21T08:59:27Z</time>
      </trkpt>
      <trkpt lat="47.26177" lon="-1.61382">
        <ele>76.5</ele>
        <time>2014-12-21T09:00:07Z</time>
      </trkpt>
      <trkpt lat="47.26173" lon="-1.61379">
        <ele>77.5</ele>
        <time>2014-12-21T09:00:14Z</time>
      </trkpt>
      <trkpt lat="47.26169" lon="-1.6139">
        <ele>80</ele>
        <time>2014-12-21T09:00:49Z</time>
      </trkpt>
      <trkpt lat="47.26167" lon="-1.61403">
        <ele>81.4</ele>
        <time>2014-12-21T09:00:52Z</time>
      </trkpt>
      <trkpt lat="47.26167" lon="-1.61414">
        <ele>76.9</ele>
        <time>2014-12-21T09:00:55Z</time>
      </trkpt>
      <trkpt lat="47.26164" lon="-1.61425">
        <ele>77.8</ele>
        <time>2014-12-21T09:00:59Z</time>
      </trkpt>
      <trkpt lat="47.26161" lon="-1.61435">
        <ele>79.3</ele>
        <time>2014-12-21T09:01:02Z</time>
      </trkpt>
      <trkpt lat="47.26157" lon="-1.61448">
        <ele>81</ele>
        <time>2014-12-21T09:01:06Z</time>
      </trkpt>
      <trkpt lat="47.26154" lon="-1.61459">
        <ele>80.5</ele>
        <time>2014-12-21T09:01:09Z</time>
      </trkpt>
      <trkpt lat="47.26152" lon="-1.61469">
        <ele>81.6</ele>
        <time>2014-12-21T09:01:12Z</time>
      </trkpt>
      <trkpt lat="47.26147" lon="-1.6148">
        <ele>83.3</ele>
        <time>2014-12-21T09:01:16Z</time>
      </trkpt>
      <trkpt lat="47.26102" lon="-1.61634">
        <ele>99.6</ele>
        <time>2014-12-21T09:01:50Z</time>
      </trkpt>
      <trkpt lat="47.26102" lon="-1.61647">
        <ele>98.5</ele>
        <time>2014-12-21T09:01:55Z</time>
      </trkpt>
      <trkpt lat="47.26099" lon="-1.6166">
        <ele>95.3</ele>
        <time>2014-12-21T09:01:58Z</time>
      </trkpt>
      <trkpt lat="47.26097" lon="-1.61671">
        <ele>92.5</ele>
        <time>2014-12-21T09:02:00Z</time>
      </trkpt>
      <trkpt lat="47.26095" lon="-1.61686">
        <ele>90.1</ele>
        <time>2014-12-21T09:02:03Z</time>
      </trkpt>
      <trkpt lat="47.26091" lon="-1.61697">
        <ele>93.1</ele>
        <time>2014-12-21T09:02:07Z</time>
      </trkpt>
      <trkpt lat="47.26086" lon="-1.61705">
        <ele>94</ele>
        <time>2014-12-21T09:02:10Z</time>
      </trkpt>
      <trkpt lat="47.26084" lon="-1.61716">
        <ele>93.5</ele>
        <time>2014-12-21T09:02:16Z</time>
      </trkpt>
      <trkpt lat="47.26083" lon="-1.6173">
        <ele>91.6</ele>
        <time>2014-12-21T09:02:19Z</time>
      </trkpt>
      <trkpt lat="47.2608" lon="-1.61743">
        <ele>91.5</ele>
        <time>2014-12-21T09:02:23Z</time>
      </trkpt>
      <trkpt lat="47.26077" lon="-1.61759">
        <ele>91.5</ele>
        <time>2014-12-21T09:02:25Z</time>
      </trkpt>
      <trkpt lat="47.26075" lon="-1.61775">
        <ele>89.5</ele>
        <time>2014-12-21T09:02:27Z</time>
      </trkpt>
      <trkpt lat="47.26075" lon="-1.61789">
        <ele>85.1</ele>
        <time>2014-12-21T09:02:29Z</time>
      </trkpt>
      <trkpt lat="47.26074" lon="-1.61801">
        <ele>84.5</ele>
        <time>2014-12-21T09:02:31Z</time>
      </trkpt>
      <trkpt lat="47.26071" lon="-1.61811">
        <ele>85.5</ele>
        <time>2014-12-21T09:02:33Z</time>
      </trkpt>
      <trkpt lat="47.26069" lon="-1.61821">
        <ele>85.8</ele>
        <time>2014-12-21T09:02:35Z</time>
      </trkpt>
      <trkpt lat="47.26064" lon="-1.61833">
        <ele>91</ele>
        <time>2014-12-21T09:02:38Z</time>
      </trkpt>
      <trkpt lat="47.26062" lon="-1.61844">
        <ele>89.3</ele>
        <time>2014-12-21T09:02:40Z</time>
      </trkpt>
      <trkpt lat="47.26058" lon="-1.61859">
        <ele>88.6</ele>
        <time>2014-12-21T09:02:43Z</time>
      </trkpt>
      <trkpt lat="47.26058" lon="-1.61874">
        <ele>87.6</ele>
        <time>2014-12-21T09:02:46Z</time>
      </trkpt>
      <trkpt lat="47.26053" lon="-1.6189">
        <ele>88.4</ele>
        <time>2014-12-21T09:02:49Z</time>
      </trkpt>
      <trkpt lat="47.26049" lon="-1.61904">
        <ele>89.3</ele>
        <time>2014-12-21T09:02:52Z</time>
      </trkpt>
      <trkpt lat="47.26047" lon="-1.61919">
        <ele>91.3</ele>
        <time>2014-12-21T09:02:55Z</time>
      </trkpt>
      <trkpt lat="47.26045" lon="-1.6193">
        <ele>91.5</ele>
        <time>2014-12-21T09:02:57Z</time>
      </trkpt>
      <trkpt lat="47.26042" lon="-1.61944">
        <ele>95.8</ele>
        <time>2014-12-21T09:03:00Z</time>
      </trkpt>
      <trkpt lat="47.2604" lon="-1.61961">
        <ele>95.8</ele>
        <time>2014-12-21T09:03:03Z</time>
      </trkpt>
      <trkpt lat="47.26036" lon="-1.61974">
        <ele>96</ele>
        <time>2014-12-21T09:03:05Z</time>
      </trkpt>
      <trkpt lat="47.26034" lon="-1.61989">
        <ele>99.3</ele>
        <time>2014-12-21T09:03:08Z</time>
      </trkpt>
      <trkpt lat="47.26031" lon="-1.61999">
        <ele>98.6</ele>
        <time>2014-12-21T09:03:10Z</time>
      </trkpt>
      <trkpt lat="47.26029" lon="-1.62011">
        <ele>97.5</ele>
        <time>2014-12-21T09:03:12Z</time>
      </trkpt>
      <trkpt lat="47.26026" lon="-1.62024">
        <ele>96.5</ele>
        <time>2014-12-21T09:03:14Z</time>
      </trkpt>
      <trkpt lat="47.26026" lon="-1.62038">
        <ele>102</ele>
        <time>2014-12-21T09:03:17Z</time>
      </trkpt>
      <trkpt lat="47.26023" lon="-1.62049">
        <ele>103.1</ele>
        <time>2014-12-21T09:03:19Z</time>
      </trkpt>
      <trkpt lat="47.26021" lon="-1.6206">
        <ele>103.6</ele>
        <time>2014-12-21T09:03:21Z</time>
      </trkpt>
      <trkpt lat="47.26018" lon="-1.62076">
        <ele>104.5</ele>
        <time>2014-12-21T09:03:24Z</time>
      </trkpt>
      <trkpt lat="47.26016" lon="-1.6209">
        <ele>105.5</ele>
        <time>2014-12-21T09:03:27Z</time>
      </trkpt>
      <trkpt lat="47.26014" lon="-1.62102">
        <ele>106.3</ele>
        <time>2014-12-21T09:03:30Z</time>
      </trkpt>
      <trkpt lat="47.26011" lon="-1.62112">
        <ele>105.3</ele>
        <time>2014-12-21T09:03:32Z</time>
      </trkpt>
      <trkpt lat="47.26009" lon="-1.62125">
        <ele>106.3</ele>
        <time>2014-12-21T09:03:34Z</time>
      </trkpt>
      <trkpt lat="47.26005" lon="-1.62139">
        <ele>105.5</ele>
        <time>2014-12-21T09:03:37Z</time>
      </trkpt>
      <trkpt lat="47.26003" lon="-1.62148">
        <ele>105</ele>
        <time>2014-12-21T09:03:39Z</time>
      </trkpt>
      <trkpt lat="47.26" lon="-1.62164">
        <ele>105.9</ele>
        <time>2014-12-21T09:03:42Z</time>
      </trkpt>
      <trkpt lat="47.25996" lon="-1.62178">
        <ele>106</ele>
        <time>2014-12-21T09:03:45Z</time>
      </trkpt>
      <trkpt lat="47.25994" lon="-1.62188">
        <ele>105</ele>
        <time>2014-12-21T09:03:47Z</time>
      </trkpt>
      <trkpt lat="47.25991" lon="-1.62199">
        <ele>107.1</ele>
        <time>2014-12-21T09:03:49Z</time>
      </trkpt>
      <trkpt lat="47.25988" lon="-1.62211">
        <ele>106.9</ele>
        <time>2014-12-21T09:03:51Z</time>
      </trkpt>
      <trkpt lat="47.25987" lon="-1.62224">
        <ele>112.3</ele>
        <time>2014-12-21T09:03:54Z</time>
      </trkpt>
      <trkpt lat="47.25984" lon="-1.62236">
        <ele>114.6</ele>
        <time>2014-12-21T09:03:57Z</time>
      </trkpt>
      <trkpt lat="47.25979" lon="-1.62247">
        <ele>112.4</ele>
        <time>2014-12-21T09:03:59Z</time>
      </trkpt>
      <trkpt lat="47.25976" lon="-1.6226">
        <ele>111.5</ele>
        <time>2014-12-21T09:04:02Z</time>
      </trkpt>
      <trkpt lat="47.25974" lon="-1.62274">
        <ele>111</ele>
        <time>2014-12-21T09:04:05Z</time>
      </trkpt>
      <trkpt lat="47.25972" lon="-1.62288">
        <ele>110.8</ele>
        <time>2014-12-21T09:04:08Z</time>
      </trkpt>
      <trkpt lat="47.25974" lon="-1.62301">
        <ele>110.1</ele>
        <time>2014-12-21T09:04:12Z</time>
      </trkpt>
      <trkpt lat="47.2598" lon="-1.62313">
        <ele>109.8</ele>
        <time>2014-12-21T09:04:15Z</time>
      </trkpt>
      <trkpt lat="47.25987" lon="-1.62324">
        <ele>109</ele>
        <time>2014-12-21T09:04:18Z</time>
      </trkpt>
      <trkpt lat="47.25995" lon="-1.62332">
        <ele>109.6</ele>
        <time>2014-12-21T09:04:21Z</time>
      </trkpt>
      <trkpt lat="47.26002" lon="-1.62339">
        <ele>108.4</ele>
        <time>2014-12-21T09:04:23Z</time>
      </trkpt>
      <trkpt lat="47.2601" lon="-1.62347">
        <ele>108.3</ele>
        <time>2014-12-21T09:04:26Z</time>
      </trkpt>
      <trkpt lat="47.26016" lon="-1.62357">
        <ele>109.6</ele>
        <time>2014-12-21T09:04:29Z</time>
      </trkpt>
      <trkpt lat="47.26023" lon="-1.62367">
        <ele>111</ele>
        <time>2014-12-21T09:04:32Z</time>
      </trkpt>
      <trkpt lat="47.26029" lon="-1.62372">
        <ele>111.3</ele>
        <time>2014-12-21T09:04:35Z</time>
      </trkpt>
      <trkpt lat="47.26038" lon="-1.62368">
        <ele>112</ele>
        <time>2014-12-21T09:04:37Z</time>
      </trkpt>
      <trkpt lat="47.26045" lon="-1.62366">
        <ele>111.5</ele>
        <time>2014-12-21T09:04:39Z</time>
      </trkpt>
      <trkpt lat="47.26054" lon="-1.62361">
        <ele>110.5</ele>
        <time>2014-12-21T09:04:41Z</time>
      </trkpt>
      <trkpt lat="47.26062" lon="-1.62357">
        <ele>110</ele>
        <time>2014-12-21T09:04:43Z</time>
      </trkpt>
      <trkpt lat="47.26069" lon="-1.6235">
        <ele>109.8</ele>
        <time>2014-12-21T09:04:45Z</time>
      </trkpt>
      <trkpt lat="47.26077" lon="-1.62345">
        <ele>109.8</ele>
        <time>2014-12-21T09:04:47Z</time>
      </trkpt>
      <trkpt lat="47.26083" lon="-1.62353">
        <ele>108.5</ele>
        <time>2014-12-21T09:04:49Z</time>
      </trkpt>
      <trkpt lat="47.2609" lon="-1.62357">
        <ele>108.1</ele>
        <time>2014-12-21T09:04:51Z</time>
      </trkpt>
      <trkpt lat="47.26096" lon="-1.62362">
        <ele>108.3</ele>
        <time>2014-12-21T09:04:53Z</time>
      </trkpt>
      <trkpt lat="47.26102" lon="-1.6237">
        <ele>108.4</ele>
        <time>2014-12-21T09:04:55Z</time>
      </trkpt>
      <trkpt lat="47.26105" lon="-1.6238">
        <ele>107.9</ele>
        <time>2014-12-21T09:04:57Z</time>
      </trkpt>
      <trkpt lat="47.26106" lon="-1.62391">
        <ele>107.4</ele>
        <time>2014-12-21T09:04:59Z</time>
      </trkpt>
      <trkpt lat="47.26106" lon="-1.62402">
        <ele>107</ele>
        <time>2014-12-21T09:05:01Z</time>
      </trkpt>
      <trkpt lat="47.26106" lon="-1.62413">
        <ele>107.1</ele>
        <time>2014-12-21T09:05:03Z</time>
      </trkpt>
      <trkpt lat="47.26108" lon="-1.62424">
        <ele>107.8</ele>
        <time>2014-12-21T09:05:05Z</time>
      </trkpt>
      <trkpt lat="47.26109" lon="-1.62438">
        <ele>107.3</ele>
        <time>2014-12-21T09:05:08Z</time>
      </trkpt>
      <trkpt lat="47.26109" lon="-1.62449">
        <ele>107.6</ele>
        <time>2014-12-21T09:05:11Z</time>
      </trkpt>
      <trkpt lat="47.26113" lon="-1.62457">
        <ele>107.5</ele>
        <time>2014-12-21T09:05:18Z</time>
      </trkpt>
      <trkpt lat="47.26114" lon="-1.6245">
        <ele>108</ele>
        <time>2014-12-21T09:05:25Z</time>
      </trkpt>
      <trkpt lat="47.26115" lon="-1.62445">
        <ele>108.5</ele>
        <time>2014-12-21T09:05:32Z</time>
      </trkpt>
      <trkpt lat="47.26116" lon="-1.62445">
        <ele>108.1</ele>
        <time>2014-12-21T09:05:39Z</time>
      </trkpt>
      <trkpt lat="47.26116" lon="-1.62444">
        <ele>107.9</ele>
        <time>2014-12-21T09:05:46Z</time>
      </trkpt>
      <trkpt lat="47.26116" lon="-1.6244">
        <ele>107</ele>
        <time>2014-12-21T09:06:58Z</time>
      </trkpt>
      <trkpt lat="47.26123" lon="-1.62449">
        <ele>112.1</ele>
        <time>2014-12-21T09:07:05Z</time>
      </trkpt>
      <trkpt lat="47.26128" lon="-1.62458">
        <ele>112</ele>
        <time>2014-12-21T09:07:09Z</time>
      </trkpt>
      <trkpt lat="47.26133" lon="-1.62467">
        <ele>111.8</ele>
        <time>2014-12-21T09:07:13Z</time>
      </trkpt>
      <trkpt lat="47.2614" lon="-1.62474">
        <ele>112.9</ele>
        <time>2014-12-21T09:07:17Z</time>
      </trkpt>
      <trkpt lat="47.26146" lon="-1.62484">
        <ele>116.5</ele>
        <time>2014-12-21T09:07:21Z</time>
      </trkpt>
      <trkpt lat="47.26153" lon="-1.62491">
        <ele>116.1</ele>
        <time>2014-12-21T09:07:25Z</time>
      </trkpt>
      <trkpt lat="47.26159" lon="-1.62496">
        <ele>119.5</ele>
        <time>2014-12-21T09:07:32Z</time>
      </trkpt>
      <trkpt lat="47.26159" lon="-1.62503">
        <ele>114.5</ele>
        <time>2014-12-21T09:07:39Z</time>
      </trkpt>
      <trkpt lat="47.26158" lon="-1.62498">
        <ele>111</ele>
        <time>2014-12-21T09:07:46Z</time>
      </trkpt>
      <trkpt lat="47.26159" lon="-1.62498">
        <ele>112.6</ele>
        <time>2014-12-21T09:07:53Z</time>
      </trkpt>
      <trkpt lat="47.26164" lon="-1.6249">
        <ele>109.6</ele>
        <time>2014-12-21T09:08:48Z</time>
      </trkpt>
      <trkpt lat="47.26173" lon="-1.62492">
        <ele>110.3</ele>
        <time>2014-12-21T09:08:55Z</time>
      </trkpt>
      <trkpt lat="47.2618" lon="-1.62498">
        <ele>108.5</ele>
        <time>2014-12-21T09:09:00Z</time>
      </trkpt>
      <trkpt lat="47.26187" lon="-1.62504">
        <ele>110.9</ele>
        <time>2014-12-21T09:09:04Z</time>
      </trkpt>
      <trkpt lat="47.26196" lon="-1.62504">
        <ele>110.3</ele>
        <time>2014-12-21T09:09:08Z</time>
      </trkpt>
      <trkpt lat="47.26202" lon="-1.62512">
        <ele>113.5</ele>
        <time>2014-12-21T09:09:12Z</time>
      </trkpt>
      <trkpt lat="47.26208" lon="-1.62507">
        <ele>114.5</ele>
        <time>2014-12-21T09:09:15Z</time>
      </trkpt>
      <trkpt lat="47.26216" lon="-1.62511">
        <ele>114.6</ele>
        <time>2014-12-21T09:09:18Z</time>
      </trkpt>
      <trkpt lat="47.26223" lon="-1.62515">
        <ele>117</ele>
        <time>2014-12-21T09:09:21Z</time>
      </trkpt>
      <trkpt lat="47.26232" lon="-1.62514">
        <ele>115.5</ele>
        <time>2014-12-21T09:09:26Z</time>
      </trkpt>
      <trkpt lat="47.2624" lon="-1.62518">
        <ele>116</ele>
        <time>2014-12-21T09:09:28Z</time>
      </trkpt>
      <trkpt lat="47.26249" lon="-1.62521">
        <ele>115.5</ele>
        <time>2014-12-21T09:09:31Z</time>
      </trkpt>
      <trkpt lat="47.26256" lon="-1.62526">
        <ele>116.4</ele>
        <time>2014-12-21T09:09:33Z</time>
      </trkpt>
      <trkpt lat="47.26265" lon="-1.62531">
        <ele>117.8</ele>
        <time>2014-12-21T09:09:36Z</time>
      </trkpt>
      <trkpt lat="47.26273" lon="-1.62538">
        <ele>118.6</ele>
        <time>2014-12-21T09:09:39Z</time>
      </trkpt>
      <trkpt lat="47.26284" lon="-1.62538">
        <ele>116.5</ele>
        <time>2014-12-21T09:09:42Z</time>
      </trkpt>
      <trkpt lat="47.26294" lon="-1.62539">
        <ele>116.4</ele>
        <time>2014-12-21T09:09:45Z</time>
      </trkpt>
      <trkpt lat="47.26302" lon="-1.62541">
        <ele>116.9</ele>
        <time>2014-12-21T09:09:48Z</time>
      </trkpt>
      <trkpt lat="47.26309" lon="-1.62545">
        <ele>118.6</ele>
        <time>2014-12-21T09:09:51Z</time>
      </trkpt>
      <trkpt lat="47.2632" lon="-1.62546">
        <ele>120.6</ele>
        <time>2014-12-21T09:09:55Z</time>
      </trkpt>
      <trkpt lat="47.26329" lon="-1.6255">
        <ele>124.1</ele>
        <time>2014-12-21T09:09:58Z</time>
      </trkpt>
      <trkpt lat="47.26337" lon="-1.62554">
        <ele>124.5</ele>
        <time>2014-12-21T09:10:00Z</time>
      </trkpt>
      <trkpt lat="47.26344" lon="-1.62558">
        <ele>123.5</ele>
        <time>2014-12-21T09:10:02Z</time>
      </trkpt>
      <trkpt lat="47.26353" lon="-1.62563">
        <ele>122.9</ele>
        <time>2014-12-21T09:10:04Z</time>
      </trkpt>
      <trkpt lat="47.26363" lon="-1.62564">
        <ele>122.4</ele>
        <time>2014-12-21T09:10:07Z</time>
      </trkpt>
      <trkpt lat="47.26373" lon="-1.62569">
        <ele>120</ele>
        <time>2014-12-21T09:10:09Z</time>
      </trkpt>
      <trkpt lat="47.26381" lon="-1.62568">
        <ele>122.3</ele>
        <time>2014-12-21T09:10:11Z</time>
      </trkpt>
      <trkpt lat="47.26392" lon="-1.62562">
        <ele>120.9</ele>
        <time>2014-12-21T09:10:13Z</time>
      </trkpt>
      <trkpt lat="47.26405" lon="-1.62558">
        <ele>118.4</ele>
        <time>2014-12-21T09:10:16Z</time>
      </trkpt>
      <trkpt lat="47.26414" lon="-1.62552">
        <ele>117.9</ele>
        <time>2014-12-21T09:10:18Z</time>
      </trkpt>
      <trkpt lat="47.26424" lon="-1.62544">
        <ele>118.1</ele>
        <time>2014-12-21T09:10:20Z</time>
      </trkpt>
      <trkpt lat="47.26432" lon="-1.62536">
        <ele>115.1</ele>
        <time>2014-12-21T09:10:23Z</time>
      </trkpt>
      <trkpt lat="47.26438" lon="-1.62528">
        <ele>114.1</ele>
        <time>2014-12-21T09:10:26Z</time>
      </trkpt>
      <trkpt lat="47.26446" lon="-1.6252">
        <ele>113.8</ele>
        <time>2014-12-21T09:10:30Z</time>
      </trkpt>
      <trkpt lat="47.26453" lon="-1.62514">
        <ele>113</ele>
        <time>2014-12-21T09:10:32Z</time>
      </trkpt>
      <trkpt lat="47.26461" lon="-1.62507">
        <ele>115</ele>
        <time>2014-12-21T09:10:35Z</time>
      </trkpt>
      <trkpt lat="47.26468" lon="-1.625">
        <ele>113.5</ele>
        <time>2014-12-21T09:10:37Z</time>
      </trkpt>
      <trkpt lat="47.26476" lon="-1.62498">
        <ele>114</ele>
        <time>2014-12-21T09:10:39Z</time>
      </trkpt>
      <trkpt lat="47.26483" lon="-1.62491">
        <ele>108</ele>
        <time>2014-12-21T09:10:41Z</time>
      </trkpt>
      <trkpt lat="47.26492" lon="-1.62486">
        <ele>99</ele>
        <time>2014-12-21T09:10:44Z</time>
      </trkpt>
      <trkpt lat="47.26499" lon="-1.62485">
        <ele>92.6</ele>
        <time>2014-12-21T09:10:50Z</time>
      </trkpt>
      <trkpt lat="47.26503" lon="-1.62475">
        <ele>92</ele>
        <time>2014-12-21T09:10:53Z</time>
      </trkpt>
      <trkpt lat="47.26506" lon="-1.62471">
        <ele>91</ele>
        <time>2014-12-21T09:11:00Z</time>
      </trkpt>
      <trkpt lat="47.26504" lon="-1.62458">
        <ele>93.8</ele>
        <time>2014-12-21T09:11:04Z</time>
      </trkpt>
      <trkpt lat="47.26506" lon="-1.62443">
        <ele>100.5</ele>
        <time>2014-12-21T09:11:11Z</time>
      </trkpt>
      <trkpt lat="47.26512" lon="-1.62436">
        <ele>99.5</ele>
        <time>2014-12-21T09:11:14Z</time>
      </trkpt>
      <trkpt lat="47.2652" lon="-1.62429">
        <ele>100.6</ele>
        <time>2014-12-21T09:11:18Z</time>
      </trkpt>
      <trkpt lat="47.26526" lon="-1.62424">
        <ele>102</ele>
        <time>2014-12-21T09:11:21Z</time>
      </trkpt>
      <trkpt lat="47.26532" lon="-1.62417">
        <ele>102.5</ele>
        <time>2014-12-21T09:11:24Z</time>
      </trkpt>
      <trkpt lat="47.26541" lon="-1.62416">
        <ele>104.1</ele>
        <time>2014-12-21T09:11:28Z</time>
      </trkpt>
      <trkpt lat="47.26549" lon="-1.62413">
        <ele>107.9</ele>
        <time>2014-12-21T09:11:33Z</time>
      </trkpt>
      <trkpt lat="47.26558" lon="-1.62413">
        <ele>113.1</ele>
        <time>2014-12-21T09:11:35Z</time>
      </trkpt>
      <trkpt lat="47.26565" lon="-1.62409">
        <ele>113.5</ele>
        <time>2014-12-21T09:11:38Z</time>
      </trkpt>
      <trkpt lat="47.26574" lon="-1.62412">
        <ele>116.6</ele>
        <time>2014-12-21T09:11:42Z</time>
      </trkpt>
      <trkpt lat="47.26584" lon="-1.62412">
        <ele>117.5</ele>
        <time>2014-12-21T09:11:46Z</time>
      </trkpt>
      <trkpt lat="47.26592" lon="-1.62405">
        <ele>114.8</ele>
        <time>2014-12-21T09:11:48Z</time>
      </trkpt>
      <trkpt lat="47.266" lon="-1.62404">
        <ele>113</ele>
        <time>2014-12-21T09:11:50Z</time>
      </trkpt>
      <trkpt lat="47.26607" lon="-1.624">
        <ele>113</ele>
        <time>2014-12-21T09:11:52Z</time>
      </trkpt>
      <trkpt lat="47.26616" lon="-1.624">
        <ele>111.5</ele>
        <time>2014-12-21T09:11:54Z</time>
      </trkpt>
      <trkpt lat="47.26623" lon="-1.62403">
        <ele>102</ele>
        <time>2014-12-21T09:11:58Z</time>
      </trkpt>
      <trkpt lat="47.26632" lon="-1.62409">
        <ele>95.5</ele>
        <time>2014-12-21T09:12:02Z</time>
      </trkpt>
      <trkpt lat="47.26638" lon="-1.62419">
        <ele>92.3</ele>
        <time>2014-12-21T09:12:06Z</time>
      </trkpt>
      <trkpt lat="47.26646" lon="-1.62423">
        <ele>91.5</ele>
        <time>2014-12-21T09:12:10Z</time>
      </trkpt>
      <trkpt lat="47.26655" lon="-1.62424">
        <ele>90</ele>
        <time>2014-12-21T09:12:14Z</time>
      </trkpt>
      <trkpt lat="47.26667" lon="-1.62424">
        <ele>89.6</ele>
        <time>2014-12-21T09:12:17Z</time>
      </trkpt>
      <trkpt lat="47.26676" lon="-1.62425">
        <ele>89.6</ele>
        <time>2014-12-21T09:12:19Z</time>
      </trkpt>
      <trkpt lat="47.26686" lon="-1.62432">
        <ele>88.5</ele>
        <time>2014-12-21T09:12:21Z</time>
      </trkpt>
      <trkpt lat="47.26694" lon="-1.6243">
        <ele>87.5</ele>
        <time>2014-12-21T09:12:24Z</time>
      </trkpt>
      <trkpt lat="47.26703" lon="-1.62431">
        <ele>86.3</ele>
        <time>2014-12-21T09:12:27Z</time>
      </trkpt>
      <trkpt lat="47.26711" lon="-1.62428">
        <ele>84.3</ele>
        <time>2014-12-21T09:12:29Z</time>
      </trkpt>
      <trkpt lat="47.26718" lon="-1.62421">
        <ele>81.5</ele>
        <time>2014-12-21T09:12:34Z</time>
      </trkpt>
      <trkpt lat="47.26726" lon="-1.62419">
        <ele>79.8</ele>
        <time>2014-12-21T09:12:37Z</time>
      </trkpt>
      <trkpt lat="47.26733" lon="-1.62422">
        <ele>79</ele>
        <time>2014-12-21T09:12:41Z</time>
      </trkpt>
      <trkpt lat="47.26741" lon="-1.62423">
        <ele>80</ele>
        <time>2014-12-21T09:12:47Z</time>
      </trkpt>
      <trkpt lat="47.26742" lon="-1.62433">
        <ele>88.4</ele>
        <time>2014-12-21T09:12:52Z</time>
      </trkpt>
      <trkpt lat="47.26741" lon="-1.62438">
        <ele>85.5</ele>
        <time>2014-12-21T09:12:59Z</time>
      </trkpt>
      <trkpt lat="47.26743" lon="-1.62437">
        <ele>84.5</ele>
        <time>2014-12-21T09:13:14Z</time>
      </trkpt>
      <trkpt lat="47.2675" lon="-1.62434">
        <ele>80.5</ele>
        <time>2014-12-21T09:13:47Z</time>
      </trkpt>
      <trkpt lat="47.26751" lon="-1.62437">
        <ele>78.3</ele>
        <time>2014-12-21T09:15:10Z</time>
      </trkpt>
      <trkpt lat="47.26755" lon="-1.62437">
        <ele>78.9</ele>
        <time>2014-12-21T09:15:17Z</time>
      </trkpt>
      <trkpt lat="47.26747" lon="-1.6244">
        <ele>75.5</ele>
        <time>2014-12-21T09:16:45Z</time>
      </trkpt>
      <trkpt lat="47.26744" lon="-1.62452">
        <ele>75.8</ele>
        <time>2014-12-21T09:16:48Z</time>
      </trkpt>
      <trkpt lat="47.26745" lon="-1.62464">
        <ele>78.4</ele>
        <time>2014-12-21T09:16:51Z</time>
      </trkpt>
      <trkpt lat="47.26741" lon="-1.62478">
        <ele>80.4</ele>
        <time>2014-12-21T09:16:54Z</time>
      </trkpt>
      <trkpt lat="47.26739" lon="-1.62488">
        <ele>84</ele>
        <time>2014-12-21T09:16:58Z</time>
      </trkpt>
      <trkpt lat="47.26741" lon="-1.625">
        <ele>85.6</ele>
        <time>2014-12-21T09:17:01Z</time>
      </trkpt>
      <trkpt lat="47.26743" lon="-1.62511">
        <ele>84.9</ele>
        <time>2014-12-21T09:17:03Z</time>
      </trkpt>
      <trkpt lat="47.26743" lon="-1.62525">
        <ele>84</ele>
        <time>2014-12-21T09:17:07Z</time>
      </trkpt>
      <trkpt lat="47.26741" lon="-1.62537">
        <ele>84.9</ele>
        <time>2014-12-21T09:17:11Z</time>
      </trkpt>
      <trkpt lat="47.26742" lon="-1.6255">
        <ele>90</ele>
        <time>2014-12-21T09:17:15Z</time>
      </trkpt>
      <trkpt lat="47.26743" lon="-1.62561">
        <ele>94.6</ele>
        <time>2014-12-21T09:17:18Z</time>
      </trkpt>
      <trkpt lat="47.26743" lon="-1.62575">
        <ele>95</ele>
        <time>2014-12-21T09:17:22Z</time>
      </trkpt>
      <trkpt lat="47.26742" lon="-1.62587">
        <ele>98</ele>
        <time>2014-12-21T09:17:27Z</time>
      </trkpt>
      <trkpt lat="47.26742" lon="-1.626">
        <ele>97.5</ele>
        <time>2014-12-21T09:17:30Z</time>
      </trkpt>
      <trkpt lat="47.26741" lon="-1.62611">
        <ele>94.5</ele>
        <time>2014-12-21T09:17:33Z</time>
      </trkpt>
      <trkpt lat="47.26743" lon="-1.62622">
        <ele>91.9</ele>
        <time>2014-12-21T09:17:35Z</time>
      </trkpt>
      <trkpt lat="47.26746" lon="-1.62636">
        <ele>98.6</ele>
        <time>2014-12-21T09:17:40Z</time>
      </trkpt>
      <trkpt lat="47.26748" lon="-1.62646">
        <ele>98</ele>
        <time>2014-12-21T09:17:43Z</time>
      </trkpt>
      <trkpt lat="47.26748" lon="-1.62659">
        <ele>95.4</ele>
        <time>2014-12-21T09:17:46Z</time>
      </trkpt>
      <trkpt lat="47.2675" lon="-1.62673">
        <ele>92.3</ele>
        <time>2014-12-21T09:17:49Z</time>
      </trkpt>
      <trkpt lat="47.2675" lon="-1.62686">
        <ele>90.9</ele>
        <time>2014-12-21T09:17:53Z</time>
      </trkpt>
      <trkpt lat="47.26745" lon="-1.6269">
        <ele>93</ele>
        <time>2014-12-21T09:18:00Z</time>
      </trkpt>
      <trkpt lat="47.26749" lon="-1.62704">
        <ele>91.1</ele>
        <time>2014-12-21T09:18:06Z</time>
      </trkpt>
      <trkpt lat="47.26754" lon="-1.62716">
        <ele>91</ele>
        <time>2014-12-21T09:18:08Z</time>
      </trkpt>
      <trkpt lat="47.26754" lon="-1.62728">
        <ele>86.8</ele>
        <time>2014-12-21T09:18:10Z</time>
      </trkpt>
      <trkpt lat="47.26755" lon="-1.62742">
        <ele>83.4</ele>
        <time>2014-12-21T09:18:13Z</time>
      </trkpt>
      <trkpt lat="47.26756" lon="-1.62755">
        <ele>79.8</ele>
        <time>2014-12-21T09:18:16Z</time>
      </trkpt>
      <trkpt lat="47.26758" lon="-1.62767">
        <ele>79.4</ele>
        <time>2014-12-21T09:18:20Z</time>
      </trkpt>
      <trkpt lat="47.26758" lon="-1.62778">
        <ele>79</ele>
        <time>2014-12-21T09:18:22Z</time>
      </trkpt>
      <trkpt lat="47.26759" lon="-1.62789">
        <ele>79.5</ele>
        <time>2014-12-21T09:18:24Z</time>
      </trkpt>
      <trkpt lat="47.26758" lon="-1.62801">
        <ele>73.5</ele>
        <time>2014-12-21T09:18:27Z</time>
      </trkpt>
      <trkpt lat="47.26756" lon="-1.62813">
        <ele>76.8</ele>
        <time>2014-12-21T09:18:30Z</time>
      </trkpt>
      <trkpt lat="47.26758" lon="-1.62824">
        <ele>79.5</ele>
        <time>2014-12-21T09:18:33Z</time>
      </trkpt>
      <trkpt lat="47.26758" lon="-1.62835">
        <ele>78.8</ele>
        <time>2014-12-21T09:18:36Z</time>
      </trkpt>
      <trkpt lat="47.26762" lon="-1.6285">
        <ele>76.5</ele>
        <time>2014-12-21T09:18:39Z</time>
      </trkpt>
      <trkpt lat="47.2676" lon="-1.62863">
        <ele>79.5</ele>
        <time>2014-12-21T09:18:43Z</time>
      </trkpt>
      <trkpt lat="47.26759" lon="-1.62874">
        <ele>78.9</ele>
        <time>2014-12-21T09:18:45Z</time>
      </trkpt>
      <trkpt lat="47.26759" lon="-1.62886">
        <ele>77</ele>
        <time>2014-12-21T09:18:48Z</time>
      </trkpt>
      <trkpt lat="47.26756" lon="-1.62898">
        <ele>76.1</ele>
        <time>2014-12-21T09:18:52Z</time>
      </trkpt>
      <trkpt lat="47.26753" lon="-1.62907">
        <ele>77.1</ele>
        <time>2014-12-21T09:18:55Z</time>
      </trkpt>
      <trkpt lat="47.26748" lon="-1.62917">
        <ele>80.4</ele>
        <time>2014-12-21T09:19:00Z</time>
      </trkpt>
      <trkpt lat="47.26744" lon="-1.62926">
        <ele>82.4</ele>
        <time>2014-12-21T09:19:03Z</time>
      </trkpt>
      <trkpt lat="47.26743" lon="-1.62937">
        <ele>83.3</ele>
        <time>2014-12-21T09:19:05Z</time>
      </trkpt>
      <trkpt lat="47.26743" lon="-1.6295">
        <ele>82.3</ele>
        <time>2014-12-21T09:19:07Z</time>
      </trkpt>
      <trkpt lat="47.26744" lon="-1.62961">
        <ele>82</ele>
        <time>2014-12-21T09:19:09Z</time>
      </trkpt>
      <trkpt lat="47.26745" lon="-1.62973">
        <ele>81.9</ele>
        <time>2014-12-21T09:19:11Z</time>
      </trkpt>
      <trkpt lat="47.26744" lon="-1.62979">
        <ele>86.9</ele>
        <time>2014-12-21T09:19:18Z</time>
      </trkpt>
      <trkpt lat="47.2674" lon="-1.62975">
        <ele>81</ele>
        <time>2014-12-21T09:19:25Z</time>
      </trkpt>
      <trkpt lat="47.26738" lon="-1.62989">
        <ele>81.8</ele>
        <time>2014-12-21T09:19:30Z</time>
      </trkpt>
      <trkpt lat="47.26735" lon="-1.63002">
        <ele>79.5</ele>
        <time>2014-12-21T09:19:32Z</time>
      </trkpt>
      <trkpt lat="47.26732" lon="-1.63014">
        <ele>80.8</ele>
        <time>2014-12-21T09:19:35Z</time>
      </trkpt>
      <trkpt lat="47.26738" lon="-1.63022">
        <ele>85.8</ele>
        <time>2014-12-21T09:19:39Z</time>
      </trkpt>
      <trkpt lat="47.26744" lon="-1.6303">
        <ele>85.5</ele>
        <time>2014-12-21T09:19:43Z</time>
      </trkpt>
      <trkpt lat="47.26751" lon="-1.63042">
        <ele>85.3</ele>
        <time>2014-12-21T09:19:45Z</time>
      </trkpt>
      <trkpt lat="47.26758" lon="-1.63049">
        <ele>86.3</ele>
        <time>2014-12-21T09:19:47Z</time>
      </trkpt>
      <trkpt lat="47.26763" lon="-1.63062">
        <ele>90.8</ele>
        <time>2014-12-21T09:19:50Z</time>
      </trkpt>
      <trkpt lat="47.2677" lon="-1.63066">
        <ele>96.1</ele>
        <time>2014-12-21T09:19:54Z</time>
      </trkpt>
      <trkpt lat="47.2678" lon="-1.6307">
        <ele>93.9</ele>
        <time>2014-12-21T09:19:58Z</time>
      </trkpt>
      <trkpt lat="47.2679" lon="-1.63068">
        <ele>93</ele>
        <time>2014-12-21T09:20:02Z</time>
      </trkpt>
      <trkpt lat="47.26795" lon="-1.63077">
        <ele>81.1</ele>
        <time>2014-12-21T09:20:09Z</time>
      </trkpt>
      <trkpt lat="47.26801" lon="-1.63082">
        <ele>79.4</ele>
        <time>2014-12-21T09:20:12Z</time>
      </trkpt>
      <trkpt lat="47.26802" lon="-1.63097">
        <ele>79</ele>
        <time>2014-12-21T09:20:15Z</time>
      </trkpt>
      <trkpt lat="47.26806" lon="-1.63107">
        <ele>73.8</ele>
        <time>2014-12-21T09:20:20Z</time>
      </trkpt>
      <trkpt lat="47.26809" lon="-1.63097">
        <ele>78.8</ele>
        <time>2014-12-21T09:20:25Z</time>
      </trkpt>
      <trkpt lat="47.26813" lon="-1.63092">
        <ele>80.1</ele>
        <time>2014-12-21T09:20:32Z</time>
      </trkpt>
      <trkpt lat="47.26813" lon="-1.63073">
        <ele>79</ele>
        <time>2014-12-21T09:20:35Z</time>
      </trkpt>
      <trkpt lat="47.26817" lon="-1.63062">
        <ele>82</ele>
        <time>2014-12-21T09:20:37Z</time>
      </trkpt>
      <trkpt lat="47.26816" lon="-1.63052">
        <ele>84.3</ele>
        <time>2014-12-21T09:20:41Z</time>
      </trkpt>
      <trkpt lat="47.2682" lon="-1.63049">
        <ele>78.9</ele>
        <time>2014-12-21T09:20:48Z</time>
      </trkpt>
      <trkpt lat="47.26817" lon="-1.63046">
        <ele>79.5</ele>
        <time>2014-12-21T09:20:55Z</time>
      </trkpt>
      <trkpt lat="47.26827" lon="-1.6305">
        <ele>78</ele>
        <time>2014-12-21T09:21:07Z</time>
      </trkpt>
      <trkpt lat="47.26836" lon="-1.63056">
        <ele>73.5</ele>
        <time>2014-12-21T09:21:10Z</time>
      </trkpt>
      <trkpt lat="47.26845" lon="-1.63063">
        <ele>71.4</ele>
        <time>2014-12-21T09:21:13Z</time>
      </trkpt>
      <trkpt lat="47.26851" lon="-1.63072">
        <ele>76.4</ele>
        <time>2014-12-21T09:21:16Z</time>
      </trkpt>
      <trkpt lat="47.26857" lon="-1.63079">
        <ele>72.5</ele>
        <time>2014-12-21T09:21:19Z</time>
      </trkpt>
      <trkpt lat="47.26864" lon="-1.63085">
        <ele>71.5</ele>
        <time>2014-12-21T09:21:22Z</time>
      </trkpt>
      <trkpt lat="47.26868" lon="-1.63094">
        <ele>68.6</ele>
        <time>2014-12-21T09:21:25Z</time>
      </trkpt>
      <trkpt lat="47.26873" lon="-1.63103">
        <ele>68.8</ele>
        <time>2014-12-21T09:21:29Z</time>
      </trkpt>
      <trkpt lat="47.26875" lon="-1.63117">
        <ele>69.5</ele>
        <time>2014-12-21T09:21:32Z</time>
      </trkpt>
      <trkpt lat="47.26876" lon="-1.63128">
        <ele>70.1</ele>
        <time>2014-12-21T09:21:34Z</time>
      </trkpt>
      <trkpt lat="47.26881" lon="-1.63141">
        <ele>69.6</ele>
        <time>2014-12-21T09:21:37Z</time>
      </trkpt>
      <trkpt lat="47.26886" lon="-1.63153">
        <ele>69.8</ele>
        <time>2014-12-21T09:21:40Z</time>
      </trkpt>
      <trkpt lat="47.2689" lon="-1.63162">
        <ele>69.9</ele>
        <time>2014-12-21T09:21:42Z</time>
      </trkpt>
      <trkpt lat="47.26893" lon="-1.63172">
        <ele>72.6</ele>
        <time>2014-12-21T09:21:45Z</time>
      </trkpt>
      <trkpt lat="47.26893" lon="-1.63184">
        <ele>73.4</ele>
        <time>2014-12-21T09:21:50Z</time>
      </trkpt>
      <trkpt lat="47.26894" lon="-1.63195">
        <ele>75.1</ele>
        <time>2014-12-21T09:21:55Z</time>
      </trkpt>
      <trkpt lat="47.26895" lon="-1.63205">
        <ele>75.5</ele>
        <time>2014-12-21T09:22:02Z</time>
      </trkpt>
      <trkpt lat="47.26894" lon="-1.63205">
        <ele>76.9</ele>
        <time>2014-12-21T09:22:09Z</time>
      </trkpt>
      <trkpt lat="47.26894" lon="-1.63216">
        <ele>80.3</ele>
        <time>2014-12-21T09:22:01Z</time>
      </trkpt>
      <trkpt lat="47.2689" lon="-1.63226">
        <ele>77.3</ele>
        <time>2014-12-21T09:23:09Z</time>
      </trkpt>
      <trkpt lat="47.26887" lon="-1.63237">
        <ele>76</ele>
        <time>2014-12-21T09:23:11Z</time>
      </trkpt>
      <trkpt lat="47.26889" lon="-1.63249">
        <ele>79.1</ele>
        <time>2014-12-21T09:23:14Z</time>
      </trkpt>
      <trkpt lat="47.2689" lon="-1.63262">
        <ele>82.6</ele>
        <time>2014-12-21T09:23:18Z</time>
      </trkpt>
      <trkpt lat="47.26887" lon="-1.63273">
        <ele>85</ele>
        <time>2014-12-21T09:23:21Z</time>
      </trkpt>
      <trkpt lat="47.26885" lon="-1.63286">
        <ele>86.6</ele>
        <time>2014-12-21T09:23:24Z</time>
      </trkpt>
      <trkpt lat="47.26883" lon="-1.633">
        <ele>84.3</ele>
        <time>2014-12-21T09:23:27Z</time>
      </trkpt>
      <trkpt lat="47.26882" lon="-1.63313">
        <ele>83.9</ele>
        <time>2014-12-21T09:23:30Z</time>
      </trkpt>
      <trkpt lat="47.26886" lon="-1.63324">
        <ele>84</ele>
        <time>2014-12-21T09:23:33Z</time>
      </trkpt>
      <trkpt lat="47.26886" lon="-1.63341">
        <ele>89.4</ele>
        <time>2014-12-21T09:23:47Z</time>
      </trkpt>
      <trkpt lat="47.26887" lon="-1.63344">
        <ele>86</ele>
        <time>2014-12-21T09:23:54Z</time>
      </trkpt>
      <trkpt lat="47.26886" lon="-1.63344">
        <ele>85.9</ele>
        <time>2014-12-21T09:24:01Z</time>
      </trkpt>
      <trkpt lat="47.26886" lon="-1.63359">
        <ele>85.9</ele>
        <time>2014-12-21T09:24:17Z</time>
      </trkpt>
      <trkpt lat="47.26883" lon="-1.63368">
        <ele>84.3</ele>
        <time>2014-12-21T09:24:19Z</time>
      </trkpt>
      <trkpt lat="47.26887" lon="-1.6338">
        <ele>88.3</ele>
        <time>2014-12-21T09:24:21Z</time>
      </trkpt>
      <trkpt lat="47.26888" lon="-1.63392">
        <ele>88.5</ele>
        <time>2014-12-21T09:24:23Z</time>
      </trkpt>
      <trkpt lat="47.2689" lon="-1.63404">
        <ele>93.9</ele>
        <time>2014-12-21T09:24:26Z</time>
      </trkpt>
      <trkpt lat="47.26888" lon="-1.63418">
        <ele>94</ele>
        <time>2014-12-21T09:24:28Z</time>
      </trkpt>
      <trkpt lat="47.26888" lon="-1.63432">
        <ele>91.8</ele>
        <time>2014-12-21T09:24:31Z</time>
      </trkpt>
      <trkpt lat="47.26887" lon="-1.63443">
        <ele>88.1</ele>
        <time>2014-12-21T09:24:33Z</time>
      </trkpt>
      <trkpt lat="47.26886" lon="-1.63454">
        <ele>88.3</ele>
        <time>2014-12-21T09:24:36Z</time>
      </trkpt>
      <trkpt lat="47.26886" lon="-1.63468">
        <ele>88.1</ele>
        <time>2014-12-21T09:24:39Z</time>
      </trkpt>
      <trkpt lat="47.26887" lon="-1.63482">
        <ele>89.9</ele>
        <time>2014-12-21T09:24:42Z</time>
      </trkpt>
      <trkpt lat="47.26886" lon="-1.63493">
        <ele>89.4</ele>
        <time>2014-12-21T09:24:46Z</time>
      </trkpt>
      <trkpt lat="47.2689" lon="-1.63502">
        <ele>95</ele>
        <time>2014-12-21T09:24:48Z</time>
      </trkpt>
      <trkpt lat="47.2689" lon="-1.63516">
        <ele>95.4</ele>
        <time>2014-12-21T09:24:52Z</time>
      </trkpt>
      <trkpt lat="47.2689" lon="-1.63527">
        <ele>96.9</ele>
        <time>2014-12-21T09:24:55Z</time>
      </trkpt>
      <trkpt lat="47.26889" lon="-1.6354">
        <ele>98.4</ele>
        <time>2014-12-21T09:24:58Z</time>
      </trkpt>
      <trkpt lat="47.26889" lon="-1.63552">
        <ele>98.4</ele>
        <time>2014-12-21T09:25:02Z</time>
      </trkpt>
      <trkpt lat="47.2689" lon="-1.63564">
        <ele>101</ele>
        <time>2014-12-21T09:25:07Z</time>
      </trkpt>
      <trkpt lat="47.26879" lon="-1.63566">
        <ele>97.8</ele>
        <time>2014-12-21T09:25:10Z</time>
      </trkpt>
      <trkpt lat="47.26876" lon="-1.6358">
        <ele>101.8</ele>
        <time>2014-12-21T09:25:13Z</time>
      </trkpt>
      <trkpt lat="47.26874" lon="-1.63591">
        <ele>102.6</ele>
        <time>2014-12-21T09:25:15Z</time>
      </trkpt>
      <trkpt lat="47.26875" lon="-1.63602">
        <ele>101.9</ele>
        <time>2014-12-21T09:25:18Z</time>
      </trkpt>
      <trkpt lat="47.26877" lon="-1.63615">
        <ele>103</ele>
        <time>2014-12-21T09:25:23Z</time>
      </trkpt>
      <trkpt lat="47.2688" lon="-1.63626">
        <ele>101</ele>
        <time>2014-12-21T09:25:26Z</time>
      </trkpt>
      <trkpt lat="47.26883" lon="-1.63636">
        <ele>99.4</ele>
        <time>2014-12-21T09:25:30Z</time>
      </trkpt>
      <trkpt lat="47.26884" lon="-1.63647">
        <ele>99.8</ele>
        <time>2014-12-21T09:25:34Z</time>
      </trkpt>
      <trkpt lat="47.26883" lon="-1.63661">
        <ele>99.1</ele>
        <time>2014-12-21T09:25:37Z</time>
      </trkpt>
      <trkpt lat="47.26881" lon="-1.63674">
        <ele>96.6</ele>
        <time>2014-12-21T09:25:40Z</time>
      </trkpt>
      <trkpt lat="47.26879" lon="-1.63686">
        <ele>96.4</ele>
        <time>2014-12-21T09:25:43Z</time>
      </trkpt>
      <trkpt lat="47.26875" lon="-1.63699">
        <ele>94.5</ele>
        <time>2014-12-21T09:25:46Z</time>
      </trkpt>
      <trkpt lat="47.26871" lon="-1.63709">
        <ele>96.3</ele>
        <time>2014-12-21T09:25:48Z</time>
      </trkpt>
      <trkpt lat="47.26871" lon="-1.63721">
        <ele>96.8</ele>
        <time>2014-12-21T09:25:51Z</time>
      </trkpt>
      <trkpt lat="47.26869" lon="-1.63733">
        <ele>96.3</ele>
        <time>2014-12-21T09:25:53Z</time>
      </trkpt>
      <trkpt lat="47.26868" lon="-1.63743">
        <ele>94.5</ele>
        <time>2014-12-21T09:25:55Z</time>
      </trkpt>
      <trkpt lat="47.2687" lon="-1.63754">
        <ele>94.4</ele>
        <time>2014-12-21T09:25:57Z</time>
      </trkpt>
      <trkpt lat="47.2687" lon="-1.63766">
        <ele>94.4</ele>
        <time>2014-12-21T09:25:59Z</time>
      </trkpt>
      <trkpt lat="47.2687" lon="-1.63781">
        <ele>95.8</ele>
        <time>2014-12-21T09:26:02Z</time>
      </trkpt>
      <trkpt lat="47.26871" lon="-1.63795">
        <ele>95</ele>
        <time>2014-12-21T09:26:05Z</time>
      </trkpt>
      <trkpt lat="47.26874" lon="-1.63806">
        <ele>100.1</ele>
        <time>2014-12-21T09:26:12Z</time>
      </trkpt>
      <trkpt lat="47.26873" lon="-1.63817">
        <ele>97.5</ele>
        <time>2014-12-21T09:26:17Z</time>
      </trkpt>
      <trkpt lat="47.26869" lon="-1.63824">
        <ele>98.3</ele>
        <time>2014-12-21T09:26:24Z</time>
      </trkpt>
      <trkpt lat="47.26861" lon="-1.6382">
        <ele>99.6</ele>
        <time>2014-12-21T09:26:30Z</time>
      </trkpt>
      <trkpt lat="47.26854" lon="-1.63829">
        <ele>99.8</ele>
        <time>2014-12-21T09:26:33Z</time>
      </trkpt>
      <trkpt lat="47.26847" lon="-1.63838">
        <ele>99.5</ele>
        <time>2014-12-21T09:26:34Z</time>
      </trkpt>
      <trkpt lat="47.26844" lon="-1.63852">
        <ele>104.5</ele>
        <time>2014-12-21T09:26:35Z</time>
      </trkpt>
      <trkpt lat="47.26837" lon="-1.63862">
        <ele>106.9</ele>
        <time>2014-12-21T09:26:37Z</time>
      </trkpt>
      <trkpt lat="47.26829" lon="-1.63869">
        <ele>106.6</ele>
        <time>2014-12-21T09:26:39Z</time>
      </trkpt>
      <trkpt lat="47.26821" lon="-1.6388">
        <ele>102.5</ele>
        <time>2014-12-21T09:26:41Z</time>
      </trkpt>
      <trkpt lat="47.26814" lon="-1.63885">
        <ele>98.9</ele>
        <time>2014-12-21T09:26:43Z</time>
      </trkpt>
      <trkpt lat="47.26805" lon="-1.63895">
        <ele>97.4</ele>
        <time>2014-12-21T09:26:45Z</time>
      </trkpt>
      <trkpt lat="47.26796" lon="-1.63904">
        <ele>93.6</ele>
        <time>2014-12-21T09:26:47Z</time>
      </trkpt>
      <trkpt lat="47.26787" lon="-1.63912">
        <ele>92.1</ele>
        <time>2014-12-21T09:26:49Z</time>
      </trkpt>
      <trkpt lat="47.26778" lon="-1.63921">
        <ele>91.1</ele>
        <time>2014-12-21T09:26:51Z</time>
      </trkpt>
      <trkpt lat="47.26768" lon="-1.63931">
        <ele>89.4</ele>
        <time>2014-12-21T09:26:53Z</time>
      </trkpt>
      <trkpt lat="47.26762" lon="-1.63938">
        <ele>86.5</ele>
        <time>2014-12-21T09:26:55Z</time>
      </trkpt>
      <trkpt lat="47.26754" lon="-1.63931">
        <ele>90.9</ele>
        <time>2014-12-21T09:26:56Z</time>
      </trkpt>
      <trkpt lat="47.26745" lon="-1.63931">
        <ele>93.4</ele>
        <time>2014-12-21T09:26:58Z</time>
      </trkpt>
      <trkpt lat="47.26737" lon="-1.63929">
        <ele>91.5</ele>
        <time>2014-12-21T09:27:00Z</time>
      </trkpt>
      <trkpt lat="47.2673" lon="-1.63932">
        <ele>88.3</ele>
        <time>2014-12-21T09:27:06Z</time>
      </trkpt>
      <trkpt lat="47.26727" lon="-1.63945">
        <ele>86.8</ele>
        <time>2014-12-21T09:27:08Z</time>
      </trkpt>
      <trkpt lat="47.26726" lon="-1.63959">
        <ele>87.1</ele>
        <time>2014-12-21T09:27:10Z</time>
      </trkpt>
      <trkpt lat="47.26725" lon="-1.63973">
        <ele>84.9</ele>
        <time>2014-12-21T09:27:11Z</time>
      </trkpt>
      <trkpt lat="47.26726" lon="-1.63991">
        <ele>82.3</ele>
        <time>2014-12-21T09:27:13Z</time>
      </trkpt>
      <trkpt lat="47.26726" lon="-1.64002">
        <ele>81.9</ele>
        <time>2014-12-21T09:27:15Z</time>
      </trkpt>
      <trkpt lat="47.26721" lon="-1.64009">
        <ele>86.5</ele>
        <time>2014-12-21T09:27:17Z</time>
      </trkpt>
      <trkpt lat="47.26716" lon="-1.64021">
        <ele>91.4</ele>
        <time>2014-12-21T09:27:21Z</time>
      </trkpt>
      <trkpt lat="47.26715" lon="-1.64031">
        <ele>91.4</ele>
        <time>2014-12-21T09:27:24Z</time>
      </trkpt>
      <trkpt lat="47.26713" lon="-1.64042">
        <ele>90</ele>
        <time>2014-12-21T09:27:27Z</time>
      </trkpt>
      <trkpt lat="47.26708" lon="-1.64052">
        <ele>91.8</ele>
        <time>2014-12-21T09:27:30Z</time>
      </trkpt>
      <trkpt lat="47.26704" lon="-1.6406">
        <ele>94</ele>
        <time>2014-12-21T09:27:34Z</time>
      </trkpt>
      <trkpt lat="47.26698" lon="-1.64068">
        <ele>96.9</ele>
        <time>2014-12-21T09:27:40Z</time>
      </trkpt>
      <trkpt lat="47.26696" lon="-1.6408">
        <ele>97.8</ele>
        <time>2014-12-21T09:27:43Z</time>
      </trkpt>
      <trkpt lat="47.26689" lon="-1.6409">
        <ele>102.1</ele>
        <time>2014-12-21T09:27:47Z</time>
      </trkpt>
      <trkpt lat="47.26681" lon="-1.64093">
        <ele>100.1</ele>
        <time>2014-12-21T09:27:53Z</time>
      </trkpt>
      <trkpt lat="47.26675" lon="-1.641">
        <ele>102</ele>
        <time>2014-12-21T09:27:58Z</time>
      </trkpt>
      <trkpt lat="47.26673" lon="-1.64111">
        <ele>99</ele>
        <time>2014-12-21T09:28:05Z</time>
      </trkpt>
      <trkpt lat="47.26666" lon="-1.64116">
        <ele>97.5</ele>
        <time>2014-12-21T09:28:11Z</time>
      </trkpt>
      <trkpt lat="47.26659" lon="-1.6412">
        <ele>94.6</ele>
        <time>2014-12-21T09:28:17Z</time>
      </trkpt>
      <trkpt lat="47.26654" lon="-1.64121">
        <ele>96.1</ele>
        <time>2014-12-21T09:28:31Z</time>
      </trkpt>
      <trkpt lat="47.26646" lon="-1.6412">
        <ele>103.5</ele>
        <time>2014-12-21T09:28:36Z</time>
      </trkpt>
      <trkpt lat="47.26638" lon="-1.6412">
        <ele>105.3</ele>
        <time>2014-12-21T09:28:41Z</time>
      </trkpt>
      <trkpt lat="47.26631" lon="-1.64115">
        <ele>105.5</ele>
        <time>2014-12-21T09:28:46Z</time>
      </trkpt>
      <trkpt lat="47.26622" lon="-1.64118">
        <ele>98.1</ele>
        <time>2014-12-21T09:28:49Z</time>
      </trkpt>
      <trkpt lat="47.26614" lon="-1.64112">
        <ele>98.3</ele>
        <time>2014-12-21T09:28:54Z</time>
      </trkpt>
      <trkpt lat="47.26607" lon="-1.64105">
        <ele>106.5</ele>
        <time>2014-12-21T09:29:01Z</time>
      </trkpt>
      <trkpt lat="47.26605" lon="-1.64099">
        <ele>113</ele>
        <time>2014-12-21T09:29:08Z</time>
      </trkpt>
      <trkpt lat="47.26597" lon="-1.64097">
        <ele>114.1</ele>
        <time>2014-12-21T09:29:12Z</time>
      </trkpt>
      <trkpt lat="47.26586" lon="-1.64094">
        <ele>111.8</ele>
        <time>2014-12-21T09:29:16Z</time>
      </trkpt>
      <trkpt lat="47.26579" lon="-1.64091">
        <ele>111.8</ele>
        <time>2014-12-21T09:29:20Z</time>
      </trkpt>
      <trkpt lat="47.26571" lon="-1.64094">
        <ele>109</ele>
        <time>2014-12-21T09:29:25Z</time>
      </trkpt>
      <trkpt lat="47.26564" lon="-1.6409">
        <ele>108.5</ele>
        <time>2014-12-21T09:29:31Z</time>
      </trkpt>
      <trkpt lat="47.26556" lon="-1.6409">
        <ele>107.3</ele>
        <time>2014-12-21T09:29:37Z</time>
      </trkpt>
      <trkpt lat="47.26549" lon="-1.64093">
        <ele>104.4</ele>
        <time>2014-12-21T09:29:41Z</time>
      </trkpt>
      <trkpt lat="47.2654" lon="-1.64088">
        <ele>107.5</ele>
        <time>2014-12-21T09:29:46Z</time>
      </trkpt>
      <trkpt lat="47.26532" lon="-1.64087">
        <ele>109.4</ele>
        <time>2014-12-21T09:29:50Z</time>
      </trkpt>
      <trkpt lat="47.26524" lon="-1.64086">
        <ele>108.3</ele>
        <time>2014-12-21T09:29:53Z</time>
      </trkpt>
      <trkpt lat="47.26518" lon="-1.64082">
        <ele>112.3</ele>
        <time>2014-12-21T09:29:58Z</time>
      </trkpt>
      <trkpt lat="47.2651" lon="-1.64077">
        <ele>111.9</ele>
        <time>2014-12-21T09:30:01Z</time>
      </trkpt>
      <trkpt lat="47.26503" lon="-1.64071">
        <ele>111.9</ele>
        <time>2014-12-21T09:30:06Z</time>
      </trkpt>
      <trkpt lat="47.26496" lon="-1.64063">
        <ele>111.1</ele>
        <time>2014-12-21T09:30:10Z</time>
      </trkpt>
      <trkpt lat="47.26489" lon="-1.64059">
        <ele>110.6</ele>
        <time>2014-12-21T09:30:13Z</time>
      </trkpt>
      <trkpt lat="47.26482" lon="-1.64054">
        <ele>109</ele>
        <time>2014-12-21T09:30:17Z</time>
      </trkpt>
      <trkpt lat="47.2648" lon="-1.64053">
        <ele>107.9</ele>
        <time>2014-12-21T09:30:24Z</time>
      </trkpt>
      <trkpt lat="47.26479" lon="-1.64054">
        <ele>106.8</ele>
        <time>2014-12-21T09:30:47Z</time>
      </trkpt>
      <trkpt lat="47.26477" lon="-1.64056">
        <ele>104.9</ele>
        <time>2014-12-21T09:31:38Z</time>
      </trkpt>
      <trkpt lat="47.26477" lon="-1.64057">
        <ele>104.9</ele>
        <time>2014-12-21T09:31:45Z</time>
      </trkpt>
      <trkpt lat="47.26477" lon="-1.64059">
        <ele>104.3</ele>
        <time>2014-12-21T09:31:52Z</time>
      </trkpt>
      <trkpt lat="47.26477" lon="-1.64057">
        <ele>105.4</ele>
        <time>2014-12-21T09:32:21Z</time>
      </trkpt>
      <trkpt lat="47.26475" lon="-1.64057">
        <ele>105.5</ele>
        <time>2014-12-21T09:32:30Z</time>
      </trkpt>
      <trkpt lat="47.26474" lon="-1.64053">
        <ele>101.3</ele>
        <time>2014-12-21T09:33:11Z</time>
      </trkpt>
      <trkpt lat="47.26473" lon="-1.64052">
        <ele>104.5</ele>
        <time>2014-12-21T09:33:18Z</time>
      </trkpt>
      <trkpt lat="47.26473" lon="-1.64052">
        <ele>105.4</ele>
        <time>2014-12-21T09:33:25Z</time>
      </trkpt>
      <trkpt lat="47.26472" lon="-1.64056">
        <ele>101.4</ele>
        <time>2014-12-21T09:34:22Z</time>
      </trkpt>
      <trkpt lat="47.26471" lon="-1.6405">
        <ele>105.3</ele>
        <time>2014-12-21T09:35:48Z</time>
      </trkpt>
      <trkpt lat="47.26464" lon="-1.64059">
        <ele>104.1</ele>
        <time>2014-12-21T09:35:53Z</time>
      </trkpt>
      <trkpt lat="47.26456" lon="-1.64066">
        <ele>104.3</ele>
        <time>2014-12-21T09:35:57Z</time>
      </trkpt>
      <trkpt lat="47.26452" lon="-1.64077">
        <ele>104</ele>
        <time>2014-12-21T09:36:01Z</time>
      </trkpt>
      <trkpt lat="47.26445" lon="-1.64086">
        <ele>105.3</ele>
        <time>2014-12-21T09:36:05Z</time>
      </trkpt>
      <trkpt lat="47.2644" lon="-1.64097">
        <ele>107.4</ele>
        <time>2014-12-21T09:36:08Z</time>
      </trkpt>
      <trkpt lat="47.26434" lon="-1.64107">
        <ele>109.5</ele>
        <time>2014-12-21T09:36:10Z</time>
      </trkpt>
      <trkpt lat="47.26427" lon="-1.64121">
        <ele>108.8</ele>
        <time>2014-12-21T09:36:12Z</time>
      </trkpt>
      <trkpt lat="47.26419" lon="-1.64132">
        <ele>108</ele>
        <time>2014-12-21T09:36:14Z</time>
      </trkpt>
      <trkpt lat="47.26413" lon="-1.64144">
        <ele>108.6</ele>
        <time>2014-12-21T09:36:16Z</time>
      </trkpt>
      <trkpt lat="47.26406" lon="-1.64155">
        <ele>107.9</ele>
        <time>2014-12-21T09:36:18Z</time>
      </trkpt>
      <trkpt lat="47.26399" lon="-1.64165">
        <ele>107</ele>
        <time>2014-12-21T09:36:20Z</time>
      </trkpt>
      <trkpt lat="47.26392" lon="-1.64173">
        <ele>106.5</ele>
        <time>2014-12-21T09:36:22Z</time>
      </trkpt>
      <trkpt lat="47.26385" lon="-1.64181">
        <ele>106.9</ele>
        <time>2014-12-21T09:36:24Z</time>
      </trkpt>
      <trkpt lat="47.26382" lon="-1.64194">
        <ele>104</ele>
        <time>2014-12-21T09:36:26Z</time>
      </trkpt>
      <trkpt lat="47.26377" lon="-1.64205">
        <ele>102.4</ele>
        <time>2014-12-21T09:36:28Z</time>
      </trkpt>
      <trkpt lat="47.26373" lon="-1.64218">
        <ele>101.4</ele>
        <time>2014-12-21T09:36:30Z</time>
      </trkpt>
      <trkpt lat="47.26368" lon="-1.64228">
        <ele>103.8</ele>
        <time>2014-12-21T09:36:33Z</time>
      </trkpt>
      <trkpt lat="47.26366" lon="-1.64239">
        <ele>101.5</ele>
        <time>2014-12-21T09:36:37Z</time>
      </trkpt>
      <trkpt lat="47.26367" lon="-1.64249">
        <ele>101.9</ele>
        <time>2014-12-21T09:36:44Z</time>
      </trkpt>
      <trkpt lat="47.26372" lon="-1.64258">
        <ele>100.9</ele>
        <time>2014-12-21T09:36:46Z</time>
      </trkpt>
      <trkpt lat="47.26379" lon="-1.64269">
        <ele>99.1</ele>
        <time>2014-12-21T09:36:48Z</time>
      </trkpt>
      <trkpt lat="47.26385" lon="-1.64282">
        <ele>100.5</ele>
        <time>2014-12-21T09:36:50Z</time>
      </trkpt>
      <trkpt lat="47.26393" lon="-1.64292">
        <ele>100.5</ele>
        <time>2014-12-21T09:36:52Z</time>
      </trkpt>
      <trkpt lat="47.26401" lon="-1.64301">
        <ele>100.6</ele>
        <time>2014-12-21T09:36:54Z</time>
      </trkpt>
      <trkpt lat="47.26408" lon="-1.64311">
        <ele>101</ele>
        <time>2014-12-21T09:36:56Z</time>
      </trkpt>
      <trkpt lat="47.26415" lon="-1.64323">
        <ele>103</ele>
        <time>2014-12-21T09:36:58Z</time>
      </trkpt>
      <trkpt lat="47.26425" lon="-1.64329">
        <ele>101</ele>
        <time>2014-12-21T09:37:00Z</time>
      </trkpt>
      <trkpt lat="47.26434" lon="-1.64329">
        <ele>101.5</ele>
        <time>2014-12-21T09:37:02Z</time>
      </trkpt>
      <trkpt lat="47.26442" lon="-1.64328">
        <ele>100.3</ele>
        <time>2014-12-21T09:37:04Z</time>
      </trkpt>
      <trkpt lat="47.26449" lon="-1.64332">
        <ele>100</ele>
        <time>2014-12-21T09:37:06Z</time>
      </trkpt>
      <trkpt lat="47.26456" lon="-1.64339">
        <ele>100.5</ele>
        <time>2014-12-21T09:37:08Z</time>
      </trkpt>
      <trkpt lat="47.26466" lon="-1.64343">
        <ele>101.3</ele>
        <time>2014-12-21T09:37:11Z</time>
      </trkpt>
      <trkpt lat="47.26474" lon="-1.64346">
        <ele>100.9</ele>
        <time>2014-12-21T09:37:13Z</time>
      </trkpt>
      <trkpt lat="47.26483" lon="-1.6435">
        <ele>100.8</ele>
        <time>2014-12-21T09:37:15Z</time>
      </trkpt>
      <trkpt lat="47.26488" lon="-1.64358">
        <ele>99.9</ele>
        <time>2014-12-21T09:37:17Z</time>
      </trkpt>
      <trkpt lat="47.26486" lon="-1.64371">
        <ele>101</ele>
        <time>2014-12-21T09:37:19Z</time>
      </trkpt>
      <trkpt lat="47.26489" lon="-1.64371">
        <ele>99.9</ele>
        <time>2014-12-21T09:37:26Z</time>
      </trkpt>
      <trkpt lat="47.26488" lon="-1.6436">
        <ele>100.6</ele>
        <time>2014-12-21T09:37:29Z</time>
      </trkpt>
      <trkpt lat="47.26483" lon="-1.6435">
        <ele>102.8</ele>
        <time>2014-12-21T09:37:32Z</time>
      </trkpt>
      <trkpt lat="47.26477" lon="-1.64343">
        <ele>103</ele>
        <time>2014-12-21T09:37:38Z</time>
      </trkpt>
      <trkpt lat="47.26468" lon="-1.64341">
        <ele>102.4</ele>
        <time>2014-12-21T09:37:42Z</time>
      </trkpt>
      <trkpt lat="47.26461" lon="-1.64338">
        <ele>101.3</ele>
        <time>2014-12-21T09:37:44Z</time>
      </trkpt>
      <trkpt lat="47.26453" lon="-1.6433">
        <ele>101.1</ele>
        <time>2014-12-21T09:37:47Z</time>
      </trkpt>
      <trkpt lat="47.26442" lon="-1.64326">
        <ele>100.8</ele>
        <time>2014-12-21T09:37:50Z</time>
      </trkpt>
      <trkpt lat="47.26435" lon="-1.64327">
        <ele>100.1</ele>
        <time>2014-12-21T09:37:52Z</time>
      </trkpt>
      <trkpt lat="47.26427" lon="-1.64323">
        <ele>100.8</ele>
        <time>2014-12-21T09:37:55Z</time>
      </trkpt>
      <trkpt lat="47.2643" lon="-1.64312">
        <ele>101.1</ele>
        <time>2014-12-21T09:37:59Z</time>
      </trkpt>
      <trkpt lat="47.26437" lon="-1.643">
        <ele>100.6</ele>
        <time>2014-12-21T09:38:02Z</time>
      </trkpt>
      <trkpt lat="47.26442" lon="-1.64291">
        <ele>101.5</ele>
        <time>2014-12-21T09:38:04Z</time>
      </trkpt>
      <trkpt lat="47.26449" lon="-1.64284">
        <ele>102.5</ele>
        <time>2014-12-21T09:38:06Z</time>
      </trkpt>
      <trkpt lat="47.26457" lon="-1.64278">
        <ele>100.5</ele>
        <time>2014-12-21T09:38:08Z</time>
      </trkpt>
      <trkpt lat="47.26466" lon="-1.64271">
        <ele>98.9</ele>
        <time>2014-12-21T09:38:10Z</time>
      </trkpt>
      <trkpt lat="47.26476" lon="-1.64269">
        <ele>98.1</ele>
        <time>2014-12-21T09:38:12Z</time>
      </trkpt>
      <trkpt lat="47.26484" lon="-1.64269">
        <ele>98.3</ele>
        <time>2014-12-21T09:38:14Z</time>
      </trkpt>
      <trkpt lat="47.26493" lon="-1.64268">
        <ele>97.8</ele>
        <time>2014-12-21T09:38:16Z</time>
      </trkpt>
      <trkpt lat="47.26504" lon="-1.64264">
        <ele>99.6</ele>
        <time>2014-12-21T09:38:19Z</time>
      </trkpt>
      <trkpt lat="47.26516" lon="-1.64265">
        <ele>99.3</ele>
        <time>2014-12-21T09:38:21Z</time>
      </trkpt>
      <trkpt lat="47.26524" lon="-1.64265">
        <ele>100</ele>
        <time>2014-12-21T09:38:23Z</time>
      </trkpt>
      <trkpt lat="47.26536" lon="-1.64265">
        <ele>98.6</ele>
        <time>2014-12-21T09:38:25Z</time>
      </trkpt>
      <trkpt lat="47.26549" lon="-1.64269">
        <ele>97.9</ele>
        <time>2014-12-21T09:38:27Z</time>
      </trkpt>
      <trkpt lat="47.26557" lon="-1.64271">
        <ele>99.1</ele>
        <time>2014-12-21T09:38:29Z</time>
      </trkpt>
      <trkpt lat="47.26565" lon="-1.64277">
        <ele>98.5</ele>
        <time>2014-12-21T09:38:31Z</time>
      </trkpt>
      <trkpt lat="47.26573" lon="-1.64278">
        <ele>96.8</ele>
        <time>2014-12-21T09:38:33Z</time>
      </trkpt>
      <trkpt lat="47.26583" lon="-1.64279">
        <ele>96.9</ele>
        <time>2014-12-21T09:38:35Z</time>
      </trkpt>
      <trkpt lat="47.26593" lon="-1.64285">
        <ele>95.5</ele>
        <time>2014-12-21T09:38:37Z</time>
      </trkpt>
      <trkpt lat="47.266" lon="-1.64283">
        <ele>96.9</ele>
        <time>2014-12-21T09:38:38Z</time>
      </trkpt>
      <trkpt lat="47.26607" lon="-1.64283">
        <ele>96.3</ele>
        <time>2014-12-21T09:38:39Z</time>
      </trkpt>
      <trkpt lat="47.26615" lon="-1.6428">
        <ele>95.8</ele>
        <time>2014-12-21T09:38:40Z</time>
      </trkpt>
      <trkpt lat="47.26629" lon="-1.64282">
        <ele>95.1</ele>
        <time>2014-12-21T09:38:42Z</time>
      </trkpt>
      <trkpt lat="47.26642" lon="-1.64273">
        <ele>94.9</ele>
        <time>2014-12-21T09:38:44Z</time>
      </trkpt>
      <trkpt lat="47.26651" lon="-1.64268">
        <ele>95</ele>
        <time>2014-12-21T09:38:46Z</time>
      </trkpt>
      <trkpt lat="47.26658" lon="-1.64268">
        <ele>92.3</ele>
        <time>2014-12-21T09:38:47Z</time>
      </trkpt>
      <trkpt lat="47.26672" lon="-1.64263">
        <ele>90.5</ele>
        <time>2014-12-21T09:38:49Z</time>
      </trkpt>
      <trkpt lat="47.26681" lon="-1.64264">
        <ele>90.1</ele>
        <time>2014-12-21T09:38:51Z</time>
      </trkpt>
      <trkpt lat="47.26689" lon="-1.64264">
        <ele>90</ele>
        <time>2014-12-21T09:38:53Z</time>
      </trkpt>
      <trkpt lat="47.26699" lon="-1.64264">
        <ele>89.1</ele>
        <time>2014-12-21T09:38:55Z</time>
      </trkpt>
      <trkpt lat="47.26707" lon="-1.64262">
        <ele>88</ele>
        <time>2014-12-21T09:38:56Z</time>
      </trkpt>
      <trkpt lat="47.26716" lon="-1.64263">
        <ele>90.1</ele>
        <time>2014-12-21T09:38:58Z</time>
      </trkpt>
      <trkpt lat="47.26724" lon="-1.64272">
        <ele>90</ele>
        <time>2014-12-21T09:39:00Z</time>
      </trkpt>
      <trkpt lat="47.26735" lon="-1.64272">
        <ele>86.1</ele>
        <time>2014-12-21T09:39:02Z</time>
      </trkpt>
      <trkpt lat="47.26744" lon="-1.64271">
        <ele>87.3</ele>
        <time>2014-12-21T09:39:04Z</time>
      </trkpt>
      <trkpt lat="47.26752" lon="-1.64273">
        <ele>88.5</ele>
        <time>2014-12-21T09:39:06Z</time>
      </trkpt>
      <trkpt lat="47.26763" lon="-1.64275">
        <ele>91.5</ele>
        <time>2014-12-21T09:39:08Z</time>
      </trkpt>
      <trkpt lat="47.26771" lon="-1.64279">
        <ele>93.3</ele>
        <time>2014-12-21T09:39:11Z</time>
      </trkpt>
      <trkpt lat="47.26781" lon="-1.64281">
        <ele>91.1</ele>
        <time>2014-12-21T09:39:13Z</time>
      </trkpt>
      <trkpt lat="47.26789" lon="-1.64284">
        <ele>91.5</ele>
        <time>2014-12-21T09:39:15Z</time>
      </trkpt>
      <trkpt lat="47.26799" lon="-1.64277">
        <ele>91.4</ele>
        <time>2014-12-21T09:39:18Z</time>
      </trkpt>
      <trkpt lat="47.26807" lon="-1.6428">
        <ele>93</ele>
        <time>2014-12-21T09:39:20Z</time>
      </trkpt>
      <trkpt lat="47.26818" lon="-1.64286">
        <ele>95.3</ele>
        <time>2014-12-21T09:39:23Z</time>
      </trkpt>
      <trkpt lat="47.26824" lon="-1.64294">
        <ele>100.1</ele>
        <time>2014-12-21T09:39:27Z</time>
      </trkpt>
      <trkpt lat="47.26827" lon="-1.64305">
        <ele>101.5</ele>
        <time>2014-12-21T09:39:29Z</time>
      </trkpt>
      <trkpt lat="47.26831" lon="-1.64316">
        <ele>101.5</ele>
        <time>2014-12-21T09:39:32Z</time>
      </trkpt>
      <trkpt lat="47.26836" lon="-1.64324">
        <ele>99</ele>
        <time>2014-12-21T09:39:34Z</time>
      </trkpt>
      <trkpt lat="47.26839" lon="-1.64337">
        <ele>104.1</ele>
        <time>2014-12-21T09:39:37Z</time>
      </trkpt>
      <trkpt lat="47.26843" lon="-1.64349">
        <ele>106</ele>
        <time>2014-12-21T09:39:41Z</time>
      </trkpt>
      <trkpt lat="47.26849" lon="-1.64363">
        <ele>104.3</ele>
        <time>2014-12-21T09:39:43Z</time>
      </trkpt>
      <trkpt lat="47.26849" lon="-1.64374">
        <ele>103.6</ele>
        <time>2014-12-21T09:39:45Z</time>
      </trkpt>
      <trkpt lat="47.26853" lon="-1.64385">
        <ele>103</ele>
        <time>2014-12-21T09:39:47Z</time>
      </trkpt>
      <trkpt lat="47.2686" lon="-1.64396">
        <ele>104.5</ele>
        <time>2014-12-21T09:39:50Z</time>
      </trkpt>
      <trkpt lat="47.26866" lon="-1.64406">
        <ele>103.5</ele>
        <time>2014-12-21T09:39:52Z</time>
      </trkpt>
      <trkpt lat="47.2687" lon="-1.64415">
        <ele>100.6</ele>
        <time>2014-12-21T09:39:55Z</time>
      </trkpt>
      <trkpt lat="47.2687" lon="-1.64416">
        <ele>100.4</ele>
        <time>2014-12-21T09:40:02Z</time>
      </trkpt>
      <trkpt lat="47.26873" lon="-1.64423">
        <ele>101</ele>
        <time>2014-12-21T09:40:14Z</time>
      </trkpt>
      <trkpt lat="47.26873" lon="-1.64425">
        <ele>100.5</ele>
        <time>2014-12-21T09:40:30Z</time>
      </trkpt>
      <trkpt lat="47.26879" lon="-1.64437">
        <ele>98.5</ele>
        <time>2014-12-21T09:41:19Z</time>
      </trkpt>
      <trkpt lat="47.26881" lon="-1.64451">
        <ele>97.5</ele>
        <time>2014-12-21T09:41:23Z</time>
      </trkpt>
      <trkpt lat="47.26881" lon="-1.64464">
        <ele>96.5</ele>
        <time>2014-12-21T09:41:26Z</time>
      </trkpt>
      <trkpt lat="47.26882" lon="-1.64476">
        <ele>109.6</ele>
        <time>2014-12-21T09:41:33Z</time>
      </trkpt>
      <trkpt lat="47.26889" lon="-1.64482">
        <ele>113.5</ele>
        <time>2014-12-21T09:41:37Z</time>
      </trkpt>
      <trkpt lat="47.26896" lon="-1.6448">
        <ele>112</ele>
        <time>2014-12-21T09:41:39Z</time>
      </trkpt>
      <trkpt lat="47.26905" lon="-1.64483">
        <ele>112</ele>
        <time>2014-12-21T09:41:42Z</time>
      </trkpt>
      <trkpt lat="47.2691" lon="-1.64495">
        <ele>102.6</ele>
        <time>2014-12-21T09:41:47Z</time>
      </trkpt>
      <trkpt lat="47.26912" lon="-1.64507">
        <ele>103.1</ele>
        <time>2014-12-21T09:41:50Z</time>
      </trkpt>
      <trkpt lat="47.26915" lon="-1.64519">
        <ele>102</ele>
        <time>2014-12-21T09:41:52Z</time>
      </trkpt>
      <trkpt lat="47.26917" lon="-1.64532">
        <ele>102.4</ele>
        <time>2014-12-21T09:41:54Z</time>
      </trkpt>
      <trkpt lat="47.26916" lon="-1.64543">
        <ele>102.1</ele>
        <time>2014-12-21T09:41:57Z</time>
      </trkpt>
      <trkpt lat="47.26912" lon="-1.64559">
        <ele>99.9</ele>
        <time>2014-12-21T09:41:59Z</time>
      </trkpt>
      <trkpt lat="47.26911" lon="-1.6457">
        <ele>101.6</ele>
        <time>2014-12-21T09:42:01Z</time>
      </trkpt>
      <trkpt lat="47.26911" lon="-1.64581">
        <ele>104.8</ele>
        <time>2014-12-21T09:42:03Z</time>
      </trkpt>
      <trkpt lat="47.26906" lon="-1.64595">
        <ele>108.4</ele>
        <time>2014-12-21T09:42:06Z</time>
      </trkpt>
      <trkpt lat="47.26899" lon="-1.64608">
        <ele>111.5</ele>
        <time>2014-12-21T09:42:07Z</time>
      </trkpt>
      <trkpt lat="47.26892" lon="-1.64622">
        <ele>113.4</ele>
        <time>2014-12-21T09:42:09Z</time>
      </trkpt>
      <trkpt lat="47.26891" lon="-1.64636">
        <ele>112.4</ele>
        <time>2014-12-21T09:42:11Z</time>
      </trkpt>
      <trkpt lat="47.26895" lon="-1.6465">
        <ele>107.4</ele>
        <time>2014-12-21T09:42:13Z</time>
      </trkpt>
      <trkpt lat="47.269" lon="-1.64661">
        <ele>105.9</ele>
        <time>2014-12-21T09:42:15Z</time>
      </trkpt>
      <trkpt lat="47.26899" lon="-1.64676">
        <ele>101.6</ele>
        <time>2014-12-21T09:42:17Z</time>
      </trkpt>
      <trkpt lat="47.26897" lon="-1.64688">
        <ele>100.3</ele>
        <time>2014-12-21T09:42:19Z</time>
      </trkpt>
      <trkpt lat="47.26895" lon="-1.64701">
        <ele>98</ele>
        <time>2014-12-21T09:42:23Z</time>
      </trkpt>
      <trkpt lat="47.2689" lon="-1.6471">
        <ele>98.3</ele>
        <time>2014-12-21T09:42:26Z</time>
      </trkpt>
      <trkpt lat="47.2689" lon="-1.64723">
        <ele>98.1</ele>
        <time>2014-12-21T09:42:27Z</time>
      </trkpt>
      <trkpt lat="47.26884" lon="-1.64733">
        <ele>94.8</ele>
        <time>2014-12-21T09:42:29Z</time>
      </trkpt>
      <trkpt lat="47.26879" lon="-1.64747">
        <ele>96.6</ele>
        <time>2014-12-21T09:42:32Z</time>
      </trkpt>
      <trkpt lat="47.26871" lon="-1.64751">
        <ele>105.6</ele>
        <time>2014-12-21T09:42:35Z</time>
      </trkpt>
      <trkpt lat="47.26868" lon="-1.64762">
        <ele>108.8</ele>
        <time>2014-12-21T09:42:39Z</time>
      </trkpt>
      <trkpt lat="47.26861" lon="-1.64767">
        <ele>108</ele>
        <time>2014-12-21T09:42:40Z</time>
      </trkpt>
      <trkpt lat="47.26855" lon="-1.64776">
        <ele>106.5</ele>
        <time>2014-12-21T09:42:42Z</time>
      </trkpt>
      <trkpt lat="47.26851" lon="-1.64785">
        <ele>106.3</ele>
        <time>2014-12-21T09:42:44Z</time>
      </trkpt>
      <trkpt lat="47.26851" lon="-1.64799">
        <ele>105</ele>
        <time>2014-12-21T09:42:46Z</time>
      </trkpt>
      <trkpt lat="47.26848" lon="-1.64812">
        <ele>102.8</ele>
        <time>2014-12-21T09:42:48Z</time>
      </trkpt>
      <trkpt lat="47.26843" lon="-1.64826">
        <ele>101.6</ele>
        <time>2014-12-21T09:42:50Z</time>
      </trkpt>
      <trkpt lat="47.2684" lon="-1.64838">
        <ele>98.8</ele>
        <time>2014-12-21T09:42:52Z</time>
      </trkpt>
      <trkpt lat="47.26838" lon="-1.64851">
        <ele>98.3</ele>
        <time>2014-12-21T09:42:54Z</time>
      </trkpt>
      <trkpt lat="47.26838" lon="-1.64863">
        <ele>99.3</ele>
        <time>2014-12-21T09:42:56Z</time>
      </trkpt>
      <trkpt lat="47.26837" lon="-1.6488">
        <ele>97.6</ele>
        <time>2014-12-21T09:42:58Z</time>
      </trkpt>
      <trkpt lat="47.26828" lon="-1.64883">
        <ele>102.3</ele>
        <time>2014-12-21T09:43:01Z</time>
      </trkpt>
      <trkpt lat="47.2682" lon="-1.64887">
        <ele>106.4</ele>
        <time>2014-12-21T09:43:03Z</time>
      </trkpt>
      <trkpt lat="47.26812" lon="-1.64893">
        <ele>104.8</ele>
        <time>2014-12-21T09:43:06Z</time>
      </trkpt>
      <trkpt lat="47.26814" lon="-1.64903">
        <ele>103.5</ele>
        <time>2014-12-21T09:43:13Z</time>
      </trkpt>
      <trkpt lat="47.2682" lon="-1.64905">
        <ele>100.6</ele>
        <time>2014-12-21T09:43:27Z</time>
      </trkpt>
      <trkpt lat="47.26818" lon="-1.64907">
        <ele>100.9</ele>
        <time>2014-12-21T09:43:34Z</time>
      </trkpt>
      <trkpt lat="47.26817" lon="-1.64906">
        <ele>102.5</ele>
        <time>2014-12-21T09:43:41Z</time>
      </trkpt>
      <trkpt lat="47.26811" lon="-1.64914">
        <ele>104.3</ele>
        <time>2014-12-21T09:43:49Z</time>
      </trkpt>
      <trkpt lat="47.26811" lon="-1.64925">
        <ele>102.5</ele>
        <time>2014-12-21T09:43:54Z</time>
      </trkpt>
      <trkpt lat="47.26812" lon="-1.64928">
        <ele>104.3</ele>
        <time>2014-12-21T09:44:01Z</time>
      </trkpt>
      <trkpt lat="47.26805" lon="-1.64929">
        <ele>101.6</ele>
        <time>2014-12-21T09:44:49Z</time>
      </trkpt>
      <trkpt lat="47.26804" lon="-1.64942">
        <ele>96.4</ele>
        <time>2014-12-21T09:44:52Z</time>
      </trkpt>
      <trkpt lat="47.26798" lon="-1.64953">
        <ele>91.3</ele>
        <time>2014-12-21T09:44:58Z</time>
      </trkpt>
      <trkpt lat="47.2679" lon="-1.64964">
        <ele>88.8</ele>
        <time>2014-12-21T09:45:12Z</time>
      </trkpt>
      <trkpt lat="47.26794" lon="-1.64969">
        <ele>92.3</ele>
        <time>2014-12-21T09:45:19Z</time>
      </trkpt>
      <trkpt lat="47.26791" lon="-1.64976">
        <ele>100.5</ele>
        <time>2014-12-21T09:45:26Z</time>
      </trkpt>
      <trkpt lat="47.26793" lon="-1.64979">
        <ele>98.5</ele>
        <time>2014-12-21T09:45:40Z</time>
      </trkpt>
      <trkpt lat="47.26793" lon="-1.64979">
        <ele>99.6</ele>
        <time>2014-12-21T09:45:47Z</time>
      </trkpt>
      <trkpt lat="47.26787" lon="-1.64979">
        <ele>103</ele>
        <time>2014-12-21T09:45:59Z</time>
      </trkpt>
      <trkpt lat="47.26783" lon="-1.64985">
        <ele>104.3</ele>
        <time>2014-12-21T09:46:13Z</time>
      </trkpt>
      <trkpt lat="47.26783" lon="-1.64992">
        <ele>99.6</ele>
        <time>2014-12-21T09:46:53Z</time>
      </trkpt>
      <trkpt lat="47.26769" lon="-1.64983">
        <ele>93.8</ele>
        <time>2014-12-21T09:47:00Z</time>
      </trkpt>
      <trkpt lat="47.26767" lon="-1.64998">
        <ele>94.5</ele>
        <time>2014-12-21T09:47:07Z</time>
      </trkpt>
      <trkpt lat="47.26769" lon="-1.65004">
        <ele>98</ele>
        <time>2014-12-21T09:47:14Z</time>
      </trkpt>
      <trkpt lat="47.26769" lon="-1.65009">
        <ele>101</ele>
        <time>2014-12-21T09:47:21Z</time>
      </trkpt>
      <trkpt lat="47.2677" lon="-1.65015">
        <ele>95.5</ele>
        <time>2014-12-21T09:47:28Z</time>
      </trkpt>
      <trkpt lat="47.26782" lon="-1.65031">
        <ele>94.5</ele>
        <time>2014-12-21T09:47:32Z</time>
      </trkpt>
      <trkpt lat="47.26789" lon="-1.65034">
        <ele>94.8</ele>
        <time>2014-12-21T09:47:33Z</time>
      </trkpt>
      <trkpt lat="47.26793" lon="-1.65043">
        <ele>94</ele>
        <time>2014-12-21T09:47:35Z</time>
      </trkpt>
      <trkpt lat="47.2679" lon="-1.65053">
        <ele>92.4</ele>
        <time>2014-12-21T09:47:42Z</time>
      </trkpt>
      <trkpt lat="47.26789" lon="-1.65067">
        <ele>92.3</ele>
        <time>2014-12-21T09:47:46Z</time>
      </trkpt>
      <trkpt lat="47.26789" lon="-1.65078">
        <ele>95</ele>
        <time>2014-12-21T09:47:50Z</time>
      </trkpt>
      <trkpt lat="47.26782" lon="-1.65089">
        <ele>97.8</ele>
        <time>2014-12-21T09:47:56Z</time>
      </trkpt>
      <trkpt lat="47.26776" lon="-1.65099">
        <ele>98.9</ele>
        <time>2014-12-21T09:47:59Z</time>
      </trkpt>
      <trkpt lat="47.26768" lon="-1.65107">
        <ele>99</ele>
        <time>2014-12-21T09:48:02Z</time>
      </trkpt>
      <trkpt lat="47.26762" lon="-1.65116">
        <ele>96.1</ele>
        <time>2014-12-21T09:48:05Z</time>
      </trkpt>
      <trkpt lat="47.26758" lon="-1.65128">
        <ele>99</ele>
        <time>2014-12-21T09:48:08Z</time>
      </trkpt>
      <trkpt lat="47.26753" lon="-1.65138">
        <ele>95.4</ele>
        <time>2014-12-21T09:48:14Z</time>
      </trkpt>
      <trkpt lat="47.26745" lon="-1.65143">
        <ele>93.3</ele>
        <time>2014-12-21T09:48:17Z</time>
      </trkpt>
      <trkpt lat="47.26739" lon="-1.65148">
        <ele>93.8</ele>
        <time>2014-12-21T09:48:21Z</time>
      </trkpt>
      <trkpt lat="47.26733" lon="-1.65154">
        <ele>92.1</ele>
        <time>2014-12-21T09:48:22Z</time>
      </trkpt>
      <trkpt lat="47.26728" lon="-1.65162">
        <ele>91.3</ele>
        <time>2014-12-21T09:48:24Z</time>
      </trkpt>
      <trkpt lat="47.26722" lon="-1.65169">
        <ele>92.8</ele>
        <time>2014-12-21T09:48:27Z</time>
      </trkpt>
      <trkpt lat="47.26724" lon="-1.65171">
        <ele>92.5</ele>
        <time>2014-12-21T09:48:34Z</time>
      </trkpt>
      <trkpt lat="47.26717" lon="-1.65179">
        <ele>95</ele>
        <time>2014-12-21T09:48:55Z</time>
      </trkpt>
      <trkpt lat="47.26719" lon="-1.6518">
        <ele>98.5</ele>
        <time>2014-12-21T09:49:21Z</time>
      </trkpt>
      <trkpt lat="47.26711" lon="-1.65183">
        <ele>97.4</ele>
        <time>2014-12-21T09:49:25Z</time>
      </trkpt>
      <trkpt lat="47.26706" lon="-1.65191">
        <ele>95.9</ele>
        <time>2014-12-21T09:49:27Z</time>
      </trkpt>
      <trkpt lat="47.267" lon="-1.65206">
        <ele>94.3</ele>
        <time>2014-12-21T09:49:30Z</time>
      </trkpt>
      <trkpt lat="47.26696" lon="-1.65219">
        <ele>96.5</ele>
        <time>2014-12-21T09:49:34Z</time>
      </trkpt>
      <trkpt lat="47.26691" lon="-1.65229">
        <ele>96.9</ele>
        <time>2014-12-21T09:49:36Z</time>
      </trkpt>
      <trkpt lat="47.26693" lon="-1.6524">
        <ele>96.3</ele>
        <time>2014-12-21T09:49:39Z</time>
      </trkpt>
      <trkpt lat="47.26679" lon="-1.65247">
        <ele>100.1</ele>
        <time>2014-12-21T09:50:27Z</time>
      </trkpt>
      <trkpt lat="47.2667" lon="-1.6525">
        <ele>97.5</ele>
        <time>2014-12-21T09:50:31Z</time>
      </trkpt>
      <trkpt lat="47.26663" lon="-1.65258">
        <ele>103.4</ele>
        <time>2014-12-21T09:50:35Z</time>
      </trkpt>
      <trkpt lat="47.26656" lon="-1.65267">
        <ele>105.3</ele>
        <time>2014-12-21T09:50:39Z</time>
      </trkpt>
      <trkpt lat="47.26651" lon="-1.65267">
        <ele>109</ele>
        <time>2014-12-21T09:50:46Z</time>
      </trkpt>
      <trkpt lat="47.26643" lon="-1.65264">
        <ele>111.4</ele>
        <time>2014-12-21T09:50:52Z</time>
      </trkpt>
      <trkpt lat="47.26643" lon="-1.65264">
        <ele>109.5</ele>
        <time>2014-12-21T09:50:59Z</time>
      </trkpt>
      <trkpt lat="47.26641" lon="-1.65265">
        <ele>109.5</ele>
        <time>2014-12-21T09:51:06Z</time>
      </trkpt>
      <trkpt lat="47.26638" lon="-1.65265">
        <ele>109.1</ele>
        <time>2014-12-21T09:51:13Z</time>
      </trkpt>
      <trkpt lat="47.26631" lon="-1.65264">
        <ele>108.5</ele>
        <time>2014-12-21T09:51:27Z</time>
      </trkpt>
      <trkpt lat="47.26625" lon="-1.65273">
        <ele>106.5</ele>
        <time>2014-12-21T09:51:32Z</time>
      </trkpt>
      <trkpt lat="47.26618" lon="-1.65273">
        <ele>110.5</ele>
        <time>2014-12-21T09:51:39Z</time>
      </trkpt>
      <trkpt lat="47.26615" lon="-1.65273">
        <ele>110.9</ele>
        <time>2014-12-21T09:51:46Z</time>
      </trkpt>
      <trkpt lat="47.26621" lon="-1.65273">
        <ele>110.4</ele>
        <time>2014-12-21T09:51:53Z</time>
      </trkpt>
      <trkpt lat="47.26646" lon="-1.65297">
        <ele>106.3</ele>
        <time>2014-12-21T09:52:30Z</time>
      </trkpt>
      <trkpt lat="47.26653" lon="-1.65298">
        <ele>106.5</ele>
        <time>2014-12-21T09:52:34Z</time>
      </trkpt>
      <trkpt lat="47.26658" lon="-1.65306">
        <ele>102.5</ele>
        <time>2014-12-21T09:52:39Z</time>
      </trkpt>
      <trkpt lat="47.26666" lon="-1.65309">
        <ele>99.9</ele>
        <time>2014-12-21T09:52:44Z</time>
      </trkpt>
      <trkpt lat="47.26675" lon="-1.65318">
        <ele>96.4</ele>
        <time>2014-12-21T09:52:48Z</time>
      </trkpt>
      <trkpt lat="47.26681" lon="-1.65326">
        <ele>98.8</ele>
        <time>2014-12-21T09:52:51Z</time>
      </trkpt>
      <trkpt lat="47.2669" lon="-1.65333">
        <ele>99.1</ele>
        <time>2014-12-21T09:52:55Z</time>
      </trkpt>
      <trkpt lat="47.26697" lon="-1.65339">
        <ele>99.5</ele>
        <time>2014-12-21T09:52:57Z</time>
      </trkpt>
      <trkpt lat="47.26702" lon="-1.65349">
        <ele>97.1</ele>
        <time>2014-12-21T09:53:00Z</time>
      </trkpt>
      <trkpt lat="47.26709" lon="-1.65354">
        <ele>101.1</ele>
        <time>2014-12-21T09:53:03Z</time>
      </trkpt>
      <trkpt lat="47.26718" lon="-1.65359">
        <ele>101.3</ele>
        <time>2014-12-21T09:53:06Z</time>
      </trkpt>
      <trkpt lat="47.26729" lon="-1.65363">
        <ele>101.5</ele>
        <time>2014-12-21T09:53:09Z</time>
      </trkpt>
      <trkpt lat="47.26736" lon="-1.65369">
        <ele>103</ele>
        <time>2014-12-21T09:53:11Z</time>
      </trkpt>
      <trkpt lat="47.26745" lon="-1.65379">
        <ele>97</ele>
        <time>2014-12-21T09:53:14Z</time>
      </trkpt>
      <trkpt lat="47.26749" lon="-1.6539">
        <ele>97.8</ele>
        <time>2014-12-21T09:53:16Z</time>
      </trkpt>
      <trkpt lat="47.26748" lon="-1.65402">
        <ele>89.5</ele>
        <time>2014-12-21T09:53:19Z</time>
      </trkpt>
      <trkpt lat="47.26755" lon="-1.65414">
        <ele>84</ele>
        <time>2014-12-21T09:53:21Z</time>
      </trkpt>
      <trkpt lat="47.26756" lon="-1.65429">
        <ele>85.6</ele>
        <time>2014-12-21T09:53:23Z</time>
      </trkpt>
      <trkpt lat="47.2676" lon="-1.65441">
        <ele>85.9</ele>
        <time>2014-12-21T09:53:25Z</time>
      </trkpt>
      <trkpt lat="47.26771" lon="-1.65435">
        <ele>82.1</ele>
        <time>2014-12-21T09:53:26Z</time>
      </trkpt>
      <trkpt lat="47.26781" lon="-1.6544">
        <ele>83.5</ele>
        <time>2014-12-21T09:53:28Z</time>
      </trkpt>
      <trkpt lat="47.26788" lon="-1.6544">
        <ele>86.6</ele>
        <time>2014-12-21T09:53:31Z</time>
      </trkpt>
      <trkpt lat="47.26798" lon="-1.65442">
        <ele>85.6</ele>
        <time>2014-12-21T09:53:36Z</time>
      </trkpt>
      <trkpt lat="47.26805" lon="-1.65443">
        <ele>83.3</ele>
        <time>2014-12-21T09:53:40Z</time>
      </trkpt>
      <trkpt lat="47.26811" lon="-1.6545">
        <ele>86</ele>
        <time>2014-12-21T09:53:44Z</time>
      </trkpt>
      <trkpt lat="47.26812" lon="-1.65464">
        <ele>87.6</ele>
        <time>2014-12-21T09:53:48Z</time>
      </trkpt>
      <trkpt lat="47.26811" lon="-1.65475">
        <ele>87.3</ele>
        <time>2014-12-21T09:53:52Z</time>
      </trkpt>
      <trkpt lat="47.26811" lon="-1.65488">
        <ele>88</ele>
        <time>2014-12-21T09:53:56Z</time>
      </trkpt>
      <trkpt lat="47.26808" lon="-1.65499">
        <ele>88</ele>
        <time>2014-12-21T09:54:01Z</time>
      </trkpt>
      <trkpt lat="47.26807" lon="-1.65511">
        <ele>86.4</ele>
        <time>2014-12-21T09:54:06Z</time>
      </trkpt>
      <trkpt lat="47.26804" lon="-1.65523">
        <ele>88.4</ele>
        <time>2014-12-21T09:54:13Z</time>
      </trkpt>
      <trkpt lat="47.26814" lon="-1.6553">
        <ele>80.5</ele>
        <time>2014-12-21T09:54:20Z</time>
      </trkpt>
      <trkpt lat="47.26824" lon="-1.65531">
        <ele>78.1</ele>
        <time>2014-12-21T09:54:22Z</time>
      </trkpt>
      <trkpt lat="47.26829" lon="-1.65534">
        <ele>78</ele>
        <time>2014-12-21T09:54:29Z</time>
      </trkpt>
      <trkpt lat="47.26833" lon="-1.65535">
        <ele>80.9</ele>
        <time>2014-12-21T09:54:47Z</time>
      </trkpt>
      <trkpt lat="47.26842" lon="-1.65539">
        <ele>78.8</ele>
        <time>2014-12-21T09:54:52Z</time>
      </trkpt>
      <trkpt lat="47.26848" lon="-1.65546">
        <ele>84.9</ele>
        <time>2014-12-21T09:54:58Z</time>
      </trkpt>
      <trkpt lat="47.26849" lon="-1.6555">
        <ele>88</ele>
        <time>2014-12-21T09:55:05Z</time>
      </trkpt>
      <trkpt lat="47.26851" lon="-1.65549">
        <ele>88.5</ele>
        <time>2014-12-21T09:55:12Z</time>
      </trkpt>
      <trkpt lat="47.26856" lon="-1.65558">
        <ele>89.4</ele>
        <time>2014-12-21T09:56:28Z</time>
      </trkpt>
      <trkpt lat="47.2686" lon="-1.65567">
        <ele>86.6</ele>
        <time>2014-12-21T09:56:31Z</time>
      </trkpt>
      <trkpt lat="47.26855" lon="-1.65568">
        <ele>90</ele>
        <time>2014-12-21T09:56:38Z</time>
      </trkpt>
      <trkpt lat="47.26853" lon="-1.65579">
        <ele>93</ele>
        <time>2014-12-21T09:56:43Z</time>
      </trkpt>
      <trkpt lat="47.2686" lon="-1.65587">
        <ele>92.1</ele>
        <time>2014-12-21T09:56:46Z</time>
      </trkpt>
      <trkpt lat="47.26869" lon="-1.65593">
        <ele>93.8</ele>
        <time>2014-12-21T09:56:49Z</time>
      </trkpt>
      <trkpt lat="47.26874" lon="-1.656">
        <ele>96.6</ele>
        <time>2014-12-21T09:56:53Z</time>
      </trkpt>
      <trkpt lat="47.26881" lon="-1.65606">
        <ele>94.8</ele>
        <time>2014-12-21T09:56:58Z</time>
      </trkpt>
      <trkpt lat="47.26885" lon="-1.65617">
        <ele>94.3</ele>
        <time>2014-12-21T09:57:01Z</time>
      </trkpt>
      <trkpt lat="47.2689" lon="-1.65622">
        <ele>93.4</ele>
        <time>2014-12-21T09:57:08Z</time>
      </trkpt>
      <trkpt lat="47.26891" lon="-1.65629">
        <ele>99.3</ele>
        <time>2014-12-21T09:57:21Z</time>
      </trkpt>
      <trkpt lat="47.26896" lon="-1.65632">
        <ele>102</ele>
        <time>2014-12-21T09:57:28Z</time>
      </trkpt>
      <trkpt lat="47.26897" lon="-1.65632">
        <ele>101.5</ele>
        <time>2014-12-21T09:57:36Z</time>
      </trkpt>
      <trkpt lat="47.269" lon="-1.65644">
        <ele>102.4</ele>
        <time>2014-12-21T09:57:43Z</time>
      </trkpt>
      <trkpt lat="47.26893" lon="-1.65654">
        <ele>102.3</ele>
        <time>2014-12-21T09:57:48Z</time>
      </trkpt>
      <trkpt lat="47.26888" lon="-1.65662">
        <ele>102.5</ele>
        <time>2014-12-21T09:57:52Z</time>
      </trkpt>
      <trkpt lat="47.26884" lon="-1.65669">
        <ele>106.3</ele>
        <time>2014-12-21T09:57:59Z</time>
      </trkpt>
      <trkpt lat="47.26883" lon="-1.6568">
        <ele>105</ele>
        <time>2014-12-21T09:58:06Z</time>
      </trkpt>
      <trkpt lat="47.26882" lon="-1.65694">
        <ele>100.1</ele>
        <time>2014-12-21T09:58:10Z</time>
      </trkpt>
      <trkpt lat="47.26883" lon="-1.65705">
        <ele>98.1</ele>
        <time>2014-12-21T09:58:14Z</time>
      </trkpt>
      <trkpt lat="47.26886" lon="-1.65716">
        <ele>95.5</ele>
        <time>2014-12-21T09:58:17Z</time>
      </trkpt>
      <trkpt lat="47.26894" lon="-1.65718">
        <ele>92.8</ele>
        <time>2014-12-21T09:58:21Z</time>
      </trkpt>
      <trkpt lat="47.26888" lon="-1.65727">
        <ele>84</ele>
        <time>2014-12-21T09:58:27Z</time>
      </trkpt>
      <trkpt lat="47.26886" lon="-1.6574">
        <ele>91.5</ele>
        <time>2014-12-21T09:58:29Z</time>
      </trkpt>
      <trkpt lat="47.26884" lon="-1.65752">
        <ele>97.6</ele>
        <time>2014-12-21T09:58:31Z</time>
      </trkpt>
      <trkpt lat="47.26885" lon="-1.65767">
        <ele>98.5</ele>
        <time>2014-12-21T09:58:34Z</time>
      </trkpt>
      <trkpt lat="47.26888" lon="-1.65779">
        <ele>102.3</ele>
        <time>2014-12-21T09:58:37Z</time>
      </trkpt>
      <trkpt lat="47.2689" lon="-1.6579">
        <ele>104.5</ele>
        <time>2014-12-21T09:58:41Z</time>
      </trkpt>
      <trkpt lat="47.26886" lon="-1.65801">
        <ele>108.5</ele>
        <time>2014-12-21T09:58:46Z</time>
      </trkpt>
      <trkpt lat="47.26882" lon="-1.65819">
        <ele>107.5</ele>
        <time>2014-12-21T09:58:49Z</time>
      </trkpt>
      <trkpt lat="47.26884" lon="-1.65834">
        <ele>106.3</ele>
        <time>2014-12-21T09:58:51Z</time>
      </trkpt>
      <trkpt lat="47.26886" lon="-1.65846">
        <ele>102.1</ele>
        <time>2014-12-21T09:58:55Z</time>
      </trkpt>
      <trkpt lat="47.26883" lon="-1.65857">
        <ele>103.9</ele>
        <time>2014-12-21T09:58:59Z</time>
      </trkpt>
      <trkpt lat="47.26877" lon="-1.65863">
        <ele>104</ele>
        <time>2014-12-21T09:59:01Z</time>
      </trkpt>
      <trkpt lat="47.26867" lon="-1.65869">
        <ele>105.9</ele>
        <time>2014-12-21T09:59:04Z</time>
      </trkpt>
      <trkpt lat="47.26859" lon="-1.65873">
        <ele>110.6</ele>
        <time>2014-12-21T09:59:07Z</time>
      </trkpt>
      <trkpt lat="47.26851" lon="-1.65879">
        <ele>117.1</ele>
        <time>2014-12-21T09:59:12Z</time>
      </trkpt>
      <trkpt lat="47.26843" lon="-1.65886">
        <ele>116.6</ele>
        <time>2014-12-21T09:59:19Z</time>
      </trkpt>
      <trkpt lat="47.26836" lon="-1.65888">
        <ele>115.6</ele>
        <time>2014-12-21T09:59:20Z</time>
      </trkpt>
      <trkpt lat="47.26827" lon="-1.65894">
        <ele>118.1</ele>
        <time>2014-12-21T09:59:24Z</time>
      </trkpt>
      <trkpt lat="47.2682" lon="-1.65893">
        <ele>117.1</ele>
        <time>2014-12-21T09:59:27Z</time>
      </trkpt>
      <trkpt lat="47.26813" lon="-1.659">
        <ele>117.8</ele>
        <time>2014-12-21T09:59:30Z</time>
      </trkpt>
      <trkpt lat="47.26805" lon="-1.659">
        <ele>116.8</ele>
        <time>2014-12-21T09:59:34Z</time>
      </trkpt>
      <trkpt lat="47.268" lon="-1.659">
        <ele>123</ele>
        <time>2014-12-21T09:59:41Z</time>
      </trkpt>
      <trkpt lat="47.26791" lon="-1.65903">
        <ele>122.6</ele>
        <time>2014-12-21T09:59:44Z</time>
      </trkpt>
      <trkpt lat="47.26783" lon="-1.65904">
        <ele>125.4</ele>
        <time>2014-12-21T09:59:47Z</time>
      </trkpt>
      <trkpt lat="47.26776" lon="-1.65906">
        <ele>121.8</ele>
        <time>2014-12-21T09:59:52Z</time>
      </trkpt>
      <trkpt lat="47.26768" lon="-1.65912">
        <ele>124.1</ele>
        <time>2014-12-21T09:59:55Z</time>
      </trkpt>
      <trkpt lat="47.26762" lon="-1.6591">
        <ele>121</ele>
        <time>2014-12-21T10:00:02Z</time>
      </trkpt>
      <trkpt lat="47.26758" lon="-1.65908">
        <ele>120</ele>
        <time>2014-12-21T10:00:09Z</time>
      </trkpt>
      <trkpt lat="47.2675" lon="-1.65903">
        <ele>121.5</ele>
        <time>2014-12-21T10:00:30Z</time>
      </trkpt>
      <trkpt lat="47.26741" lon="-1.65896">
        <ele>123.4</ele>
        <time>2014-12-21T10:00:33Z</time>
      </trkpt>
      <trkpt lat="47.26728" lon="-1.65901">
        <ele>118.5</ele>
        <time>2014-12-21T10:00:35Z</time>
      </trkpt>
      <trkpt lat="47.26719" lon="-1.659">
        <ele>118.4</ele>
        <time>2014-12-21T10:00:37Z</time>
      </trkpt>
      <trkpt lat="47.2671" lon="-1.65899">
        <ele>118.3</ele>
        <time>2014-12-21T10:00:39Z</time>
      </trkpt>
      <trkpt lat="47.26705" lon="-1.65911">
        <ele>116.3</ele>
        <time>2014-12-21T10:00:41Z</time>
      </trkpt>
      <trkpt lat="47.26697" lon="-1.65915">
        <ele>114.4</ele>
        <time>2014-12-21T10:00:43Z</time>
      </trkpt>
      <trkpt lat="47.26689" lon="-1.65915">
        <ele>112.6</ele>
        <time>2014-12-21T10:00:44Z</time>
      </trkpt>
      <trkpt lat="47.2668" lon="-1.65919">
        <ele>111.1</ele>
        <time>2014-12-21T10:00:46Z</time>
      </trkpt>
      <trkpt lat="47.26671" lon="-1.65923">
        <ele>111.4</ele>
        <time>2014-12-21T10:00:48Z</time>
      </trkpt>
      <trkpt lat="47.26658" lon="-1.65928">
        <ele>109.4</ele>
        <time>2014-12-21T10:00:50Z</time>
      </trkpt>
      <trkpt lat="47.2665" lon="-1.65928">
        <ele>109.1</ele>
        <time>2014-12-21T10:00:51Z</time>
      </trkpt>
      <trkpt lat="47.26635" lon="-1.65934">
        <ele>108.4</ele>
        <time>2014-12-21T10:00:53Z</time>
      </trkpt>
      <trkpt lat="47.26619" lon="-1.65938">
        <ele>106.5</ele>
        <time>2014-12-21T10:00:55Z</time>
      </trkpt>
      <trkpt lat="47.26611" lon="-1.65939">
        <ele>105.3</ele>
        <time>2014-12-21T10:00:56Z</time>
      </trkpt>
      <trkpt lat="47.26601" lon="-1.65944">
        <ele>103.1</ele>
        <time>2014-12-21T10:00:58Z</time>
      </trkpt>
      <trkpt lat="47.26587" lon="-1.6595">
        <ele>101.5</ele>
        <time>2014-12-21T10:01:00Z</time>
      </trkpt>
      <trkpt lat="47.26578" lon="-1.65949">
        <ele>102.3</ele>
        <time>2014-12-21T10:01:02Z</time>
      </trkpt>
      <trkpt lat="47.26572" lon="-1.65956">
        <ele>103.5</ele>
        <time>2014-12-21T10:01:04Z</time>
      </trkpt>
      <trkpt lat="47.26565" lon="-1.6596">
        <ele>103.6</ele>
        <time>2014-12-21T10:01:05Z</time>
      </trkpt>
      <trkpt lat="47.26554" lon="-1.65963">
        <ele>102.6</ele>
        <time>2014-12-21T10:01:06Z</time>
      </trkpt>
      <trkpt lat="47.26544" lon="-1.65971">
        <ele>97.9</ele>
        <time>2014-12-21T10:01:08Z</time>
      </trkpt>
      <trkpt lat="47.26534" lon="-1.65969">
        <ele>98.9</ele>
        <time>2014-12-21T10:01:10Z</time>
      </trkpt>
      <trkpt lat="47.26534" lon="-1.65974">
        <ele>90.6</ele>
        <time>2014-12-21T10:01:17Z</time>
      </trkpt>
      <trkpt lat="47.26531" lon="-1.65987">
        <ele>85.8</ele>
        <time>2014-12-21T10:01:20Z</time>
      </trkpt>
      <trkpt lat="47.26524" lon="-1.65991">
        <ele>86.1</ele>
        <time>2014-12-21T10:01:23Z</time>
      </trkpt>
      <trkpt lat="47.26524" lon="-1.65989">
        <ele>84.4</ele>
        <time>2014-12-21T10:01:30Z</time>
      </trkpt>
      <trkpt lat="47.26528" lon="-1.66034">
        <ele>80.8</ele>
        <time>2014-12-21T10:03:32Z</time>
      </trkpt>
      <trkpt lat="47.26534" lon="-1.6604">
        <ele>81.5</ele>
        <time>2014-12-21T10:03:35Z</time>
      </trkpt>
      <trkpt lat="47.26542" lon="-1.66045">
        <ele>86.3</ele>
        <time>2014-12-21T10:03:37Z</time>
      </trkpt>
      <trkpt lat="47.26554" lon="-1.66048">
        <ele>83.4</ele>
        <time>2014-12-21T10:03:39Z</time>
      </trkpt>
      <trkpt lat="47.26561" lon="-1.66053">
        <ele>82.6</ele>
        <time>2014-12-21T10:03:41Z</time>
      </trkpt>
      <trkpt lat="47.26569" lon="-1.66054">
        <ele>83</ele>
        <time>2014-12-21T10:03:43Z</time>
      </trkpt>
      <trkpt lat="47.26577" lon="-1.66053">
        <ele>81.4</ele>
        <time>2014-12-21T10:03:45Z</time>
      </trkpt>
      <trkpt lat="47.26588" lon="-1.66059">
        <ele>83.9</ele>
        <time>2014-12-21T10:03:47Z</time>
      </trkpt>
      <trkpt lat="47.26596" lon="-1.66062">
        <ele>84.4</ele>
        <time>2014-12-21T10:03:49Z</time>
      </trkpt>
      <trkpt lat="47.26603" lon="-1.66067">
        <ele>86</ele>
        <time>2014-12-21T10:03:51Z</time>
      </trkpt>
      <trkpt lat="47.26609" lon="-1.66074">
        <ele>86.4</ele>
        <time>2014-12-21T10:03:53Z</time>
      </trkpt>
      <trkpt lat="47.26619" lon="-1.6608">
        <ele>82.3</ele>
        <time>2014-12-21T10:03:57Z</time>
      </trkpt>
      <trkpt lat="47.26626" lon="-1.66087">
        <ele>82</ele>
        <time>2014-12-21T10:03:59Z</time>
      </trkpt>
      <trkpt lat="47.26631" lon="-1.66096">
        <ele>83.6</ele>
        <time>2014-12-21T10:04:01Z</time>
      </trkpt>
      <trkpt lat="47.26637" lon="-1.66105">
        <ele>85.8</ele>
        <time>2014-12-21T10:04:03Z</time>
      </trkpt>
      <trkpt lat="47.26639" lon="-1.66118">
        <ele>89</ele>
        <time>2014-12-21T10:04:05Z</time>
      </trkpt>
      <trkpt lat="47.26638" lon="-1.66133">
        <ele>87.6</ele>
        <time>2014-12-21T10:04:08Z</time>
      </trkpt>
      <trkpt lat="47.2664" lon="-1.66148">
        <ele>88.5</ele>
        <time>2014-12-21T10:04:11Z</time>
      </trkpt>
      <trkpt lat="47.26635" lon="-1.6616">
        <ele>91.4</ele>
        <time>2014-12-21T10:04:15Z</time>
      </trkpt>
      <trkpt lat="47.26627" lon="-1.66161">
        <ele>90.6</ele>
        <time>2014-12-21T10:04:20Z</time>
      </trkpt>
      <trkpt lat="47.26626" lon="-1.6616">
        <ele>89.6</ele>
        <time>2014-12-21T10:04:26Z</time>
      </trkpt>
      <trkpt lat="47.26624" lon="-1.66166">
        <ele>89</ele>
        <time>2014-12-21T10:04:33Z</time>
      </trkpt>
      <trkpt lat="47.26619" lon="-1.66174">
        <ele>88</ele>
        <time>2014-12-21T10:04:37Z</time>
      </trkpt>
      <trkpt lat="47.26612" lon="-1.66184">
        <ele>86.5</ele>
        <time>2014-12-21T10:04:42Z</time>
      </trkpt>
      <trkpt lat="47.26611" lon="-1.66192">
        <ele>89.6</ele>
        <time>2014-12-21T10:04:49Z</time>
      </trkpt>
      <trkpt lat="47.2661" lon="-1.66206">
        <ele>89.8</ele>
        <time>2014-12-21T10:04:53Z</time>
      </trkpt>
      <trkpt lat="47.26605" lon="-1.66216">
        <ele>89.6</ele>
        <time>2014-12-21T10:04:57Z</time>
      </trkpt>
      <trkpt lat="47.26602" lon="-1.66226">
        <ele>90</ele>
        <time>2014-12-21T10:05:01Z</time>
      </trkpt>
      <trkpt lat="47.26599" lon="-1.66238">
        <ele>88.9</ele>
        <time>2014-12-21T10:05:06Z</time>
      </trkpt>
      <trkpt lat="47.26601" lon="-1.66249">
        <ele>87.3</ele>
        <time>2014-12-21T10:05:08Z</time>
      </trkpt>
      <trkpt lat="47.26603" lon="-1.66261">
        <ele>86.3</ele>
        <time>2014-12-21T10:05:11Z</time>
      </trkpt>
      <trkpt lat="47.26606" lon="-1.66273">
        <ele>88.8</ele>
        <time>2014-12-21T10:05:16Z</time>
      </trkpt>
      <trkpt lat="47.26608" lon="-1.66287">
        <ele>94.3</ele>
        <time>2014-12-21T10:05:18Z</time>
      </trkpt>
      <trkpt lat="47.2661" lon="-1.66299">
        <ele>97.6</ele>
        <time>2014-12-21T10:05:20Z</time>
      </trkpt>
      <trkpt lat="47.26609" lon="-1.66314">
        <ele>102.5</ele>
        <time>2014-12-21T10:05:25Z</time>
      </trkpt>
      <trkpt lat="47.26609" lon="-1.66326">
        <ele>108.3</ele>
        <time>2014-12-21T10:05:27Z</time>
      </trkpt>
      <trkpt lat="47.26616" lon="-1.66341">
        <ele>110.9</ele>
        <time>2014-12-21T10:05:31Z</time>
      </trkpt>
      <trkpt lat="47.26619" lon="-1.66356">
        <ele>106</ele>
        <time>2014-12-21T10:05:33Z</time>
      </trkpt>
      <trkpt lat="47.26622" lon="-1.66367">
        <ele>104.1</ele>
        <time>2014-12-21T10:05:36Z</time>
      </trkpt>
      <trkpt lat="47.26629" lon="-1.66376">
        <ele>105.1</ele>
        <time>2014-12-21T10:05:37Z</time>
      </trkpt>
      <trkpt lat="47.26631" lon="-1.6639">
        <ele>104</ele>
        <time>2014-12-21T10:05:41Z</time>
      </trkpt>
      <trkpt lat="47.26635" lon="-1.66401">
        <ele>104</ele>
        <time>2014-12-21T10:05:42Z</time>
      </trkpt>
      <trkpt lat="47.2664" lon="-1.66412">
        <ele>104.5</ele>
        <time>2014-12-21T10:05:45Z</time>
      </trkpt>
      <trkpt lat="47.26644" lon="-1.66426">
        <ele>106.4</ele>
        <time>2014-12-21T10:05:47Z</time>
      </trkpt>
      <trkpt lat="47.26646" lon="-1.66437">
        <ele>105.5</ele>
        <time>2014-12-21T10:05:49Z</time>
      </trkpt>
      <trkpt lat="47.26651" lon="-1.66449">
        <ele>102.6</ele>
        <time>2014-12-21T10:05:52Z</time>
      </trkpt>
      <trkpt lat="47.26651" lon="-1.6646">
        <ele>107</ele>
        <time>2014-12-21T10:05:55Z</time>
      </trkpt>
      <trkpt lat="47.26652" lon="-1.66474">
        <ele>113.3</ele>
        <time>2014-12-21T10:06:02Z</time>
      </trkpt>
      <trkpt lat="47.26658" lon="-1.66486">
        <ele>115.1</ele>
        <time>2014-12-21T10:06:06Z</time>
      </trkpt>
      <trkpt lat="47.26658" lon="-1.66501">
        <ele>106.6</ele>
        <time>2014-12-21T10:06:09Z</time>
      </trkpt>
      <trkpt lat="47.26658" lon="-1.66512">
        <ele>99.4</ele>
        <time>2014-12-21T10:06:12Z</time>
      </trkpt>
      <trkpt lat="47.26658" lon="-1.66524">
        <ele>97.1</ele>
        <time>2014-12-21T10:06:15Z</time>
      </trkpt>
      <trkpt lat="47.26662" lon="-1.66536">
        <ele>97</ele>
        <time>2014-12-21T10:06:18Z</time>
      </trkpt>
      <trkpt lat="47.26669" lon="-1.66548">
        <ele>96.6</ele>
        <time>2014-12-21T10:06:20Z</time>
      </trkpt>
      <trkpt lat="47.26675" lon="-1.66563">
        <ele>98</ele>
        <time>2014-12-21T10:06:23Z</time>
      </trkpt>
      <trkpt lat="47.26679" lon="-1.66573">
        <ele>99.9</ele>
        <time>2014-12-21T10:06:26Z</time>
      </trkpt>
      <trkpt lat="47.26686" lon="-1.66584">
        <ele>103</ele>
        <time>2014-12-21T10:06:29Z</time>
      </trkpt>
      <trkpt lat="47.26691" lon="-1.66595">
        <ele>101.9</ele>
        <time>2014-12-21T10:06:32Z</time>
      </trkpt>
      <trkpt lat="47.26689" lon="-1.66607">
        <ele>99</ele>
        <time>2014-12-21T10:06:37Z</time>
      </trkpt>
      <trkpt lat="47.26697" lon="-1.66612">
        <ele>93.4</ele>
        <time>2014-12-21T10:06:41Z</time>
      </trkpt>
      <trkpt lat="47.26704" lon="-1.66608">
        <ele>84.5</ele>
        <time>2014-12-21T10:06:48Z</time>
      </trkpt>
      <trkpt lat="47.26724" lon="-1.66613">
        <ele>81.5</ele>
        <time>2014-12-21T10:06:53Z</time>
      </trkpt>
      <trkpt lat="47.26731" lon="-1.6661">
        <ele>84.5</ele>
        <time>2014-12-21T10:06:55Z</time>
      </trkpt>
      <trkpt lat="47.26742" lon="-1.66605">
        <ele>83.8</ele>
        <time>2014-12-21T10:06:58Z</time>
      </trkpt>
      <trkpt lat="47.2675" lon="-1.66606">
        <ele>85.5</ele>
        <time>2014-12-21T10:07:00Z</time>
      </trkpt>
      <trkpt lat="47.26806" lon="-1.66709">
        <ele>99.9</ele>
        <time>2014-12-21T10:07:35Z</time>
      </trkpt>
      <trkpt lat="47.268" lon="-1.66725">
        <ele>101.5</ele>
        <time>2014-12-21T10:07:36Z</time>
      </trkpt>
      <trkpt lat="47.26805" lon="-1.66735">
        <ele>102.9</ele>
        <time>2014-12-21T10:07:39Z</time>
      </trkpt>
      <trkpt lat="47.26813" lon="-1.66741">
        <ele>102.4</ele>
        <time>2014-12-21T10:07:42Z</time>
      </trkpt>
      <trkpt lat="47.26819" lon="-1.6675">
        <ele>104.5</ele>
        <time>2014-12-21T10:07:45Z</time>
      </trkpt>
      <trkpt lat="47.26826" lon="-1.66756">
        <ele>104</ele>
        <time>2014-12-21T10:07:48Z</time>
      </trkpt>
      <trkpt lat="47.26834" lon="-1.66762">
        <ele>98.3</ele>
        <time>2014-12-21T10:07:50Z</time>
      </trkpt>
      <trkpt lat="47.26842" lon="-1.66766">
        <ele>95.1</ele>
        <time>2014-12-21T10:07:52Z</time>
      </trkpt>
      <trkpt lat="47.26849" lon="-1.66771">
        <ele>95</ele>
        <time>2014-12-21T10:07:54Z</time>
      </trkpt>
      <trkpt lat="47.26856" lon="-1.66776">
        <ele>93.1</ele>
        <time>2014-12-21T10:07:56Z</time>
      </trkpt>
      <trkpt lat="47.26862" lon="-1.66782">
        <ele>91.5</ele>
        <time>2014-12-21T10:07:59Z</time>
      </trkpt>
      <trkpt lat="47.2687" lon="-1.66787">
        <ele>91.6</ele>
        <time>2014-12-21T10:08:01Z</time>
      </trkpt>
      <trkpt lat="47.26876" lon="-1.66792">
        <ele>94.9</ele>
        <time>2014-12-21T10:08:03Z</time>
      </trkpt>
      <trkpt lat="47.26885" lon="-1.66798">
        <ele>98.5</ele>
        <time>2014-12-21T10:08:06Z</time>
      </trkpt>
      <trkpt lat="47.26893" lon="-1.66805">
        <ele>101.4</ele>
        <time>2014-12-21T10:08:10Z</time>
      </trkpt>
      <trkpt lat="47.26896" lon="-1.66815">
        <ele>101.3</ele>
        <time>2014-12-21T10:08:12Z</time>
      </trkpt>
      <trkpt lat="47.26902" lon="-1.66825">
        <ele>100.9</ele>
        <time>2014-12-21T10:08:15Z</time>
      </trkpt>
      <trkpt lat="47.26905" lon="-1.66836">
        <ele>99.5</ele>
        <time>2014-12-21T10:08:18Z</time>
      </trkpt>
      <trkpt lat="47.26908" lon="-1.66849">
        <ele>99</ele>
        <time>2014-12-21T10:08:21Z</time>
      </trkpt>
      <trkpt lat="47.26909" lon="-1.66862">
        <ele>101.1</ele>
        <time>2014-12-21T10:08:24Z</time>
      </trkpt>
      <trkpt lat="47.26912" lon="-1.66872">
        <ele>100.4</ele>
        <time>2014-12-21T10:08:26Z</time>
      </trkpt>
      <trkpt lat="47.26917" lon="-1.66881">
        <ele>97</ele>
        <time>2014-12-21T10:08:29Z</time>
      </trkpt>
      <trkpt lat="47.26921" lon="-1.66891">
        <ele>102</ele>
        <time>2014-12-21T10:08:33Z</time>
      </trkpt>
      <trkpt lat="47.26919" lon="-1.669">
        <ele>106.3</ele>
        <time>2014-12-21T10:08:40Z</time>
      </trkpt>
      <trkpt lat="47.26923" lon="-1.66914">
        <ele>103.1</ele>
        <time>2014-12-21T10:08:44Z</time>
      </trkpt>
      <trkpt lat="47.26919" lon="-1.66925">
        <ele>105</ele>
        <time>2014-12-21T10:08:47Z</time>
      </trkpt>
      <trkpt lat="47.26916" lon="-1.66939">
        <ele>105.5</ele>
        <time>2014-12-21T10:08:50Z</time>
      </trkpt>
      <trkpt lat="47.2692" lon="-1.66949">
        <ele>102.6</ele>
        <time>2014-12-21T10:08:52Z</time>
      </trkpt>
      <trkpt lat="47.26921" lon="-1.6696">
        <ele>96.8</ele>
        <time>2014-12-21T10:08:56Z</time>
      </trkpt>
      <trkpt lat="47.26918" lon="-1.66972">
        <ele>97.1</ele>
        <time>2014-12-21T10:08:58Z</time>
      </trkpt>
      <trkpt lat="47.26771" lon="-1.6714">
        <ele>84.4</ele>
        <time>2014-12-21T10:12:55Z</time>
      </trkpt>
      <trkpt lat="47.26798" lon="-1.67173">
        <ele>101.5</ele>
        <time>2014-12-21T10:13:27Z</time>
      </trkpt>
      <trkpt lat="47.26804" lon="-1.67165">
        <ele>99.1</ele>
        <time>2014-12-21T10:13:32Z</time>
      </trkpt>
      <trkpt lat="47.26807" lon="-1.67158">
        <ele>99.1</ele>
        <time>2014-12-21T10:13:39Z</time>
      </trkpt>
      <trkpt lat="47.268" lon="-1.67153">
        <ele>91.8</ele>
        <time>2014-12-21T10:14:06Z</time>
      </trkpt>
      <trkpt lat="47.26793" lon="-1.67149">
        <ele>91.9</ele>
        <time>2014-12-21T10:14:08Z</time>
      </trkpt>
      <trkpt lat="47.26785" lon="-1.67147">
        <ele>91.3</ele>
        <time>2014-12-21T10:14:11Z</time>
      </trkpt>
      <trkpt lat="47.26777" lon="-1.67148">
        <ele>90.3</ele>
        <time>2014-12-21T10:14:14Z</time>
      </trkpt>
      <trkpt lat="47.2678" lon="-1.67137">
        <ele>89.6</ele>
        <time>2014-12-21T10:14:21Z</time>
      </trkpt>
      <trkpt lat="47.26788" lon="-1.67135">
        <ele>90.5</ele>
        <time>2014-12-21T10:14:28Z</time>
      </trkpt>
      <trkpt lat="47.26795" lon="-1.67131">
        <ele>89</ele>
        <time>2014-12-21T10:14:34Z</time>
      </trkpt>
      <trkpt lat="47.26797" lon="-1.67127">
        <ele>89.6</ele>
        <time>2014-12-21T10:14:41Z</time>
      </trkpt>
      <trkpt lat="47.26798" lon="-1.67116">
        <ele>88.8</ele>
        <time>2014-12-21T10:14:46Z</time>
      </trkpt>
      <trkpt lat="47.26799" lon="-1.67116">
        <ele>88.6</ele>
        <time>2014-12-21T10:14:53Z</time>
      </trkpt>
      <trkpt lat="47.26801" lon="-1.67111">
        <ele>83.8</ele>
        <time>2014-12-21T10:15:44Z</time>
      </trkpt>
      <trkpt lat="47.26803" lon="-1.67109">
        <ele>83.3</ele>
        <time>2014-12-21T10:15:50Z</time>
      </trkpt>
      <trkpt lat="47.26801" lon="-1.6711">
        <ele>80.5</ele>
        <time>2014-12-21T10:15:58Z</time>
      </trkpt>
      <trkpt lat="47.26803" lon="-1.67111">
        <ele>75.8</ele>
        <time>2014-12-21T10:16:12Z</time>
      </trkpt>
      <trkpt lat="47.26805" lon="-1.67108">
        <ele>76</ele>
        <time>2014-12-21T10:18:40Z</time>
      </trkpt>
      <trkpt lat="47.26803" lon="-1.67108">
        <ele>77.4</ele>
        <time>2014-12-21T10:18:47Z</time>
      </trkpt>
      <trkpt lat="47.26804" lon="-1.67105">
        <ele>80</ele>
        <time>2014-12-21T10:19:30Z</time>
      </trkpt>
      <trkpt lat="47.26804" lon="-1.67106">
        <ele>79.8</ele>
        <time>2014-12-21T10:19:36Z</time>
      </trkpt>
      <trkpt lat="47.26799" lon="-1.67096">
        <ele>82.3</ele>
        <time>2014-12-21T10:22:13Z</time>
      </trkpt>
      <trkpt lat="47.26798" lon="-1.67095">
        <ele>85</ele>
        <time>2014-12-21T10:22:20Z</time>
      </trkpt>
      <trkpt lat="47.268" lon="-1.67106">
        <ele>82</ele>
        <time>2014-12-21T10:22:44Z</time>
      </trkpt>
      <trkpt lat="47.26798" lon="-1.67121">
        <ele>78.1</ele>
        <time>2014-12-21T10:22:47Z</time>
      </trkpt>
      <trkpt lat="47.26794" lon="-1.67131">
        <ele>77.5</ele>
        <time>2014-12-21T10:22:49Z</time>
      </trkpt>
      <trkpt lat="47.26787" lon="-1.67131">
        <ele>77.5</ele>
        <time>2014-12-21T10:22:50Z</time>
      </trkpt>
      <trkpt lat="47.26779" lon="-1.67135">
        <ele>78</ele>
        <time>2014-12-21T10:22:53Z</time>
      </trkpt>
      <trkpt lat="47.26772" lon="-1.67135">
        <ele>77.3</ele>
        <time>2014-12-21T10:22:56Z</time>
      </trkpt>
      <trkpt lat="47.26819" lon="-1.67141">
        <ele>74.8</ele>
        <time>2014-12-21T10:23:30Z</time>
      </trkpt>
      <trkpt lat="47.26811" lon="-1.67139">
        <ele>74.1</ele>
        <time>2014-12-21T10:23:35Z</time>
      </trkpt>
      <trkpt lat="47.26816" lon="-1.67141">
        <ele>80.5</ele>
        <time>2014-12-21T10:23:49Z</time>
      </trkpt>
      <trkpt lat="47.26829" lon="-1.67146">
        <ele>81.5</ele>
        <time>2014-12-21T10:23:51Z</time>
      </trkpt>
      <trkpt lat="47.26839" lon="-1.67148">
        <ele>79</ele>
        <time>2014-12-21T10:23:54Z</time>
      </trkpt>
      <trkpt lat="47.26847" lon="-1.67155">
        <ele>83.8</ele>
        <time>2014-12-21T10:23:58Z</time>
      </trkpt>
      <trkpt lat="47.26852" lon="-1.67166">
        <ele>89.8</ele>
        <time>2014-12-21T10:24:02Z</time>
      </trkpt>
      <trkpt lat="47.2686" lon="-1.67169">
        <ele>91.4</ele>
        <time>2014-12-21T10:24:04Z</time>
      </trkpt>
      <trkpt lat="47.26865" lon="-1.67178">
        <ele>93</ele>
        <time>2014-12-21T10:24:06Z</time>
      </trkpt>
      <trkpt lat="47.26873" lon="-1.67185">
        <ele>98.5</ele>
        <time>2014-12-21T10:24:09Z</time>
      </trkpt>
      <trkpt lat="47.26883" lon="-1.67192">
        <ele>98</ele>
        <time>2014-12-21T10:24:11Z</time>
      </trkpt>
      <trkpt lat="47.26891" lon="-1.67197">
        <ele>97.6</ele>
        <time>2014-12-21T10:24:13Z</time>
      </trkpt>
      <trkpt lat="47.269" lon="-1.67203">
        <ele>96.9</ele>
        <time>2014-12-21T10:24:16Z</time>
      </trkpt>
      <trkpt lat="47.2691" lon="-1.67206">
        <ele>96</ele>
        <time>2014-12-21T10:24:17Z</time>
      </trkpt>
      <trkpt lat="47.26919" lon="-1.67205">
        <ele>98.4</ele>
        <time>2014-12-21T10:24:19Z</time>
      </trkpt>
      <trkpt lat="47.26929" lon="-1.67203">
        <ele>98.5</ele>
        <time>2014-12-21T10:24:21Z</time>
      </trkpt>
      <trkpt lat="47.2694" lon="-1.672">
        <ele>96.5</ele>
        <time>2014-12-21T10:24:23Z</time>
      </trkpt>
      <trkpt lat="47.26948" lon="-1.67194">
        <ele>93.9</ele>
        <time>2014-12-21T10:24:25Z</time>
      </trkpt>
      <trkpt lat="47.26958" lon="-1.67195">
        <ele>100.5</ele>
        <time>2014-12-21T10:24:27Z</time>
      </trkpt>
      <trkpt lat="47.26968" lon="-1.67191">
        <ele>102.5</ele>
        <time>2014-12-21T10:24:29Z</time>
      </trkpt>
      <trkpt lat="47.26979" lon="-1.67189">
        <ele>100.5</ele>
        <time>2014-12-21T10:24:31Z</time>
      </trkpt>
      <trkpt lat="47.26989" lon="-1.67187">
        <ele>100.9</ele>
        <time>2014-12-21T10:24:33Z</time>
      </trkpt>
      <trkpt lat="47.26999" lon="-1.67186">
        <ele>100.5</ele>
        <time>2014-12-21T10:24:35Z</time>
      </trkpt>
      <trkpt lat="47.27008" lon="-1.67184">
        <ele>100.8</ele>
        <time>2014-12-21T10:24:37Z</time>
      </trkpt>
      <trkpt lat="47.27016" lon="-1.67183">
        <ele>100.1</ele>
        <time>2014-12-21T10:24:39Z</time>
      </trkpt>
      <trkpt lat="47.27026" lon="-1.67181">
        <ele>100.3</ele>
        <time>2014-12-21T10:24:41Z</time>
      </trkpt>
      <trkpt lat="47.27037" lon="-1.67182">
        <ele>100.5</ele>
        <time>2014-12-21T10:24:43Z</time>
      </trkpt>
      <trkpt lat="47.27045" lon="-1.67182">
        <ele>99.6</ele>
        <time>2014-12-21T10:24:45Z</time>
      </trkpt>
      <trkpt lat="47.27055" lon="-1.6718">
        <ele>90.1</ele>
        <time>2014-12-21T10:24:51Z</time>
      </trkpt>
      <trkpt lat="47.27051" lon="-1.6719">
        <ele>88.6</ele>
        <time>2014-12-21T10:24:57Z</time>
      </trkpt>
      <trkpt lat="47.2705" lon="-1.67203">
        <ele>90.3</ele>
        <time>2014-12-21T10:25:00Z</time>
      </trkpt>
      <trkpt lat="47.27053" lon="-1.67219">
        <ele>90</ele>
        <time>2014-12-21T10:25:02Z</time>
      </trkpt>
      <trkpt lat="47.27058" lon="-1.67227">
        <ele>88.9</ele>
        <time>2014-12-21T10:25:05Z</time>
      </trkpt>
      <trkpt lat="47.27064" lon="-1.67233">
        <ele>104.6</ele>
        <time>2014-12-21T10:25:10Z</time>
      </trkpt>
      <trkpt lat="47.27073" lon="-1.67241">
        <ele>105.5</ele>
        <time>2014-12-21T10:25:13Z</time>
      </trkpt>
      <trkpt lat="47.2708" lon="-1.67252">
        <ele>105</ele>
        <time>2014-12-21T10:25:16Z</time>
      </trkpt>
      <trkpt lat="47.27085" lon="-1.67263">
        <ele>99</ele>
        <time>2014-12-21T10:25:19Z</time>
      </trkpt>
      <trkpt lat="47.27085" lon="-1.67276">
        <ele>97.1</ele>
        <time>2014-12-21T10:25:21Z</time>
      </trkpt>
      <trkpt lat="47.27087" lon="-1.67286">
        <ele>93.6</ele>
        <time>2014-12-21T10:25:23Z</time>
      </trkpt>
      <trkpt lat="47.27089" lon="-1.673">
        <ele>89.8</ele>
        <time>2014-12-21T10:25:26Z</time>
      </trkpt>
      <trkpt lat="47.2709" lon="-1.6731">
        <ele>84.4</ele>
        <time>2014-12-21T10:25:29Z</time>
      </trkpt>
      <trkpt lat="47.2709" lon="-1.67324">
        <ele>82.9</ele>
        <time>2014-12-21T10:25:32Z</time>
      </trkpt>
      <trkpt lat="47.27087" lon="-1.67337">
        <ele>83.1</ele>
        <time>2014-12-21T10:25:36Z</time>
      </trkpt>
      <trkpt lat="47.27085" lon="-1.67347">
        <ele>81.3</ele>
        <time>2014-12-21T10:25:39Z</time>
      </trkpt>
      <trkpt lat="47.2708" lon="-1.67357">
        <ele>80.5</ele>
        <time>2014-12-21T10:25:42Z</time>
      </trkpt>
      <trkpt lat="47.27073" lon="-1.67354">
        <ele>82.8</ele>
        <time>2014-12-21T10:25:45Z</time>
      </trkpt>
      <trkpt lat="47.27073" lon="-1.67365">
        <ele>86</ele>
        <time>2014-12-21T10:25:48Z</time>
      </trkpt>
      <trkpt lat="47.27074" lon="-1.67377">
        <ele>85.8</ele>
        <time>2014-12-21T10:25:50Z</time>
      </trkpt>
      <trkpt lat="47.27074" lon="-1.67392">
        <ele>85.3</ele>
        <time>2014-12-21T10:25:52Z</time>
      </trkpt>
      <trkpt lat="47.27073" lon="-1.67408">
        <ele>84.4</ele>
        <time>2014-12-21T10:25:55Z</time>
      </trkpt>
      <trkpt lat="47.27078" lon="-1.6742">
        <ele>81.5</ele>
        <time>2014-12-21T10:25:56Z</time>
      </trkpt>
      <trkpt lat="47.27082" lon="-1.6744">
        <ele>78.9</ele>
        <time>2014-12-21T10:25:58Z</time>
      </trkpt>
      <trkpt lat="47.2708" lon="-1.67451">
        <ele>80.1</ele>
        <time>2014-12-21T10:25:59Z</time>
      </trkpt>
      <trkpt lat="47.27076" lon="-1.67465">
        <ele>85</ele>
        <time>2014-12-21T10:26:02Z</time>
      </trkpt>
      <trkpt lat="47.27073" lon="-1.67478">
        <ele>83.3</ele>
        <time>2014-12-21T10:26:04Z</time>
      </trkpt>
      <trkpt lat="47.27071" lon="-1.67489">
        <ele>83.6</ele>
        <time>2014-12-21T10:26:06Z</time>
      </trkpt>
      <trkpt lat="47.27076" lon="-1.675">
        <ele>78.8</ele>
        <time>2014-12-21T10:26:08Z</time>
      </trkpt>
      <trkpt lat="47.27074" lon="-1.67512">
        <ele>82.4</ele>
        <time>2014-12-21T10:26:10Z</time>
      </trkpt>
      <trkpt lat="47.27072" lon="-1.67523">
        <ele>89</ele>
        <time>2014-12-21T10:26:14Z</time>
      </trkpt>
      <trkpt lat="47.27073" lon="-1.67536">
        <ele>89</ele>
        <time>2014-12-21T10:26:16Z</time>
      </trkpt>
      <trkpt lat="47.27078" lon="-1.67549">
        <ele>88.4</ele>
        <time>2014-12-21T10:26:19Z</time>
      </trkpt>
      <trkpt lat="47.27081" lon="-1.67559">
        <ele>88.9</ele>
        <time>2014-12-21T10:26:21Z</time>
      </trkpt>
      <trkpt lat="47.27084" lon="-1.67574">
        <ele>93.6</ele>
        <time>2014-12-21T10:26:24Z</time>
      </trkpt>
      <trkpt lat="47.27085" lon="-1.67585">
        <ele>92</ele>
        <time>2014-12-21T10:26:26Z</time>
      </trkpt>
      <trkpt lat="47.27086" lon="-1.67596">
        <ele>107.5</ele>
        <time>2014-12-21T10:26:29Z</time>
      </trkpt>
      <trkpt lat="47.27087" lon="-1.67606">
        <ele>108.9</ele>
        <time>2014-12-21T10:26:35Z</time>
      </trkpt>
      <trkpt lat="47.27092" lon="-1.67616">
        <ele>108.5</ele>
        <time>2014-12-21T10:26:38Z</time>
      </trkpt>
      <trkpt lat="47.27094" lon="-1.67628">
        <ele>108.5</ele>
        <time>2014-12-21T10:26:43Z</time>
      </trkpt>
      <trkpt lat="47.27098" lon="-1.67642">
        <ele>106</ele>
        <time>2014-12-21T10:26:45Z</time>
      </trkpt>
      <trkpt lat="47.271" lon="-1.67656">
        <ele>107.5</ele>
        <time>2014-12-21T10:26:47Z</time>
      </trkpt>
      <trkpt lat="47.27102" lon="-1.67667">
        <ele>106.5</ele>
        <time>2014-12-21T10:26:49Z</time>
      </trkpt>
      <trkpt lat="47.271" lon="-1.6768">
        <ele>106</ele>
        <time>2014-12-21T10:26:51Z</time>
      </trkpt>
      <trkpt lat="47.27102" lon="-1.67691">
        <ele>103.6</ele>
        <time>2014-12-21T10:26:54Z</time>
      </trkpt>
      <trkpt lat="47.27105" lon="-1.67704">
        <ele>104.4</ele>
        <time>2014-12-21T10:26:57Z</time>
      </trkpt>
      <trkpt lat="47.27103" lon="-1.67719">
        <ele>104</ele>
        <time>2014-12-21T10:26:59Z</time>
      </trkpt>
      <trkpt lat="47.27106" lon="-1.67733">
        <ele>100.4</ele>
        <time>2014-12-21T10:27:03Z</time>
      </trkpt>
      <trkpt lat="47.27104" lon="-1.67746">
        <ele>96.5</ele>
        <time>2014-12-21T10:27:06Z</time>
      </trkpt>
      <trkpt lat="47.27098" lon="-1.67758">
        <ele>96.4</ele>
        <time>2014-12-21T10:27:09Z</time>
      </trkpt>
      <trkpt lat="47.27097" lon="-1.6777">
        <ele>97</ele>
        <time>2014-12-21T10:27:12Z</time>
      </trkpt>
      <trkpt lat="47.27091" lon="-1.67784">
        <ele>97.3</ele>
        <time>2014-12-21T10:27:14Z</time>
      </trkpt>
      <trkpt lat="47.27084" lon="-1.67789">
        <ele>96.3</ele>
        <time>2014-12-21T10:27:16Z</time>
      </trkpt>
      <trkpt lat="47.27083" lon="-1.67804">
        <ele>94.6</ele>
        <time>2014-12-21T10:27:18Z</time>
      </trkpt>
      <trkpt lat="47.27084" lon="-1.67818">
        <ele>92.6</ele>
        <time>2014-12-21T10:27:20Z</time>
      </trkpt>
      <trkpt lat="47.2708" lon="-1.67829">
        <ele>89.3</ele>
        <time>2014-12-21T10:27:24Z</time>
      </trkpt>
      <trkpt lat="47.2707" lon="-1.67837">
        <ele>87.5</ele>
        <time>2014-12-21T10:27:26Z</time>
      </trkpt>
      <trkpt lat="47.27067" lon="-1.67849">
        <ele>86.1</ele>
        <time>2014-12-21T10:27:28Z</time>
      </trkpt>
      <trkpt lat="47.27071" lon="-1.67862">
        <ele>90.6</ele>
        <time>2014-12-21T10:27:31Z</time>
      </trkpt>
      <trkpt lat="47.27068" lon="-1.67876">
        <ele>93.3</ele>
        <time>2014-12-21T10:27:35Z</time>
      </trkpt>
      <trkpt lat="47.27061" lon="-1.67889">
        <ele>95.8</ele>
        <time>2014-12-21T10:27:40Z</time>
      </trkpt>
      <trkpt lat="47.27055" lon="-1.67905">
        <ele>98</ele>
        <time>2014-12-21T10:27:43Z</time>
      </trkpt>
      <trkpt lat="47.27053" lon="-1.67916">
        <ele>102.6</ele>
        <time>2014-12-21T10:27:46Z</time>
      </trkpt>
      <trkpt lat="47.27051" lon="-1.67933">
        <ele>104.4</ele>
        <time>2014-12-21T10:27:49Z</time>
      </trkpt>
      <trkpt lat="47.27042" lon="-1.67937">
        <ele>104.1</ele>
        <time>2014-12-21T10:27:51Z</time>
      </trkpt>
      <trkpt lat="47.27038" lon="-1.6795">
        <ele>104.1</ele>
        <time>2014-12-21T10:27:55Z</time>
      </trkpt>
      <trkpt lat="47.27088" lon="-1.6877">
        <ele>110.5</ele>
        <time>2014-12-21T10:35:23Z</time>
      </trkpt>
      <trkpt lat="47.27823" lon="-1.69658">
        <ele>116.5</ele>
        <time>2014-12-21T10:41:18Z</time>
      </trkpt>
      <trkpt lat="47.2783" lon="-1.69662">
        <ele>110.5</ele>
        <time>2014-12-21T10:41:53Z</time>
      </trkpt>
      <trkpt lat="47.27829" lon="-1.69659">
        <ele>104.3</ele>
        <time>2014-12-21T10:42:00Z</time>
      </trkpt>
      <trkpt lat="47.2782" lon="-1.69678">
        <ele>106.9</ele>
        <time>2014-12-21T10:43:36Z</time>
      </trkpt>
      <trkpt lat="47.27821" lon="-1.69678">
        <ele>106</ele>
        <time>2014-12-21T10:43:43Z</time>
      </trkpt>
      <trkpt lat="47.27824" lon="-1.69677">
        <ele>104.1</ele>
        <time>2014-12-21T10:43:50Z</time>
      </trkpt>
      <trkpt lat="47.27822" lon="-1.69678">
        <ele>107.5</ele>
        <time>2014-12-21T10:44:45Z</time>
      </trkpt>
      <trkpt lat="47.27825" lon="-1.69683">
        <ele>106</ele>
        <time>2014-12-21T10:45:06Z</time>
      </trkpt>
      <trkpt lat="47.27826" lon="-1.69679">
        <ele>103.9</ele>
        <time>2014-12-21T10:45:13Z</time>
      </trkpt>
      <trkpt lat="47.27827" lon="-1.69679">
        <ele>100.8</ele>
        <time>2014-12-21T10:45:47Z</time>
      </trkpt>
      <trkpt lat="47.28311" lon="-1.69241">
        <ele>95.4</ele>
        <time>2014-12-21T10:49:02Z</time>
      </trkpt>
      <trkpt lat="47.28318" lon="-1.6925">
        <ele>101.6</ele>
        <time>2014-12-21T10:49:06Z</time>
      </trkpt>
      <trkpt lat="47.28328" lon="-1.69256">
        <ele>105.9</ele>
        <time>2014-12-21T10:49:09Z</time>
      </trkpt>
      <trkpt lat="47.28335" lon="-1.69248">
        <ele>103.5</ele>
        <time>2014-12-21T10:49:13Z</time>
      </trkpt>
      <trkpt lat="47.28342" lon="-1.69243">
        <ele>93.5</ele>
        <time>2014-12-21T10:49:15Z</time>
      </trkpt>
      <trkpt lat="47.28332" lon="-1.69235">
        <ele>93</ele>
        <time>2014-12-21T10:49:22Z</time>
      </trkpt>
      <trkpt lat="47.28321" lon="-1.69234">
        <ele>93.1</ele>
        <time>2014-12-21T10:49:24Z</time>
      </trkpt>
      <trkpt lat="47.28312" lon="-1.6923">
        <ele>92.5</ele>
        <time>2014-12-21T10:49:26Z</time>
      </trkpt>
      <trkpt lat="47.28304" lon="-1.69228">
        <ele>92.5</ele>
        <time>2014-12-21T10:49:28Z</time>
      </trkpt>
      <trkpt lat="47.28295" lon="-1.69225">
        <ele>92.3</ele>
        <time>2014-12-21T10:49:30Z</time>
      </trkpt>
      <trkpt lat="47.28286" lon="-1.69222">
        <ele>91.5</ele>
        <time>2014-12-21T10:49:32Z</time>
      </trkpt>
      <trkpt lat="47.28278" lon="-1.6922">
        <ele>91.8</ele>
        <time>2014-12-21T10:49:34Z</time>
      </trkpt>
      <trkpt lat="47.28269" lon="-1.69219">
        <ele>91.6</ele>
        <time>2014-12-21T10:49:36Z</time>
      </trkpt>
      <trkpt lat="47.2826" lon="-1.69218">
        <ele>91.8</ele>
        <time>2014-12-21T10:49:38Z</time>
      </trkpt>
      <trkpt lat="47.28252" lon="-1.69216">
        <ele>92.4</ele>
        <time>2014-12-21T10:49:40Z</time>
      </trkpt>
      <trkpt lat="47.28242" lon="-1.69214">
        <ele>91.8</ele>
        <time>2014-12-21T10:49:42Z</time>
      </trkpt>
      <trkpt lat="47.28234" lon="-1.69214">
        <ele>93</ele>
        <time>2014-12-21T10:49:44Z</time>
      </trkpt>
      <trkpt lat="47.28224" lon="-1.69213">
        <ele>93.5</ele>
        <time>2014-12-21T10:49:46Z</time>
      </trkpt>
      <trkpt lat="47.28213" lon="-1.69209">
        <ele>92.1</ele>
        <time>2014-12-21T10:49:48Z</time>
      </trkpt>
      <trkpt lat="47.28205" lon="-1.69208">
        <ele>92.4</ele>
        <time>2014-12-21T10:49:50Z</time>
      </trkpt>
      <trkpt lat="47.28197" lon="-1.69203">
        <ele>92.5</ele>
        <time>2014-12-21T10:49:52Z</time>
      </trkpt>
      <trkpt lat="47.28193" lon="-1.69191">
        <ele>93.6</ele>
        <time>2014-12-21T10:49:55Z</time>
      </trkpt>
      <trkpt lat="47.28191" lon="-1.69178">
        <ele>94</ele>
        <time>2014-12-21T10:49:58Z</time>
      </trkpt>
      <trkpt lat="47.28189" lon="-1.69164">
        <ele>94.8</ele>
        <time>2014-12-21T10:50:00Z</time>
      </trkpt>
      <trkpt lat="47.28187" lon="-1.6915">
        <ele>95</ele>
        <time>2014-12-21T10:50:02Z</time>
      </trkpt>
      <trkpt lat="47.28181" lon="-1.69137">
        <ele>94.1</ele>
        <time>2014-12-21T10:50:04Z</time>
      </trkpt>
      <trkpt lat="47.28173" lon="-1.6912">
        <ele>93.4</ele>
        <time>2014-12-21T10:50:07Z</time>
      </trkpt>
      <trkpt lat="47.28169" lon="-1.6911">
        <ele>88.3</ele>
        <time>2014-12-21T10:50:09Z</time>
      </trkpt>
      <trkpt lat="47.28161" lon="-1.69104">
        <ele>89.5</ele>
        <time>2014-12-21T10:50:11Z</time>
      </trkpt>
      <trkpt lat="47.28153" lon="-1.69103">
        <ele>89.5</ele>
        <time>2014-12-21T10:50:13Z</time>
      </trkpt>
      <trkpt lat="47.28142" lon="-1.69102">
        <ele>91.3</ele>
        <time>2014-12-21T10:50:15Z</time>
      </trkpt>
      <trkpt lat="47.28131" lon="-1.69098">
        <ele>94.4</ele>
        <time>2014-12-21T10:50:17Z</time>
      </trkpt>
      <trkpt lat="47.28123" lon="-1.69096">
        <ele>91.8</ele>
        <time>2014-12-21T10:50:19Z</time>
      </trkpt>
      <trkpt lat="47.28114" lon="-1.69099">
        <ele>91.8</ele>
        <time>2014-12-21T10:50:21Z</time>
      </trkpt>
      <trkpt lat="47.28104" lon="-1.69099">
        <ele>92.4</ele>
        <time>2014-12-21T10:50:23Z</time>
      </trkpt>
      <trkpt lat="47.28093" lon="-1.691">
        <ele>90</ele>
        <time>2014-12-21T10:50:24Z</time>
      </trkpt>
      <trkpt lat="47.2808" lon="-1.69104">
        <ele>91.3</ele>
        <time>2014-12-21T10:50:27Z</time>
      </trkpt>
      <trkpt lat="47.28067" lon="-1.69106">
        <ele>91.8</ele>
        <time>2014-12-21T10:50:29Z</time>
      </trkpt>
      <trkpt lat="47.28056" lon="-1.69108">
        <ele>91</ele>
        <time>2014-12-21T10:50:31Z</time>
      </trkpt>
      <trkpt lat="47.28047" lon="-1.69109">
        <ele>89.8</ele>
        <time>2014-12-21T10:50:33Z</time>
      </trkpt>
      <trkpt lat="47.28038" lon="-1.6911">
        <ele>89.6</ele>
        <time>2014-12-21T10:50:35Z</time>
      </trkpt>
      <trkpt lat="47.28027" lon="-1.69107">
        <ele>90.5</ele>
        <time>2014-12-21T10:50:37Z</time>
      </trkpt>
      <trkpt lat="47.28019" lon="-1.69102">
        <ele>90.8</ele>
        <time>2014-12-21T10:50:39Z</time>
      </trkpt>
      <trkpt lat="47.28008" lon="-1.691">
        <ele>90.4</ele>
        <time>2014-12-21T10:50:41Z</time>
      </trkpt>
      <trkpt lat="47.27998" lon="-1.69097">
        <ele>90.5</ele>
        <time>2014-12-21T10:50:44Z</time>
      </trkpt>
      <trkpt lat="47.27989" lon="-1.69096">
        <ele>91</ele>
        <time>2014-12-21T10:50:46Z</time>
      </trkpt>
      <trkpt lat="47.27981" lon="-1.69095">
        <ele>91.3</ele>
        <time>2014-12-21T10:50:47Z</time>
      </trkpt>
      <trkpt lat="47.27973" lon="-1.69098">
        <ele>91.5</ele>
        <time>2014-12-21T10:50:48Z</time>
      </trkpt>
      <trkpt lat="47.27961" lon="-1.69097">
        <ele>90.8</ele>
        <time>2014-12-21T10:50:50Z</time>
      </trkpt>
      <trkpt lat="47.2795" lon="-1.691">
        <ele>91</ele>
        <time>2014-12-21T10:50:52Z</time>
      </trkpt>
      <trkpt lat="47.27936" lon="-1.69099">
        <ele>88.6</ele>
        <time>2014-12-21T10:50:54Z</time>
      </trkpt>
      <trkpt lat="47.27927" lon="-1.69097">
        <ele>88.5</ele>
        <time>2014-12-21T10:50:55Z</time>
      </trkpt>
      <trkpt lat="47.2792" lon="-1.69091">
        <ele>87.6</ele>
        <time>2014-12-21T10:50:56Z</time>
      </trkpt>
      <trkpt lat="47.27913" lon="-1.69085">
        <ele>87.1</ele>
        <time>2014-12-21T10:50:57Z</time>
      </trkpt>
      <trkpt lat="47.27902" lon="-1.69081">
        <ele>86.8</ele>
        <time>2014-12-21T10:50:59Z</time>
      </trkpt>
      <trkpt lat="47.27894" lon="-1.69076">
        <ele>84.6</ele>
        <time>2014-12-21T10:51:00Z</time>
      </trkpt>
      <trkpt lat="47.27886" lon="-1.69069">
        <ele>85</ele>
        <time>2014-12-21T10:51:01Z</time>
      </trkpt>
      <trkpt lat="47.27873" lon="-1.69059">
        <ele>84.5</ele>
        <time>2014-12-21T10:51:03Z</time>
      </trkpt>
      <trkpt lat="47.27865" lon="-1.69052">
        <ele>83.9</ele>
        <time>2014-12-21T10:51:05Z</time>
      </trkpt>
      <trkpt lat="47.27856" lon="-1.69044">
        <ele>86.3</ele>
        <time>2014-12-21T10:51:07Z</time>
      </trkpt>
      <trkpt lat="47.27846" lon="-1.69036">
        <ele>88.9</ele>
        <time>2014-12-21T10:51:09Z</time>
      </trkpt>
      <trkpt lat="47.27839" lon="-1.69031">
        <ele>88.5</ele>
        <time>2014-12-21T10:51:10Z</time>
      </trkpt>
      <trkpt lat="47.2783" lon="-1.69019">
        <ele>89.5</ele>
        <time>2014-12-21T10:51:12Z</time>
      </trkpt>
      <trkpt lat="47.27823" lon="-1.69012">
        <ele>90</ele>
        <time>2014-12-21T10:51:14Z</time>
      </trkpt>
      <trkpt lat="47.27813" lon="-1.69001">
        <ele>90.1</ele>
        <time>2014-12-21T10:51:16Z</time>
      </trkpt>
      <trkpt lat="47.27807" lon="-1.68995">
        <ele>90.3</ele>
        <time>2014-12-21T10:51:17Z</time>
      </trkpt>
      <trkpt lat="47.27799" lon="-1.68991">
        <ele>92.5</ele>
        <time>2014-12-21T10:51:20Z</time>
      </trkpt>
      <trkpt lat="47.27465" lon="-1.67528">
        <ele>114.5</ele>
        <time>2014-12-21T11:06:20Z</time>
      </trkpt>
      <trkpt lat="47.27595" lon="-1.67418">
        <ele>86.6</ele>
        <time>2014-12-21T11:06:56Z</time>
      </trkpt>
      <trkpt lat="47.27602" lon="-1.67418">
        <ele>92.5</ele>
        <time>2014-12-21T11:06:59Z</time>
      </trkpt>
      <trkpt lat="47.27613" lon="-1.67413">
        <ele>87.8</ele>
        <time>2014-12-21T11:07:01Z</time>
      </trkpt>
      <trkpt lat="47.27621" lon="-1.67404">
        <ele>84.9</ele>
        <time>2014-12-21T11:07:03Z</time>
      </trkpt>
      <trkpt lat="47.27628" lon="-1.67398">
        <ele>83.1</ele>
        <time>2014-12-21T11:07:05Z</time>
      </trkpt>
      <trkpt lat="47.27625" lon="-1.67384">
        <ele>99.6</ele>
        <time>2014-12-21T11:07:10Z</time>
      </trkpt>
      <trkpt lat="47.2762" lon="-1.67375">
        <ele>102.4</ele>
        <time>2014-12-21T11:07:12Z</time>
      </trkpt>
      <trkpt lat="47.27614" lon="-1.67367">
        <ele>103.6</ele>
        <time>2014-12-21T11:07:14Z</time>
      </trkpt>
      <trkpt lat="47.27607" lon="-1.67358">
        <ele>105.8</ele>
        <time>2014-12-21T11:07:16Z</time>
      </trkpt>
      <trkpt lat="47.27602" lon="-1.6735">
        <ele>104.3</ele>
        <time>2014-12-21T11:07:18Z</time>
      </trkpt>
      <trkpt lat="47.27596" lon="-1.67343">
        <ele>112.4</ele>
        <time>2014-12-21T11:07:20Z</time>
      </trkpt>
      <trkpt lat="47.2759" lon="-1.67334">
        <ele>112.5</ele>
        <time>2014-12-21T11:07:22Z</time>
      </trkpt>
      <trkpt lat="47.27583" lon="-1.67325">
        <ele>113.4</ele>
        <time>2014-12-21T11:07:24Z</time>
      </trkpt>
      <trkpt lat="47.27577" lon="-1.67317">
        <ele>114.6</ele>
        <time>2014-12-21T11:07:26Z</time>
      </trkpt>
      <trkpt lat="47.27573" lon="-1.67307">
        <ele>111.3</ele>
        <time>2014-12-21T11:07:28Z</time>
      </trkpt>
      <trkpt lat="47.27569" lon="-1.67295">
        <ele>110.8</ele>
        <time>2014-12-21T11:07:30Z</time>
      </trkpt>
      <trkpt lat="47.27566" lon="-1.67282">
        <ele>110</ele>
        <time>2014-12-21T11:07:32Z</time>
      </trkpt>
      <trkpt lat="47.27563" lon="-1.67268">
        <ele>109.6</ele>
        <time>2014-12-21T11:07:34Z</time>
      </trkpt>
      <trkpt lat="47.2756" lon="-1.67256">
        <ele>110.1</ele>
        <time>2014-12-21T11:07:36Z</time>
      </trkpt>
      <trkpt lat="47.27558" lon="-1.67245">
        <ele>113.1</ele>
        <time>2014-12-21T11:07:38Z</time>
      </trkpt>
      <trkpt lat="47.27555" lon="-1.67235">
        <ele>114.6</ele>
        <time>2014-12-21T11:07:40Z</time>
      </trkpt>
      <trkpt lat="47.27553" lon="-1.67222">
        <ele>115</ele>
        <time>2014-12-21T11:07:42Z</time>
      </trkpt>
      <trkpt lat="47.27552" lon="-1.6721">
        <ele>115.4</ele>
        <time>2014-12-21T11:07:44Z</time>
      </trkpt>
      <trkpt lat="47.27549" lon="-1.67199">
        <ele>115.8</ele>
        <time>2014-12-21T11:07:46Z</time>
      </trkpt>
      <trkpt lat="47.27546" lon="-1.67188">
        <ele>116.9</ele>
        <time>2014-12-21T11:07:48Z</time>
      </trkpt>
      <trkpt lat="47.27543" lon="-1.67178">
        <ele>116.6</ele>
        <time>2014-12-21T11:07:50Z</time>
      </trkpt>
      <trkpt lat="47.2754" lon="-1.67167">
        <ele>116</ele>
        <time>2014-12-21T11:07:52Z</time>
      </trkpt>
      <trkpt lat="47.27538" lon="-1.67151">
        <ele>117.3</ele>
        <time>2014-12-21T11:07:55Z</time>
      </trkpt>
      <trkpt lat="47.27534" lon="-1.67137">
        <ele>117</ele>
        <time>2014-12-21T11:07:57Z</time>
      </trkpt>
      <trkpt lat="47.27532" lon="-1.67126">
        <ele>116.3</ele>
        <time>2014-12-21T11:07:59Z</time>
      </trkpt>
      <trkpt lat="47.27529" lon="-1.67113">
        <ele>117</ele>
        <time>2014-12-21T11:08:01Z</time>
      </trkpt>
      <trkpt lat="47.27528" lon="-1.67101">
        <ele>115</ele>
        <time>2014-12-21T11:08:03Z</time>
      </trkpt>
      <trkpt lat="47.27523" lon="-1.67087">
        <ele>116.6</ele>
        <time>2014-12-21T11:08:06Z</time>
      </trkpt>
      <trkpt lat="47.27519" lon="-1.67077">
        <ele>117.5</ele>
        <time>2014-12-21T11:08:11Z</time>
      </trkpt>
      <trkpt lat="47.27516" lon="-1.67067">
        <ele>118.4</ele>
        <time>2014-12-21T11:08:13Z</time>
      </trkpt>
      <trkpt lat="47.27513" lon="-1.67052">
        <ele>119.3</ele>
        <time>2014-12-21T11:08:16Z</time>
      </trkpt>
      <trkpt lat="47.27509" lon="-1.6704">
        <ele>119.4</ele>
        <time>2014-12-21T11:08:18Z</time>
      </trkpt>
      <trkpt lat="47.27505" lon="-1.67027">
        <ele>119</ele>
        <time>2014-12-21T11:08:20Z</time>
      </trkpt>
      <trkpt lat="47.27501" lon="-1.67014">
        <ele>118.6</ele>
        <time>2014-12-21T11:08:22Z</time>
      </trkpt>
      <trkpt lat="47.27497" lon="-1.67001">
        <ele>116.9</ele>
        <time>2014-12-21T11:08:24Z</time>
      </trkpt>
      <trkpt lat="47.27492" lon="-1.66988">
        <ele>116.6</ele>
        <time>2014-12-21T11:08:26Z</time>
      </trkpt>
      <trkpt lat="47.2749" lon="-1.66975">
        <ele>117</ele>
        <time>2014-12-21T11:08:28Z</time>
      </trkpt>
      <trkpt lat="47.27481" lon="-1.66967">
        <ele>117.4</ele>
        <time>2014-12-21T11:08:30Z</time>
      </trkpt>
      <trkpt lat="47.27477" lon="-1.66957">
        <ele>117.1</ele>
        <time>2014-12-21T11:08:32Z</time>
      </trkpt>
      <trkpt lat="47.27478" lon="-1.6694">
        <ele>113.8</ele>
        <time>2014-12-21T11:08:34Z</time>
      </trkpt>
      <trkpt lat="47.27474" lon="-1.66928">
        <ele>113.9</ele>
        <time>2014-12-21T11:08:36Z</time>
      </trkpt>
      <trkpt lat="47.27472" lon="-1.66913">
        <ele>113.1</ele>
        <time>2014-12-21T11:08:38Z</time>
      </trkpt>
      <trkpt lat="47.27465" lon="-1.66904">
        <ele>113.5</ele>
        <time>2014-12-21T11:08:40Z</time>
      </trkpt>
      <trkpt lat="47.27459" lon="-1.66895">
        <ele>111.6</ele>
        <time>2014-12-21T11:08:42Z</time>
      </trkpt>
      <trkpt lat="47.27458" lon="-1.66882">
        <ele>112.5</ele>
        <time>2014-12-21T11:08:44Z</time>
      </trkpt>
      <trkpt lat="47.27452" lon="-1.66866">
        <ele>118.5</ele>
        <time>2014-12-21T11:08:46Z</time>
      </trkpt>
      <trkpt lat="47.27449" lon="-1.66852">
        <ele>120.4</ele>
        <time>2014-12-21T11:08:48Z</time>
      </trkpt>
      <trkpt lat="47.27445" lon="-1.66837">
        <ele>122</ele>
        <time>2014-12-21T11:08:51Z</time>
      </trkpt>
      <trkpt lat="47.27438" lon="-1.6683">
        <ele>122</ele>
        <time>2014-12-21T11:08:53Z</time>
      </trkpt>
      <trkpt lat="47.27431" lon="-1.66822">
        <ele>121.3</ele>
        <time>2014-12-21T11:08:55Z</time>
      </trkpt>
      <trkpt lat="47.27425" lon="-1.66814">
        <ele>117.6</ele>
        <time>2014-12-21T11:08:57Z</time>
      </trkpt>
      <trkpt lat="47.27418" lon="-1.66803">
        <ele>114.9</ele>
        <time>2014-12-21T11:08:59Z</time>
      </trkpt>
      <trkpt lat="47.27406" lon="-1.66795">
        <ele>112.5</ele>
        <time>2014-12-21T11:09:01Z</time>
      </trkpt>
      <trkpt lat="47.27398" lon="-1.66788">
        <ele>114</ele>
        <time>2014-12-21T11:09:03Z</time>
      </trkpt>
      <trkpt lat="47.27391" lon="-1.66776">
        <ele>108.5</ele>
        <time>2014-12-21T11:09:06Z</time>
      </trkpt>
      <trkpt lat="47.27383" lon="-1.66769">
        <ele>108</ele>
        <time>2014-12-21T11:09:08Z</time>
      </trkpt>
      <trkpt lat="47.27377" lon="-1.66755">
        <ele>107.6</ele>
        <time>2014-12-21T11:09:10Z</time>
      </trkpt>
      <trkpt lat="47.2737" lon="-1.66741">
        <ele>102.5</ele>
        <time>2014-12-21T11:09:12Z</time>
      </trkpt>
      <trkpt lat="47.27362" lon="-1.66734">
        <ele>104.1</ele>
        <time>2014-12-21T11:09:14Z</time>
      </trkpt>
      <trkpt lat="47.27355" lon="-1.66726">
        <ele>103.6</ele>
        <time>2014-12-21T11:09:16Z</time>
      </trkpt>
      <trkpt lat="47.27348" lon="-1.66717">
        <ele>103.3</ele>
        <time>2014-12-21T11:09:18Z</time>
      </trkpt>
      <trkpt lat="47.27342" lon="-1.66708">
        <ele>103.9</ele>
        <time>2014-12-21T11:09:20Z</time>
      </trkpt>
      <trkpt lat="47.27336" lon="-1.66699">
        <ele>104.3</ele>
        <time>2014-12-21T11:09:22Z</time>
      </trkpt>
      <trkpt lat="47.27331" lon="-1.6669">
        <ele>105.5</ele>
        <time>2014-12-21T11:09:24Z</time>
      </trkpt>
      <trkpt lat="47.27326" lon="-1.66678">
        <ele>103.5</ele>
        <time>2014-12-21T11:09:26Z</time>
      </trkpt>
      <trkpt lat="47.27321" lon="-1.66667">
        <ele>105.1</ele>
        <time>2014-12-21T11:09:28Z</time>
      </trkpt>
      <trkpt lat="47.27315" lon="-1.66652">
        <ele>105.9</ele>
        <time>2014-12-21T11:09:31Z</time>
      </trkpt>
      <trkpt lat="47.27312" lon="-1.66639">
        <ele>106.4</ele>
        <time>2014-12-21T11:09:33Z</time>
      </trkpt>
      <trkpt lat="47.27311" lon="-1.66628">
        <ele>106.3</ele>
        <time>2014-12-21T11:09:35Z</time>
      </trkpt>
      <trkpt lat="47.2731" lon="-1.66618">
        <ele>105.1</ele>
        <time>2014-12-21T11:09:37Z</time>
      </trkpt>
      <trkpt lat="47.27311" lon="-1.666">
        <ele>103.6</ele>
        <time>2014-12-21T11:09:40Z</time>
      </trkpt>
      <trkpt lat="47.27312" lon="-1.66587">
        <ele>102.5</ele>
        <time>2014-12-21T11:09:42Z</time>
      </trkpt>
      <trkpt lat="47.27313" lon="-1.66577">
        <ele>103.3</ele>
        <time>2014-12-21T11:09:44Z</time>
      </trkpt>
      <trkpt lat="47.27313" lon="-1.66563">
        <ele>103.3</ele>
        <time>2014-12-21T11:09:46Z</time>
      </trkpt>
      <trkpt lat="47.27311" lon="-1.66548">
        <ele>104.6</ele>
        <time>2014-12-21T11:09:49Z</time>
      </trkpt>
      <trkpt lat="47.27311" lon="-1.66536">
        <ele>105.9</ele>
        <time>2014-12-21T11:09:51Z</time>
      </trkpt>
      <trkpt lat="47.27313" lon="-1.66524">
        <ele>104.5</ele>
        <time>2014-12-21T11:09:54Z</time>
      </trkpt>
      <trkpt lat="47.27314" lon="-1.66511">
        <ele>101.9</ele>
        <time>2014-12-21T11:09:56Z</time>
      </trkpt>
      <trkpt lat="47.27313" lon="-1.66494">
        <ele>101.1</ele>
        <time>2014-12-21T11:09:59Z</time>
      </trkpt>
      <trkpt lat="47.27315" lon="-1.6648">
        <ele>101.1</ele>
        <time>2014-12-21T11:10:01Z</time>
      </trkpt>
      <trkpt lat="47.27314" lon="-1.66465">
        <ele>102.5</ele>
        <time>2014-12-21T11:10:04Z</time>
      </trkpt>
      <trkpt lat="47.27315" lon="-1.66449">
        <ele>103</ele>
        <time>2014-12-21T11:10:07Z</time>
      </trkpt>
      <trkpt lat="47.27315" lon="-1.66434">
        <ele>101.6</ele>
        <time>2014-12-21T11:10:10Z</time>
      </trkpt>
      <trkpt lat="47.27317" lon="-1.66418">
        <ele>103.6</ele>
        <time>2014-12-21T11:10:13Z</time>
      </trkpt>
      <trkpt lat="47.27318" lon="-1.66401">
        <ele>104</ele>
        <time>2014-12-21T11:10:15Z</time>
      </trkpt>
      <trkpt lat="47.27321" lon="-1.66384">
        <ele>103.6</ele>
        <time>2014-12-21T11:10:17Z</time>
      </trkpt>
      <trkpt lat="47.27323" lon="-1.66365">
        <ele>106</ele>
        <time>2014-12-21T11:10:19Z</time>
      </trkpt>
      <trkpt lat="47.27325" lon="-1.66349">
        <ele>107.5</ele>
        <time>2014-12-21T11:10:21Z</time>
      </trkpt>
      <trkpt lat="47.27327" lon="-1.66336">
        <ele>109</ele>
        <time>2014-12-21T11:10:23Z</time>
      </trkpt>
      <trkpt lat="47.27329" lon="-1.66317">
        <ele>109.3</ele>
        <time>2014-12-21T11:10:25Z</time>
      </trkpt>
      <trkpt lat="47.27331" lon="-1.66303">
        <ele>110</ele>
        <time>2014-12-21T11:10:27Z</time>
      </trkpt>
      <trkpt lat="47.27336" lon="-1.66286">
        <ele>109</ele>
        <time>2014-12-21T11:10:29Z</time>
      </trkpt>
      <trkpt lat="47.27337" lon="-1.6627">
        <ele>110.4</ele>
        <time>2014-12-21T11:10:31Z</time>
      </trkpt>
      <trkpt lat="47.27341" lon="-1.66254">
        <ele>110.4</ele>
        <time>2014-12-21T11:10:33Z</time>
      </trkpt>
      <trkpt lat="47.27342" lon="-1.66238">
        <ele>110.8</ele>
        <time>2014-12-21T11:10:35Z</time>
      </trkpt>
      <trkpt lat="47.27346" lon="-1.66224">
        <ele>110.9</ele>
        <time>2014-12-21T11:10:37Z</time>
      </trkpt>
      <trkpt lat="47.27352" lon="-1.66212">
        <ele>111.9</ele>
        <time>2014-12-21T11:10:39Z</time>
      </trkpt>
      <trkpt lat="47.27356" lon="-1.66202">
        <ele>111.6</ele>
        <time>2014-12-21T11:10:40Z</time>
      </trkpt>
      <trkpt lat="47.27358" lon="-1.66184">
        <ele>110</ele>
        <time>2014-12-21T11:10:42Z</time>
      </trkpt>
      <trkpt lat="47.27364" lon="-1.66169">
        <ele>111</ele>
        <time>2014-12-21T11:10:44Z</time>
      </trkpt>
      <trkpt lat="47.27369" lon="-1.66154">
        <ele>111</ele>
        <time>2014-12-21T11:10:46Z</time>
      </trkpt>
      <trkpt lat="47.27375" lon="-1.66136">
        <ele>110.3</ele>
        <time>2014-12-21T11:10:48Z</time>
      </trkpt>
      <trkpt lat="47.27381" lon="-1.6612">
        <ele>110.6</ele>
        <time>2014-12-21T11:10:50Z</time>
      </trkpt>
      <trkpt lat="47.27386" lon="-1.66103">
        <ele>110.4</ele>
        <time>2014-12-21T11:10:52Z</time>
      </trkpt>
      <trkpt lat="47.27389" lon="-1.6609">
        <ele>111.5</ele>
        <time>2014-12-21T11:10:55Z</time>
      </trkpt>
      <trkpt lat="47.27393" lon="-1.66077">
        <ele>112.5</ele>
        <time>2014-12-21T11:10:58Z</time>
      </trkpt>
      <trkpt lat="47.27396" lon="-1.66066">
        <ele>112</ele>
        <time>2014-12-21T11:10:59Z</time>
      </trkpt>
      <trkpt lat="47.27401" lon="-1.66052">
        <ele>114.5</ele>
        <time>2014-12-21T11:11:01Z</time>
      </trkpt>
      <trkpt lat="47.27406" lon="-1.66044">
        <ele>115</ele>
        <time>2014-12-21T11:11:02Z</time>
      </trkpt>
      <trkpt lat="47.27409" lon="-1.66029">
        <ele>116</ele>
        <time>2014-12-21T11:11:04Z</time>
      </trkpt>
      <trkpt lat="47.27414" lon="-1.66015">
        <ele>116</ele>
        <time>2014-12-21T11:11:06Z</time>
      </trkpt>
      <trkpt lat="47.27419" lon="-1.66002">
        <ele>116</ele>
        <time>2014-12-21T11:11:08Z</time>
      </trkpt>
      <trkpt lat="47.27423" lon="-1.65991">
        <ele>116.1</ele>
        <time>2014-12-21T11:11:10Z</time>
      </trkpt>
      <trkpt lat="47.27431" lon="-1.6598">
        <ele>114.5</ele>
        <time>2014-12-21T11:11:12Z</time>
      </trkpt>
      <trkpt lat="47.27437" lon="-1.65968">
        <ele>110.8</ele>
        <time>2014-12-21T11:11:14Z</time>
      </trkpt>
      <trkpt lat="47.27443" lon="-1.65961">
        <ele>109.5</ele>
        <time>2014-12-21T11:11:16Z</time>
      </trkpt>
      <trkpt lat="47.27448" lon="-1.65948">
        <ele>102.6</ele>
        <time>2014-12-21T11:11:18Z</time>
      </trkpt>
      <trkpt lat="47.27452" lon="-1.65938">
        <ele>102.3</ele>
        <time>2014-12-21T11:11:20Z</time>
      </trkpt>
      <trkpt lat="47.27598" lon="-1.65852">
        <ele>116.1</ele>
        <time>2014-12-21T11:11:54Z</time>
      </trkpt>
      <trkpt lat="47.27609" lon="-1.65841">
        <ele>112.4</ele>
        <time>2014-12-21T11:11:56Z</time>
      </trkpt>
      <trkpt lat="47.27613" lon="-1.6583">
        <ele>101</ele>
        <time>2014-12-21T11:11:57Z</time>
      </trkpt>
      <trkpt lat="47.27616" lon="-1.65819">
        <ele>99.8</ele>
        <time>2014-12-21T11:11:58Z</time>
      </trkpt>
      <trkpt lat="47.2762" lon="-1.658">
        <ele>103.4</ele>
        <time>2014-12-21T11:12:00Z</time>
      </trkpt>
      <trkpt lat="47.27621" lon="-1.65779">
        <ele>103.4</ele>
        <time>2014-12-21T11:12:02Z</time>
      </trkpt>
      <trkpt lat="47.2762" lon="-1.65762">
        <ele>113.6</ele>
        <time>2014-12-21T11:12:04Z</time>
      </trkpt>
      <trkpt lat="47.27618" lon="-1.65747">
        <ele>115.5</ele>
        <time>2014-12-21T11:12:06Z</time>
      </trkpt>
      <trkpt lat="47.27617" lon="-1.65728">
        <ele>119.4</ele>
        <time>2014-12-21T11:12:08Z</time>
      </trkpt>
      <trkpt lat="47.27616" lon="-1.65708">
        <ele>117.1</ele>
        <time>2014-12-21T11:12:10Z</time>
      </trkpt>
      <trkpt lat="47.27612" lon="-1.65691">
        <ele>120</ele>
        <time>2014-12-21T11:12:12Z</time>
      </trkpt>
      <trkpt lat="47.27609" lon="-1.65674">
        <ele>119.5</ele>
        <time>2014-12-21T11:12:14Z</time>
      </trkpt>
      <trkpt lat="47.27604" lon="-1.65657">
        <ele>116.8</ele>
        <time>2014-12-21T11:12:16Z</time>
      </trkpt>
      <trkpt lat="47.27599" lon="-1.65641">
        <ele>112.3</ele>
        <time>2014-12-21T11:12:18Z</time>
      </trkpt>
      <trkpt lat="47.27595" lon="-1.65627">
        <ele>112.1</ele>
        <time>2014-12-21T11:12:20Z</time>
      </trkpt>
      <trkpt lat="47.27592" lon="-1.65615">
        <ele>113.9</ele>
        <time>2014-12-21T11:12:22Z</time>
      </trkpt>
      <trkpt lat="47.27587" lon="-1.65601">
        <ele>114.4</ele>
        <time>2014-12-21T11:12:24Z</time>
      </trkpt>
      <trkpt lat="47.27584" lon="-1.65585">
        <ele>111.8</ele>
        <time>2014-12-21T11:12:26Z</time>
      </trkpt>
      <trkpt lat="47.2758" lon="-1.6557">
        <ele>111.9</ele>
        <time>2014-12-21T11:12:28Z</time>
      </trkpt>
      <trkpt lat="47.27576" lon="-1.65552">
        <ele>110.9</ele>
        <time>2014-12-21T11:12:30Z</time>
      </trkpt>
      <trkpt lat="47.27574" lon="-1.65537">
        <ele>109.5</ele>
        <time>2014-12-21T11:12:32Z</time>
      </trkpt>
      <trkpt lat="47.27572" lon="-1.65519">
        <ele>111</ele>
        <time>2014-12-21T11:12:34Z</time>
      </trkpt>
      <trkpt lat="47.27568" lon="-1.65504">
        <ele>112.1</ele>
        <time>2014-12-21T11:12:36Z</time>
      </trkpt>
      <trkpt lat="47.27567" lon="-1.65493">
        <ele>111</ele>
        <time>2014-12-21T11:12:37Z</time>
      </trkpt>
      <trkpt lat="47.27567" lon="-1.65481">
        <ele>111</ele>
        <time>2014-12-21T11:12:38Z</time>
      </trkpt>
      <trkpt lat="47.27562" lon="-1.65461">
        <ele>111.5</ele>
        <time>2014-12-21T11:12:40Z</time>
      </trkpt>
      <trkpt lat="47.27558" lon="-1.65452">
        <ele>111.9</ele>
        <time>2014-12-21T11:12:41Z</time>
      </trkpt>
      <trkpt lat="47.27554" lon="-1.65442">
        <ele>110.5</ele>
        <time>2014-12-21T11:12:42Z</time>
      </trkpt>
      <trkpt lat="47.27551" lon="-1.65432">
        <ele>109.9</ele>
        <time>2014-12-21T11:12:43Z</time>
      </trkpt>
      <trkpt lat="47.27544" lon="-1.65416">
        <ele>109.9</ele>
        <time>2014-12-21T11:12:45Z</time>
      </trkpt>
      <trkpt lat="47.27538" lon="-1.65402">
        <ele>111.1</ele>
        <time>2014-12-21T11:12:47Z</time>
      </trkpt>
      <trkpt lat="47.2753" lon="-1.6539">
        <ele>113</ele>
        <time>2014-12-21T11:12:49Z</time>
      </trkpt>
      <trkpt lat="47.27524" lon="-1.6538">
        <ele>113.5</ele>
        <time>2014-12-21T11:12:51Z</time>
      </trkpt>
      <trkpt lat="47.27516" lon="-1.6537">
        <ele>112.3</ele>
        <time>2014-12-21T11:12:53Z</time>
      </trkpt>
      <trkpt lat="47.27513" lon="-1.65359">
        <ele>111.8</ele>
        <time>2014-12-21T11:12:54Z</time>
      </trkpt>
      <trkpt lat="47.27512" lon="-1.65341">
        <ele>111.5</ele>
        <time>2014-12-21T11:12:56Z</time>
      </trkpt>
      <trkpt lat="47.27508" lon="-1.65331">
        <ele>110.5</ele>
        <time>2014-12-21T11:12:58Z</time>
      </trkpt>
      <trkpt lat="47.27509" lon="-1.65313">
        <ele>110.1</ele>
        <time>2014-12-21T11:13:01Z</time>
      </trkpt>
      <trkpt lat="47.27503" lon="-1.65293">
        <ele>109.6</ele>
        <time>2014-12-21T11:13:03Z</time>
      </trkpt>
      <trkpt lat="47.27507" lon="-1.65279">
        <ele>109.1</ele>
        <time>2014-12-21T11:13:05Z</time>
      </trkpt>
      <trkpt lat="47.27512" lon="-1.65264">
        <ele>108</ele>
        <time>2014-12-21T11:13:07Z</time>
      </trkpt>
      <trkpt lat="47.27517" lon="-1.65246">
        <ele>107.5</ele>
        <time>2014-12-21T11:13:09Z</time>
      </trkpt>
      <trkpt lat="47.27523" lon="-1.65232">
        <ele>107.5</ele>
        <time>2014-12-21T11:13:11Z</time>
      </trkpt>
      <trkpt lat="47.27528" lon="-1.6522">
        <ele>108</ele>
        <time>2014-12-21T11:13:13Z</time>
      </trkpt>
      <trkpt lat="47.27533" lon="-1.65206">
        <ele>107</ele>
        <time>2014-12-21T11:13:15Z</time>
      </trkpt>
      <trkpt lat="47.27538" lon="-1.65192">
        <ele>106.9</ele>
        <time>2014-12-21T11:13:17Z</time>
      </trkpt>
      <trkpt lat="47.27541" lon="-1.65178">
        <ele>107</ele>
        <time>2014-12-21T11:13:19Z</time>
      </trkpt>
      <trkpt lat="47.27546" lon="-1.65165">
        <ele>107.4</ele>
        <time>2014-12-21T11:13:21Z</time>
      </trkpt>
      <trkpt lat="47.2755" lon="-1.65148">
        <ele>107.8</ele>
        <time>2014-12-21T11:13:23Z</time>
      </trkpt>
      <trkpt lat="47.27555" lon="-1.65134">
        <ele>107.4</ele>
        <time>2014-12-21T11:13:25Z</time>
      </trkpt>
      <trkpt lat="47.27554" lon="-1.6512">
        <ele>107</ele>
        <time>2014-12-21T11:13:27Z</time>
      </trkpt>
      <trkpt lat="47.27554" lon="-1.65107">
        <ele>108</ele>
        <time>2014-12-21T11:13:29Z</time>
      </trkpt>
      <trkpt lat="47.27551" lon="-1.6509">
        <ele>108.3</ele>
        <time>2014-12-21T11:13:31Z</time>
      </trkpt>
      <trkpt lat="47.27549" lon="-1.65075">
        <ele>111.9</ele>
        <time>2014-12-21T11:13:34Z</time>
      </trkpt>
      <trkpt lat="47.27548" lon="-1.65063">
        <ele>112.9</ele>
        <time>2014-12-21T11:13:37Z</time>
      </trkpt>
      <trkpt lat="47.27547" lon="-1.65049">
        <ele>112.5</ele>
        <time>2014-12-21T11:13:39Z</time>
      </trkpt>
      <trkpt lat="47.27545" lon="-1.65035">
        <ele>113.8</ele>
        <time>2014-12-21T11:13:41Z</time>
      </trkpt>
      <trkpt lat="47.27541" lon="-1.65023">
        <ele>115.8</ele>
        <time>2014-12-21T11:13:43Z</time>
      </trkpt>
      <trkpt lat="47.27539" lon="-1.65011">
        <ele>116.9</ele>
        <time>2014-12-21T11:13:45Z</time>
      </trkpt>
      <trkpt lat="47.27537" lon="-1.64999">
        <ele>117</ele>
        <time>2014-12-21T11:13:47Z</time>
      </trkpt>
      <trkpt lat="47.27533" lon="-1.64986">
        <ele>116.6</ele>
        <time>2014-12-21T11:13:49Z</time>
      </trkpt>
      <trkpt lat="47.27533" lon="-1.64972">
        <ele>117.6</ele>
        <time>2014-12-21T11:13:51Z</time>
      </trkpt>
      <trkpt lat="47.27534" lon="-1.64959">
        <ele>116.9</ele>
        <time>2014-12-21T11:13:53Z</time>
      </trkpt>
      <trkpt lat="47.27534" lon="-1.64947">
        <ele>119.4</ele>
        <time>2014-12-21T11:13:55Z</time>
      </trkpt>
      <trkpt lat="47.27536" lon="-1.64937">
        <ele>119.1</ele>
        <time>2014-12-21T11:13:57Z</time>
      </trkpt>
      <trkpt lat="47.27536" lon="-1.64922">
        <ele>117</ele>
        <time>2014-12-21T11:13:59Z</time>
      </trkpt>
      <trkpt lat="47.27534" lon="-1.6491">
        <ele>118.5</ele>
        <time>2014-12-21T11:14:01Z</time>
      </trkpt>
      <trkpt lat="47.27531" lon="-1.64894">
        <ele>117.1</ele>
        <time>2014-12-21T11:14:03Z</time>
      </trkpt>
      <trkpt lat="47.2753" lon="-1.64877">
        <ele>116.3</ele>
        <time>2014-12-21T11:14:05Z</time>
      </trkpt>
      <trkpt lat="47.27528" lon="-1.64861">
        <ele>114.9</ele>
        <time>2014-12-21T11:14:07Z</time>
      </trkpt>
      <trkpt lat="47.27527" lon="-1.64846">
        <ele>114.3</ele>
        <time>2014-12-21T11:14:09Z</time>
      </trkpt>
      <trkpt lat="47.27526" lon="-1.64831">
        <ele>115.3</ele>
        <time>2014-12-21T11:14:11Z</time>
      </trkpt>
      <trkpt lat="47.27528" lon="-1.64817">
        <ele>114.8</ele>
        <time>2014-12-21T11:14:13Z</time>
      </trkpt>
      <trkpt lat="47.27531" lon="-1.64803">
        <ele>115.9</ele>
        <time>2014-12-21T11:14:15Z</time>
      </trkpt>
      <trkpt lat="47.27533" lon="-1.64789">
        <ele>116.1</ele>
        <time>2014-12-21T11:14:17Z</time>
      </trkpt>
      <trkpt lat="47.27536" lon="-1.64774">
        <ele>114.9</ele>
        <time>2014-12-21T11:14:19Z</time>
      </trkpt>
      <trkpt lat="47.27539" lon="-1.6476">
        <ele>114.3</ele>
        <time>2014-12-21T11:14:21Z</time>
      </trkpt>
      <trkpt lat="47.27542" lon="-1.64744">
        <ele>113</ele>
        <time>2014-12-21T11:14:23Z</time>
      </trkpt>
      <trkpt lat="47.27543" lon="-1.64728">
        <ele>113.5</ele>
        <time>2014-12-21T11:14:25Z</time>
      </trkpt>
      <trkpt lat="47.27544" lon="-1.64713">
        <ele>113.1</ele>
        <time>2014-12-21T11:14:27Z</time>
      </trkpt>
      <trkpt lat="47.27544" lon="-1.64695">
        <ele>114</ele>
        <time>2014-12-21T11:14:29Z</time>
      </trkpt>
      <trkpt lat="47.27545" lon="-1.64675">
        <ele>113.5</ele>
        <time>2014-12-21T11:14:31Z</time>
      </trkpt>
      <trkpt lat="47.27548" lon="-1.64655">
        <ele>113.4</ele>
        <time>2014-12-21T11:14:33Z</time>
      </trkpt>
      <trkpt lat="47.2755" lon="-1.64644">
        <ele>113.5</ele>
        <time>2014-12-21T11:14:34Z</time>
      </trkpt>
      <trkpt lat="47.27552" lon="-1.64634">
        <ele>113.5</ele>
        <time>2014-12-21T11:14:35Z</time>
      </trkpt>
      <trkpt lat="47.27554" lon="-1.64623">
        <ele>114</ele>
        <time>2014-12-21T11:14:36Z</time>
      </trkpt>
      <trkpt lat="47.27557" lon="-1.64612">
        <ele>113.8</ele>
        <time>2014-12-21T11:14:37Z</time>
      </trkpt>
      <trkpt lat="47.2756" lon="-1.64601">
        <ele>114</ele>
        <time>2014-12-21T11:14:38Z</time>
      </trkpt>
      <trkpt lat="47.2756" lon="-1.64589">
        <ele>113.8</ele>
        <time>2014-12-21T11:14:39Z</time>
      </trkpt>
      <trkpt lat="47.27561" lon="-1.64566">
        <ele>114</ele>
        <time>2014-12-21T11:14:41Z</time>
      </trkpt>
      <trkpt lat="47.27561" lon="-1.64545">
        <ele>114</ele>
        <time>2014-12-21T11:14:43Z</time>
      </trkpt>
      <trkpt lat="47.27561" lon="-1.64527">
        <ele>114.9</ele>
        <time>2014-12-21T11:14:45Z</time>
      </trkpt>
      <trkpt lat="47.27563" lon="-1.64512">
        <ele>115.6</ele>
        <time>2014-12-21T11:14:47Z</time>
      </trkpt>
      <trkpt lat="47.27567" lon="-1.64495">
        <ele>114.4</ele>
        <time>2014-12-21T11:14:49Z</time>
      </trkpt>
      <trkpt lat="47.27562" lon="-1.64485">
        <ele>114</ele>
        <time>2014-12-21T11:14:50Z</time>
      </trkpt>
      <trkpt lat="47.27559" lon="-1.64469">
        <ele>113.8</ele>
        <time>2014-12-21T11:14:52Z</time>
      </trkpt>
      <trkpt lat="47.2756" lon="-1.64453">
        <ele>112.1</ele>
        <time>2014-12-21T11:14:54Z</time>
      </trkpt>
      <trkpt lat="47.27559" lon="-1.6444">
        <ele>110.6</ele>
        <time>2014-12-21T11:14:56Z</time>
      </trkpt>
      <trkpt lat="47.27556" lon="-1.64422">
        <ele>111.1</ele>
        <time>2014-12-21T11:14:58Z</time>
      </trkpt>
      <trkpt lat="47.27554" lon="-1.64405">
        <ele>110.5</ele>
        <time>2014-12-21T11:15:00Z</time>
      </trkpt>
      <trkpt lat="47.27548" lon="-1.64393">
        <ele>109.9</ele>
        <time>2014-12-21T11:15:02Z</time>
      </trkpt>
      <trkpt lat="47.27545" lon="-1.64378">
        <ele>106.9</ele>
        <time>2014-12-21T11:15:04Z</time>
      </trkpt>
      <trkpt lat="47.27539" lon="-1.64369">
        <ele>106.3</ele>
        <time>2014-12-21T11:15:06Z</time>
      </trkpt>
      <trkpt lat="47.27533" lon="-1.64358">
        <ele>107</ele>
        <time>2014-12-21T11:15:09Z</time>
      </trkpt>
      <trkpt lat="47.27529" lon="-1.64347">
        <ele>108.8</ele>
        <time>2014-12-21T11:15:11Z</time>
      </trkpt>
      <trkpt lat="47.27524" lon="-1.64336">
        <ele>108.6</ele>
        <time>2014-12-21T11:15:13Z</time>
      </trkpt>
      <trkpt lat="47.2752" lon="-1.64326">
        <ele>108.3</ele>
        <time>2014-12-21T11:15:15Z</time>
      </trkpt>
      <trkpt lat="47.27514" lon="-1.64316">
        <ele>108.9</ele>
        <time>2014-12-21T11:15:17Z</time>
      </trkpt>
      <trkpt lat="47.27509" lon="-1.64305">
        <ele>106.5</ele>
        <time>2014-12-21T11:15:19Z</time>
      </trkpt>
      <trkpt lat="47.27505" lon="-1.64292">
        <ele>104.1</ele>
        <time>2014-12-21T11:15:21Z</time>
      </trkpt>
      <trkpt lat="47.27501" lon="-1.6428">
        <ele>103.6</ele>
        <time>2014-12-21T11:15:23Z</time>
      </trkpt>
      <trkpt lat="47.27499" lon="-1.64265">
        <ele>101.1</ele>
        <time>2014-12-21T11:15:25Z</time>
      </trkpt>
      <trkpt lat="47.27497" lon="-1.64249">
        <ele>101.5</ele>
        <time>2014-12-21T11:15:27Z</time>
      </trkpt>
      <trkpt lat="47.27498" lon="-1.64236">
        <ele>101.9</ele>
        <time>2014-12-21T11:15:29Z</time>
      </trkpt>
      <trkpt lat="47.275" lon="-1.64223">
        <ele>103.6</ele>
        <time>2014-12-21T11:15:31Z</time>
      </trkpt>
      <trkpt lat="47.27501" lon="-1.64211">
        <ele>104.3</ele>
        <time>2014-12-21T11:15:33Z</time>
      </trkpt>
      <trkpt lat="47.27504" lon="-1.64199">
        <ele>105.6</ele>
        <time>2014-12-21T11:15:35Z</time>
      </trkpt>
      <trkpt lat="47.27505" lon="-1.64181">
        <ele>105.5</ele>
        <time>2014-12-21T11:15:37Z</time>
      </trkpt>
      <trkpt lat="47.27504" lon="-1.64167">
        <ele>106.5</ele>
        <time>2014-12-21T11:15:39Z</time>
      </trkpt>
      <trkpt lat="47.27504" lon="-1.64151">
        <ele>105</ele>
        <time>2014-12-21T11:15:41Z</time>
      </trkpt>
      <trkpt lat="47.27509" lon="-1.64139">
        <ele>103.6</ele>
        <time>2014-12-21T11:15:43Z</time>
      </trkpt>
      <trkpt lat="47.27509" lon="-1.64122">
        <ele>104.3</ele>
        <time>2014-12-21T11:15:45Z</time>
      </trkpt>
      <trkpt lat="47.27509" lon="-1.64106">
        <ele>104.5</ele>
        <time>2014-12-21T11:15:47Z</time>
      </trkpt>
      <trkpt lat="47.2751" lon="-1.64089">
        <ele>105.5</ele>
        <time>2014-12-21T11:15:49Z</time>
      </trkpt>
      <trkpt lat="47.27509" lon="-1.64075">
        <ele>105.5</ele>
        <time>2014-12-21T11:15:51Z</time>
      </trkpt>
      <trkpt lat="47.27508" lon="-1.64059">
        <ele>104.5</ele>
        <time>2014-12-21T11:15:53Z</time>
      </trkpt>
      <trkpt lat="47.27508" lon="-1.64048">
        <ele>105.3</ele>
        <time>2014-12-21T11:15:55Z</time>
      </trkpt>
      <trkpt lat="47.27507" lon="-1.64036">
        <ele>108</ele>
        <time>2014-12-21T11:15:57Z</time>
      </trkpt>
      <trkpt lat="47.27511" lon="-1.64025">
        <ele>108.5</ele>
        <time>2014-12-21T11:15:59Z</time>
      </trkpt>
      <trkpt lat="47.27506" lon="-1.64012">
        <ele>111.4</ele>
        <time>2014-12-21T11:16:01Z</time>
      </trkpt>
      <trkpt lat="47.27507" lon="-1.63999">
        <ele>114.9</ele>
        <time>2014-12-21T11:16:03Z</time>
      </trkpt>
      <trkpt lat="47.27505" lon="-1.63986">
        <ele>116</ele>
        <time>2014-12-21T11:16:05Z</time>
      </trkpt>
      <trkpt lat="47.27506" lon="-1.6397">
        <ele>116.4</ele>
        <time>2014-12-21T11:16:07Z</time>
      </trkpt>
      <trkpt lat="47.27507" lon="-1.63956">
        <ele>116.3</ele>
        <time>2014-12-21T11:16:09Z</time>
      </trkpt>
      <trkpt lat="47.27508" lon="-1.63946">
        <ele>116.5</ele>
        <time>2014-12-21T11:16:10Z</time>
      </trkpt>
      <trkpt lat="47.27509" lon="-1.63929">
        <ele>115.6</ele>
        <time>2014-12-21T11:16:12Z</time>
      </trkpt>
      <trkpt lat="47.27511" lon="-1.63915">
        <ele>116</ele>
        <time>2014-12-21T11:16:14Z</time>
      </trkpt>
      <trkpt lat="47.27511" lon="-1.63902">
        <ele>118.5</ele>
        <time>2014-12-21T11:16:16Z</time>
      </trkpt>
      <trkpt lat="47.27514" lon="-1.6389">
        <ele>115.9</ele>
        <time>2014-12-21T11:16:18Z</time>
      </trkpt>
      <trkpt lat="47.27517" lon="-1.63877">
        <ele>115.5</ele>
        <time>2014-12-21T11:16:20Z</time>
      </trkpt>
      <trkpt lat="47.27518" lon="-1.63861">
        <ele>115</ele>
        <time>2014-12-21T11:16:22Z</time>
      </trkpt>
      <trkpt lat="47.27493" lon="-1.63706">
        <ele>116.6</ele>
        <time>2014-12-21T11:16:54Z</time>
      </trkpt>
      <trkpt lat="47.27487" lon="-1.637">
        <ele>122</ele>
        <time>2014-12-21T11:16:58Z</time>
      </trkpt>
      <trkpt lat="47.27487" lon="-1.63691">
        <ele>123</ele>
        <time>2014-12-21T11:17:05Z</time>
      </trkpt>
      <trkpt lat="47.2748" lon="-1.6368">
        <ele>120.1</ele>
        <time>2014-12-21T11:17:08Z</time>
      </trkpt>
      <trkpt lat="47.27476" lon="-1.63665">
        <ele>115.8</ele>
        <time>2014-12-21T11:17:11Z</time>
      </trkpt>
      <trkpt lat="47.2747" lon="-1.63653">
        <ele>113.6</ele>
        <time>2014-12-21T11:17:13Z</time>
      </trkpt>
      <trkpt lat="47.27464" lon="-1.63638">
        <ele>111.9</ele>
        <time>2014-12-21T11:17:15Z</time>
      </trkpt>
      <trkpt lat="47.2746" lon="-1.63625">
        <ele>109.9</ele>
        <time>2014-12-21T11:17:17Z</time>
      </trkpt>
      <trkpt lat="47.27454" lon="-1.63612">
        <ele>107.6</ele>
        <time>2014-12-21T11:17:19Z</time>
      </trkpt>
      <trkpt lat="47.27448" lon="-1.63599">
        <ele>105.1</ele>
        <time>2014-12-21T11:17:21Z</time>
      </trkpt>
      <trkpt lat="47.27441" lon="-1.63585">
        <ele>104.8</ele>
        <time>2014-12-21T11:17:23Z</time>
      </trkpt>
      <trkpt lat="47.27436" lon="-1.63576">
        <ele>107.4</ele>
        <time>2014-12-21T11:17:25Z</time>
      </trkpt>
      <trkpt lat="47.27432" lon="-1.63566">
        <ele>105.9</ele>
        <time>2014-12-21T11:17:27Z</time>
      </trkpt>
      <trkpt lat="47.27427" lon="-1.63555">
        <ele>105.6</ele>
        <time>2014-12-21T11:17:29Z</time>
      </trkpt>
      <trkpt lat="47.27423" lon="-1.63543">
        <ele>104.3</ele>
        <time>2014-12-21T11:17:31Z</time>
      </trkpt>
      <trkpt lat="47.27418" lon="-1.6353">
        <ele>104.3</ele>
        <time>2014-12-21T11:17:33Z</time>
      </trkpt>
      <trkpt lat="47.27414" lon="-1.63517">
        <ele>103.5</ele>
        <time>2014-12-21T11:17:35Z</time>
      </trkpt>
      <trkpt lat="47.27411" lon="-1.63504">
        <ele>103.3</ele>
        <time>2014-12-21T11:17:37Z</time>
      </trkpt>
      <trkpt lat="47.27408" lon="-1.63488">
        <ele>102.1</ele>
        <time>2014-12-21T11:17:39Z</time>
      </trkpt>
      <trkpt lat="47.27405" lon="-1.63472">
        <ele>102.8</ele>
        <time>2014-12-21T11:17:41Z</time>
      </trkpt>
      <trkpt lat="47.27402" lon="-1.63457">
        <ele>103.1</ele>
        <time>2014-12-21T11:17:43Z</time>
      </trkpt>
      <trkpt lat="47.27398" lon="-1.6344">
        <ele>103</ele>
        <time>2014-12-21T11:17:45Z</time>
      </trkpt>
      <trkpt lat="47.27394" lon="-1.63418">
        <ele>101</ele>
        <time>2014-12-21T11:17:47Z</time>
      </trkpt>
      <trkpt lat="47.27391" lon="-1.63397">
        <ele>99.6</ele>
        <time>2014-12-21T11:17:49Z</time>
      </trkpt>
      <trkpt lat="47.2739" lon="-1.63385">
        <ele>99.4</ele>
        <time>2014-12-21T11:17:50Z</time>
      </trkpt>
      <trkpt lat="47.27385" lon="-1.6337">
        <ele>97.5</ele>
        <time>2014-12-21T11:17:51Z</time>
      </trkpt>
      <trkpt lat="47.27382" lon="-1.63354">
        <ele>96</ele>
        <time>2014-12-21T11:17:52Z</time>
      </trkpt>
      <trkpt lat="47.27379" lon="-1.63343">
        <ele>96.6</ele>
        <time>2014-12-21T11:17:53Z</time>
      </trkpt>
      <trkpt lat="47.27376" lon="-1.63329">
        <ele>96.3</ele>
        <time>2014-12-21T11:17:54Z</time>
      </trkpt>
      <trkpt lat="47.27372" lon="-1.63314">
        <ele>95.5</ele>
        <time>2014-12-21T11:17:55Z</time>
      </trkpt>
      <trkpt lat="47.27368" lon="-1.63301">
        <ele>95.1</ele>
        <time>2014-12-21T11:17:56Z</time>
      </trkpt>
      <trkpt lat="47.27365" lon="-1.63286">
        <ele>96.4</ele>
        <time>2014-12-21T11:17:57Z</time>
      </trkpt>
      <trkpt lat="47.27362" lon="-1.6327">
        <ele>96.6</ele>
        <time>2014-12-21T11:17:58Z</time>
      </trkpt>
      <trkpt lat="47.2736" lon="-1.63254">
        <ele>96.4</ele>
        <time>2014-12-21T11:17:59Z</time>
      </trkpt>
      <trkpt lat="47.27357" lon="-1.6324">
        <ele>95.9</ele>
        <time>2014-12-21T11:18:00Z</time>
      </trkpt>
      <trkpt lat="47.27354" lon="-1.63225">
        <ele>96.3</ele>
        <time>2014-12-21T11:18:01Z</time>
      </trkpt>
      <trkpt lat="47.2735" lon="-1.63211">
        <ele>96</ele>
        <time>2014-12-21T11:18:02Z</time>
      </trkpt>
      <trkpt lat="47.27347" lon="-1.63197">
        <ele>96.3</ele>
        <time>2014-12-21T11:18:03Z</time>
      </trkpt>
      <trkpt lat="47.27344" lon="-1.63184">
        <ele>97.4</ele>
        <time>2014-12-21T11:18:04Z</time>
      </trkpt>
      <trkpt lat="47.27342" lon="-1.63171">
        <ele>98.8</ele>
        <time>2014-12-21T11:18:05Z</time>
      </trkpt>
      <trkpt lat="47.27336" lon="-1.63156">
        <ele>99.3</ele>
        <time>2014-12-21T11:18:06Z</time>
      </trkpt>
      <trkpt lat="47.27336" lon="-1.63143">
        <ele>99</ele>
        <time>2014-12-21T11:18:07Z</time>
      </trkpt>
      <trkpt lat="47.27332" lon="-1.63129">
        <ele>99.3</ele>
        <time>2014-12-21T11:18:08Z</time>
      </trkpt>
      <trkpt lat="47.27329" lon="-1.63115">
        <ele>99.3</ele>
        <time>2014-12-21T11:18:09Z</time>
      </trkpt>
      <trkpt lat="47.27326" lon="-1.63102">
        <ele>99.6</ele>
        <time>2014-12-21T11:18:10Z</time>
      </trkpt>
      <trkpt lat="47.27321" lon="-1.63087">
        <ele>100.5</ele>
        <time>2014-12-21T11:18:11Z</time>
      </trkpt>
      <trkpt lat="47.27318" lon="-1.63074">
        <ele>100.5</ele>
        <time>2014-12-21T11:18:12Z</time>
      </trkpt>
      <trkpt lat="47.27315" lon="-1.63059">
        <ele>100</ele>
        <time>2014-12-21T11:18:13Z</time>
      </trkpt>
      <trkpt lat="47.27312" lon="-1.63046">
        <ele>98.5</ele>
        <time>2014-12-21T11:18:14Z</time>
      </trkpt>
      <trkpt lat="47.27306" lon="-1.63032">
        <ele>96.9</ele>
        <time>2014-12-21T11:18:15Z</time>
      </trkpt>
      <trkpt lat="47.27301" lon="-1.63019">
        <ele>96.9</ele>
        <time>2014-12-21T11:18:16Z</time>
      </trkpt>
      <trkpt lat="47.273" lon="-1.63004">
        <ele>96</ele>
        <time>2014-12-21T11:18:17Z</time>
      </trkpt>
      <trkpt lat="47.27298" lon="-1.6299">
        <ele>95.4</ele>
        <time>2014-12-21T11:18:18Z</time>
      </trkpt>
      <trkpt lat="47.27296" lon="-1.62979">
        <ele>96.8</ele>
        <time>2014-12-21T11:18:19Z</time>
      </trkpt>
      <trkpt lat="47.27293" lon="-1.62966">
        <ele>96.6</ele>
        <time>2014-12-21T11:18:20Z</time>
      </trkpt>
      <trkpt lat="47.27289" lon="-1.62954">
        <ele>97</ele>
        <time>2014-12-21T11:18:21Z</time>
      </trkpt>
      <trkpt lat="47.27284" lon="-1.6294">
        <ele>96</ele>
        <time>2014-12-21T11:18:22Z</time>
      </trkpt>
      <trkpt lat="47.27282" lon="-1.62928">
        <ele>98</ele>
        <time>2014-12-21T11:18:23Z</time>
      </trkpt>
      <trkpt lat="47.27277" lon="-1.62914">
        <ele>98.6</ele>
        <time>2014-12-21T11:18:24Z</time>
      </trkpt>
      <trkpt lat="47.27275" lon="-1.62902">
        <ele>99.1</ele>
        <time>2014-12-21T11:18:25Z</time>
      </trkpt>
      <trkpt lat="47.27271" lon="-1.62887">
        <ele>99</ele>
        <time>2014-12-21T11:18:26Z</time>
      </trkpt>
      <trkpt lat="47.27268" lon="-1.62873">
        <ele>99</ele>
        <time>2014-12-21T11:18:27Z</time>
      </trkpt>
      <trkpt lat="47.27264" lon="-1.6286">
        <ele>98.5</ele>
        <time>2014-12-21T11:18:28Z</time>
      </trkpt>
      <trkpt lat="47.27261" lon="-1.62846">
        <ele>98.6</ele>
        <time>2014-12-21T11:18:29Z</time>
      </trkpt>
      <trkpt lat="47.27257" lon="-1.62833">
        <ele>99.3</ele>
        <time>2014-12-21T11:18:30Z</time>
      </trkpt>
      <trkpt lat="47.27253" lon="-1.6282">
        <ele>99.9</ele>
        <time>2014-12-21T11:18:31Z</time>
      </trkpt>
      <trkpt lat="47.2725" lon="-1.62807">
        <ele>99.9</ele>
        <time>2014-12-21T11:18:32Z</time>
      </trkpt>
      <trkpt lat="47.27246" lon="-1.62792">
        <ele>99</ele>
        <time>2014-12-21T11:18:33Z</time>
      </trkpt>
      <trkpt lat="47.27244" lon="-1.62778">
        <ele>98.9</ele>
        <time>2014-12-21T11:18:34Z</time>
      </trkpt>
      <trkpt lat="47.27242" lon="-1.62763">
        <ele>97.1</ele>
        <time>2014-12-21T11:18:35Z</time>
      </trkpt>
      <trkpt lat="47.27239" lon="-1.6275">
        <ele>97.4</ele>
        <time>2014-12-21T11:18:36Z</time>
      </trkpt>
      <trkpt lat="47.27236" lon="-1.62737">
        <ele>97.9</ele>
        <time>2014-12-21T11:18:37Z</time>
      </trkpt>
      <trkpt lat="47.27233" lon="-1.62725">
        <ele>97.5</ele>
        <time>2014-12-21T11:18:38Z</time>
      </trkpt>
      <trkpt lat="47.27231" lon="-1.62713">
        <ele>97.8</ele>
        <time>2014-12-21T11:18:39Z</time>
      </trkpt>
      <trkpt lat="47.2723" lon="-1.62699">
        <ele>97.5</ele>
        <time>2014-12-21T11:18:40Z</time>
      </trkpt>
      <trkpt lat="47.27227" lon="-1.62687">
        <ele>97</ele>
        <time>2014-12-21T11:18:41Z</time>
      </trkpt>
      <trkpt lat="47.27225" lon="-1.62676">
        <ele>97.4</ele>
        <time>2014-12-21T11:18:42Z</time>
      </trkpt>
      <trkpt lat="47.2722" lon="-1.62662">
        <ele>97.1</ele>
        <time>2014-12-21T11:18:44Z</time>
      </trkpt>
      <trkpt lat="47.27217" lon="-1.62648">
        <ele>96.4</ele>
        <time>2014-12-21T11:18:46Z</time>
      </trkpt>
      <trkpt lat="47.27214" lon="-1.62633">
        <ele>94.8</ele>
        <time>2014-12-21T11:18:48Z</time>
      </trkpt>
      <trkpt lat="47.27215" lon="-1.62619">
        <ele>95</ele>
        <time>2014-12-21T11:18:50Z</time>
      </trkpt>
      <trkpt lat="47.27212" lon="-1.62598">
        <ele>93.8</ele>
        <time>2014-12-21T11:18:52Z</time>
      </trkpt>
      <trkpt lat="47.27209" lon="-1.62588">
        <ele>93.5</ele>
        <time>2014-12-21T11:18:53Z</time>
      </trkpt>
      <trkpt lat="47.27206" lon="-1.62574">
        <ele>92.8</ele>
        <time>2014-12-21T11:18:55Z</time>
      </trkpt>
      <trkpt lat="47.27199" lon="-1.62564">
        <ele>92.5</ele>
        <time>2014-12-21T11:18:57Z</time>
      </trkpt>
      <trkpt lat="47.27194" lon="-1.62548">
        <ele>90.6</ele>
        <time>2014-12-21T11:18:59Z</time>
      </trkpt>
      <trkpt lat="47.27191" lon="-1.62534">
        <ele>91.5</ele>
        <time>2014-12-21T11:19:01Z</time>
      </trkpt>
      <trkpt lat="47.27187" lon="-1.62522">
        <ele>91.5</ele>
        <time>2014-12-21T11:19:03Z</time>
      </trkpt>
      <trkpt lat="47.27184" lon="-1.62506">
        <ele>90.8</ele>
        <time>2014-12-21T11:19:05Z</time>
      </trkpt>
      <trkpt lat="47.27179" lon="-1.62492">
        <ele>89.5</ele>
        <time>2014-12-21T11:19:07Z</time>
      </trkpt>
      <trkpt lat="47.27174" lon="-1.62478">
        <ele>89</ele>
        <time>2014-12-21T11:19:09Z</time>
      </trkpt>
      <trkpt lat="47.27168" lon="-1.62464">
        <ele>90</ele>
        <time>2014-12-21T11:19:11Z</time>
      </trkpt>
      <trkpt lat="47.2716" lon="-1.62446">
        <ele>90.5</ele>
        <time>2014-12-21T11:19:13Z</time>
      </trkpt>
      <trkpt lat="47.27156" lon="-1.62437">
        <ele>89.4</ele>
        <time>2014-12-21T11:19:14Z</time>
      </trkpt>
      <trkpt lat="47.2715" lon="-1.62424">
        <ele>87.3</ele>
        <time>2014-12-21T11:19:16Z</time>
      </trkpt>
      <trkpt lat="47.2714" lon="-1.62409">
        <ele>87</ele>
        <time>2014-12-21T11:19:18Z</time>
      </trkpt>
      <trkpt lat="47.27135" lon="-1.62391">
        <ele>85</ele>
        <time>2014-12-21T11:19:20Z</time>
      </trkpt>
      <trkpt lat="47.27128" lon="-1.62384">
        <ele>83</ele>
        <time>2014-12-21T11:19:21Z</time>
      </trkpt>
      <trkpt lat="47.27123" lon="-1.62377">
        <ele>84.1</ele>
        <time>2014-12-21T11:19:22Z</time>
      </trkpt>
      <trkpt lat="47.27118" lon="-1.62368">
        <ele>84.8</ele>
        <time>2014-12-21T11:19:23Z</time>
      </trkpt>
      <trkpt lat="47.27113" lon="-1.6236">
        <ele>85</ele>
        <time>2014-12-21T11:19:24Z</time>
      </trkpt>
      <trkpt lat="47.27105" lon="-1.62342">
        <ele>85.9</ele>
        <time>2014-12-21T11:19:26Z</time>
      </trkpt>
      <trkpt lat="47.27101" lon="-1.62332">
        <ele>86.5</ele>
        <time>2014-12-21T11:19:27Z</time>
      </trkpt>
      <trkpt lat="47.2709" lon="-1.62323">
        <ele>89</ele>
        <time>2014-12-21T11:19:29Z</time>
      </trkpt>
      <trkpt lat="47.2708" lon="-1.62321">
        <ele>86</ele>
        <time>2014-12-21T11:19:31Z</time>
      </trkpt>
      <trkpt lat="47.27073" lon="-1.62323">
        <ele>82.1</ele>
        <time>2014-12-21T11:19:33Z</time>
      </trkpt>
      <trkpt lat="47.27063" lon="-1.62329">
        <ele>80.6</ele>
        <time>2014-12-21T11:19:35Z</time>
      </trkpt>
      <trkpt lat="47.27056" lon="-1.62332">
        <ele>80</ele>
        <time>2014-12-21T11:19:36Z</time>
      </trkpt>
      <trkpt lat="47.27049" lon="-1.62337">
        <ele>80.4</ele>
        <time>2014-12-21T11:19:37Z</time>
      </trkpt>
      <trkpt lat="47.27042" lon="-1.62343">
        <ele>81</ele>
        <time>2014-12-21T11:19:39Z</time>
      </trkpt>
      <trkpt lat="47.27041" lon="-1.62358">
        <ele>77.8</ele>
        <time>2014-12-21T11:19:41Z</time>
      </trkpt>
      <trkpt lat="47.27044" lon="-1.62371">
        <ele>77</ele>
        <time>2014-12-21T11:19:43Z</time>
      </trkpt>
      <trkpt lat="47.27041" lon="-1.62383">
        <ele>75.5</ele>
        <time>2014-12-21T11:19:45Z</time>
      </trkpt>
      <trkpt lat="47.27033" lon="-1.6239">
        <ele>74.9</ele>
        <time>2014-12-21T11:19:47Z</time>
      </trkpt>
      <trkpt lat="47.27027" lon="-1.62398">
        <ele>72.5</ele>
        <time>2014-12-21T11:19:49Z</time>
      </trkpt>
      <trkpt lat="47.27021" lon="-1.6241">
        <ele>72.8</ele>
        <time>2014-12-21T11:19:52Z</time>
      </trkpt>
      <trkpt lat="47.27017" lon="-1.6242">
        <ele>71</ele>
        <time>2014-12-21T11:19:54Z</time>
      </trkpt>
      <trkpt lat="47.27015" lon="-1.62421">
        <ele>73.1</ele>
        <time>2014-12-21T11:20:01Z</time>
      </trkpt>
      <trkpt lat="47.27015" lon="-1.62421">
        <ele>72</ele>
        <time>2014-12-21T11:20:08Z</time>
      </trkpt>
      <trkpt lat="47.27011" lon="-1.62419">
        <ele>78.6</ele>
        <time>2014-12-21T11:21:02Z</time>
      </trkpt>
      <trkpt lat="47.27012" lon="-1.6242">
        <ele>76.5</ele>
        <time>2014-12-21T11:21:09Z</time>
      </trkpt>
      <trkpt lat="47.27012" lon="-1.62419">
        <ele>74.5</ele>
        <time>2014-12-21T11:21:16Z</time>
      </trkpt>
    </trkseg>
  </trk>
</gpx>